LiveATC.Net - Listen to live air traffic control over the Internet!
Airport/ARTCC Code
Frequency Search
(e.g., 124.400, 128.75)
Site-wide search
 


Browse Feeds
Top 50 Feeds
Coverage Map
Bad Weather Areas

LiveATC FAQ
Offer LiveATC feed
Contact LiveATC.net
Press Inquiries

LiveATC on iPhone
LiveATC on Android

Windows Phone
Windows 8/10

LiveATC Mobile
(Mobile browser)

ATC Audio Archives
Interesting Recordings

LiveATC Forums

Home Page
About LiveATC.net
Make a Donation
Terms of Use
Privacy Policy

Canadian Air Freqs

AIRMETs/SIGMETs

FAA Airport Status
Nat'l Airspace Status
Arrival Demand Charts


Server Software By:
Icecast.org
Liquidsoap

Select an area of interest:
U.S. Feeds: Class B Airports | Class C Airports | Class D/Other Airports | ARTCC (Centers)
International Feeds: Canada | Europe | Oceania | Asia | South America | North/Central America | Africa
Misc Feeds: HF Feeds
Search by ICAO/IATA airport code:   (e.g., kbos, kjfk, lax, eham, etc.)


Currently Available Live Feeds: 2593
Status Updated: Wed Jan 22 2020 09:45:21 UTC


NOTICE

Unauthorized use prohibited. See LiveATC.net Terms of Service

International Airport Feeds

 

EFKK Tower
Kronoby, Finland

Feed Status: DOWN
Offline since: 2019-11-19 19:20:39 UTC

EFKK 220920Z AUTO 33010KT 300V360 CAVOK 00/M04 Q1007

Kronoby Tower: 120.100

EFKU Tower/Approach
Siilinjarvi, Finland

Feed Status: DOWN
Offline since: 2020-01-11 14:34:05 UTC

EFKU 220920Z 34013KT 9999 SCT020 BKN049 M02/M06 Q1000

Kuopio Approach: 130.600
Kuopio Tower: 120.150

Dutch Mil Radar (Archives)
Amsterdam, Netherlands

Feed Status: UP
Listen in your browser - HTML5 player(in browser, HTML5)
Click here to listen with your own player(launches your MP3 player)

EHLE 220925Z AUTO 22005KT 1000 R23/1300U BR OVC001 04/04 Q1036 NOSIG

EHLE Flight Activity (Flightaware)

Listeners: 0 out of 899 total

Dutch Mil Flight Info: 264.325
Dutch Mil Radar: 128.355
Dutch Mil Radar: 132.350

EHAA Radar ARTIP (Archives)
Amsterdam, Netherlands

Feed Status: UP
Listen in your browser - HTML5 player(in browser, HTML5)
Click here to listen with your own player(launches your MP3 player)

EHAM 220925Z 24003KT 200V290 1000 R18C/1400N R27/1700N R18R/1100N R06/1500N PRFG -DZ FEW001 BKN002 OVC003 05/05 Q1037 NOSIG

EHAM Flight Activity (Flightaware)

Listeners: 0 out of 899 total

EHAA Radar Sector 1 ARTIP: 120.550

EHAA Radar East Inbound (Archives)
Amsterdam, Netherlands

Feed Status: UP
Listen in your browser - HTML5 player(in browser, HTML5)
Click here to listen with your own player(launches your MP3 player)

EHAM 220925Z 24003KT 200V290 1000 R18C/1400N R27/1700N R18R/1100N R06/1500N PRFG -DZ FEW001 BKN002 OVC003 05/05 Q1037 NOSIG

EHAM Flight Activity (Flightaware)

Listeners: 2 out of 899 total

EHAA Radar Sector 2 East Inbound: 128.575

EHAA Radar East Outbound (Archives)
Amsterdam, Netherlands

Feed Status: UP
Listen in your browser - HTML5 player(in browser, HTML5)
Click here to listen with your own player(launches your MP3 player)

EHAM 220925Z 24003KT 200V290 1000 R18C/1400N R27/1700N R18R/1100N R06/1500N PRFG -DZ FEW001 BKN002 OVC003 05/05 Q1037 NOSIG

EHAM Flight Activity (Flightaware)

Listeners: 1 out of 899 total

EHAA Radar Sector 2 East Outbound: 124.875

EHAA Radar North (Archives)
Amsterdam, Netherlands

Feed Status: UP
Listen in your browser - HTML5 player(in browser, HTML5)
Click here to listen with your own player(launches your MP3 player)

EHAM 220925Z 24003KT 200V290 1000 R18C/1400N R27/1700N R18R/1100N R06/1500N PRFG -DZ FEW001 BKN002 OVC003 05/05 Q1037 NOSIG

EHAM Flight Activity (Flightaware)

Listeners: 0 out of 899 total

EHAA Radar Sector 1 North: 134.375

EHAA Radar Northwest (Archives)
Amsterdam, Netherlands

Feed Status: UP
Listen in your browser - HTML5 player(in browser, HTML5)
Click here to listen with your own player(launches your MP3 player)

EHAM 220925Z 24003KT 200V290 1000 R18C/1400N R27/1700N R18R/1100N R06/1500N PRFG -DZ FEW001 BKN002 OVC003 05/05 Q1037 NOSIG

EHAM Flight Activity (Flightaware)

Listeners: 2 out of 899 total

EHAA Radar Sector 5 Northwest: 123.7000

EHAA Radar RIVER (Archives)
Amsterdam, Netherlands

Feed Status: UP
Listen in your browser - HTML5 player(in browser, HTML5)
Click here to listen with your own player(launches your MP3 player)

EHAM 220925Z 24003KT 200V290 1000 R18C/1400N R27/1700N R18R/1100N R06/1500N PRFG -DZ FEW001 BKN002 OVC003 05/05 Q1037 NOSIG

EHAM Flight Activity (Flightaware)

Listeners: 0 out of 899 total

EHAA Radar Sector 3 RIVER: 130.950

EHAA Radar South (Archives)
Amsterdam, Netherlands

Feed Status: UP
Listen in your browser - HTML5 player(in browser, HTML5)
Click here to listen with your own player(launches your MP3 player)

EHAM 220925Z 24003KT 200V290 1000 R18C/1400N R27/1700N R18R/1100N R06/1500N PRFG -DZ FEW001 BKN002 OVC003 05/05 Q1037 NOSIG

EHAM Flight Activity (Flightaware)

Listeners: 0 out of 899 total

EHAA Radar Sector 3 South: 123.850

EHAA Radar South (Backup) (Archives)
Amsterdam, Netherlands

Feed Status: UP
Listen in your browser - HTML5 player(in browser, HTML5)
Click here to listen with your own player(launches your MP3 player)

EHAM 220925Z 24003KT 200V290 1000 R18C/1400N R27/1700N R18R/1100N R06/1500N PRFG -DZ FEW001 BKN002 OVC003 05/05 Q1037 NOSIG

EHAM Flight Activity (Flightaware)

Listeners: 0 out of 899 total

EHAA Radar Sector 3 South Backup : 127.775

EHAA Radar Southwest (Archives)
Amsterdam, Netherlands

Feed Status: UP
Listen in your browser - HTML5 player(in browser, HTML5)
Click here to listen with your own player(launches your MP3 player)

EHAM 220925Z 24003KT 200V290 1000 R18C/1400N R27/1700N R18R/1100N R06/1500N PRFG -DZ FEW001 BKN002 OVC003 05/05 Q1037 NOSIG

EHAM Flight Activity (Flightaware)

Listeners: 0 out of 899 total

EHAA Radar Sector 4 Southwest: 125.750

EHAA Radar SUGOL (Archives)
Amsterdam, Netherlands

Feed Status: UP
Listen in your browser - HTML5 player(in browser, HTML5)
Click here to listen with your own player(launches your MP3 player)

EHAM 220925Z 24003KT 200V290 1000 R18C/1400N R27/1700N R18R/1100N R06/1500N PRFG -DZ FEW001 BKN002 OVC003 05/05 Q1037 NOSIG

EHAM Flight Activity (Flightaware)

Listeners: 0 out of 899 total

EHAA Radar Sector 5 SUGOL: 118.800

EHAM Airside Ops Mgr (AOM) (Archives)
Amsterdam, Netherlands

Feed Status: UP
Listen in your browser - HTML5 player(in browser, HTML5)
Click here to listen with your own player(launches your MP3 player)

EHAM 220925Z 24003KT 200V290 1000 R18C/1400N R27/1700N R18R/1100N R06/1500N PRFG -DZ FEW001 BKN002 OVC003 05/05 Q1037 NOSIG

EHAM Flight Activity (Flightaware)

Listeners: 0 out of 899 total

Schiphol Airside Operations Manager: 130.475

EHAM App/Dep Backup (Archives)
Amsterdam, Netherlands

Feed Status: UP
Listen in your browser - HTML5 player(in browser, HTML5)
Click here to listen with your own player(launches your MP3 player)

EHAM 220925Z 24003KT 200V290 1000 R18C/1400N R27/1700N R18R/1100N R06/1500N PRFG -DZ FEW001 BKN002 OVC003 05/05 Q1037 NOSIG

EHAM Flight Activity (Flightaware)

Listeners: 0 out of 899 total

Schiphol App/Dep Backup: 118.075

EHAM App/Dep TMA East (Archives)
Amsterdam, Netherlands

Feed Status: UP
Listen in your browser - HTML5 player(in browser, HTML5)
Click here to listen with your own player(launches your MP3 player)

EHAM 220925Z 24003KT 200V290 1000 R18C/1400N R27/1700N R18R/1100N R06/1500N PRFG -DZ FEW001 BKN002 OVC003 05/05 Q1037 NOSIG

EHAM Flight Activity (Flightaware)

Listeners: 1 out of 899 total

Amsterdam Approach/Departure TMA East: 119.055

EHAM App/Dep TMA West (Archives)
Amsterdam, Netherlands

Feed Status: UP
Listen in your browser - HTML5 player(in browser, HTML5)
Click here to listen with your own player(launches your MP3 player)

EHAM 220925Z 24003KT 200V290 1000 R18C/1400N R27/1700N R18R/1100N R06/1500N PRFG -DZ FEW001 BKN002 OVC003 05/05 Q1037 NOSIG

EHAM Flight Activity (Flightaware)

Listeners: 1 out of 899 total

Amsterdam Approach/Departure TMA West: 121.200

EHAM Apron (North) (Archives)
Amsterdam, Netherlands

Feed Status: UP
Listen in your browser - HTML5 player(in browser, HTML5)
Click here to listen with your own player(launches your MP3 player)

EHAM 220925Z 24003KT 200V290 1000 R18C/1400N R27/1700N R18R/1100N R06/1500N PRFG -DZ FEW001 BKN002 OVC003 05/05 Q1037 NOSIG

EHAM Flight Activity (Flightaware)

Listeners: 0 out of 899 total

Schiphol Apron (North): 121.880

EHAM Apron (South) (Archives)
Amsterdam, Netherlands

Feed Status: UP
Listen in your browser - HTML5 player(in browser, HTML5)
Click here to listen with your own player(launches your MP3 player)

EHAM 220925Z 24003KT 200V290 1000 R18C/1400N R27/1700N R18R/1100N R06/1500N PRFG -DZ FEW001 BKN002 OVC003 05/05 Q1037 NOSIG

EHAM Flight Activity (Flightaware)

Listeners: 1 out of 899 total

Schiphol Apron (South): 121.780

EHAM Arrival (Primary) (Archives)
Amsterdam, Netherlands

Feed Status: UP
Listen in your browser - HTML5 player(in browser, HTML5)
Click here to listen with your own player(launches your MP3 player)

EHAM 220925Z 24003KT 200V290 1000 R18C/1400N R27/1700N R18R/1100N R06/1500N PRFG -DZ FEW001 BKN002 OVC003 05/05 Q1037 NOSIG

EHAM Flight Activity (Flightaware)

Listeners: 2 out of 899 total

Amsterdam Arrival : 118.400

EHAM Arrival (Secondary) (Archives)
Amsterdam, Netherlands

Feed Status: UP
Listen in your browser - HTML5 player(in browser, HTML5)
Click here to listen with your own player(launches your MP3 player)

EHAM 220925Z 24003KT 200V290 1000 R18C/1400N R27/1700N R18R/1100N R06/1500N PRFG -DZ FEW001 BKN002 OVC003 05/05 Q1037 NOSIG

EHAM Flight Activity (Flightaware)

Listeners: 0 out of 899 total

Amsterdam Arrival (Secondary): 131.150

EHAM Arrival (Secondary/Backup) (Archives)
Amsterdam, Netherlands

Feed Status: UP
Listen in your browser - HTML5 player(in browser, HTML5)
Click here to listen with your own player(launches your MP3 player)

EHAM 220925Z 24003KT 200V290 1000 R18C/1400N R27/1700N R18R/1100N R06/1500N PRFG -DZ FEW001 BKN002 OVC003 05/05 Q1037 NOSIG

EHAM Flight Activity (Flightaware)

Listeners: 0 out of 899 total

Amsterdam Arrival (Secondary Backup): 131.275

EHAM Arrival Backup/Discrete (Archives)
Amsterdam, Netherlands

Feed Status: UP
Listen in your browser - HTML5 player(in browser, HTML5)
Click here to listen with your own player(launches your MP3 player)

EHAM 220925Z 24003KT 200V290 1000 R18C/1400N R27/1700N R18R/1100N R06/1500N PRFG -DZ FEW001 BKN002 OVC003 05/05 Q1037 NOSIG

EHAM Flight Activity (Flightaware)

Listeners: 0 out of 899 total

Schiphol Arrival Backup: 126.675

EHAM Clearance Delivery (Archives)
Amsterdam, Netherlands

Feed Status: UP
Listen in your browser - HTML5 player(in browser, HTML5)
Click here to listen with your own player(launches your MP3 player)

EHAM 220925Z 24003KT 200V290 1000 R18C/1400N R27/1700N R18R/1100N R06/1500N PRFG -DZ FEW001 BKN002 OVC003 05/05 Q1037 NOSIG

EHAM Flight Activity (Flightaware)

Listeners: 1 out of 899 total

Schiphol Clearance Delivery: 121.980

EHAM Ground (Backup) (Archives)
Amsterdam, Netherlands

Feed Status: UP
Listen in your browser - HTML5 player(in browser, HTML5)
Click here to listen with your own player(launches your MP3 player)

EHAM 220925Z 24003KT 200V290 1000 R18C/1400N R27/1700N R18R/1100N R06/1500N PRFG -DZ FEW001 BKN002 OVC003 05/05 Q1037 NOSIG

EHAM Flight Activity (Flightaware)

Listeners: 0 out of 899 total

Schiphol Ground (Backup): 122.425

EHAM Ground (North) (Archives)
Amsterdam, Netherlands

Feed Status: UP
Listen in your browser - HTML5 player(in browser, HTML5)
Click here to listen with your own player(launches your MP3 player)

EHAM 220925Z 24003KT 200V290 1000 R18C/1400N R27/1700N R18R/1100N R06/1500N PRFG -DZ FEW001 BKN002 OVC003 05/05 Q1037 NOSIG

EHAM Flight Activity (Flightaware)

Listeners: 0 out of 899 total

Schiphol Ground (North): 121.805

EHAM Ground (South) (Archives)
Amsterdam, Netherlands

Feed Status: UP
Listen in your browser - HTML5 player(in browser, HTML5)
Click here to listen with your own player(launches your MP3 player)

EHAM 220925Z 24003KT 200V290 1000 R18C/1400N R27/1700N R18R/1100N R06/1500N PRFG -DZ FEW001 BKN002 OVC003 05/05 Q1037 NOSIG

EHAM Flight Activity (Flightaware)

Listeners: 0 out of 899 total

Schiphol Ground (South): 121.705

EHAM Ground (West) (Archives)
Amsterdam, Netherlands

Feed Status: UP
Listen in your browser - HTML5 player(in browser, HTML5)
Click here to listen with your own player(launches your MP3 player)

EHAM 220925Z 24003KT 200V290 1000 R18C/1400N R27/1700N R18R/1100N R06/1500N PRFG -DZ FEW001 BKN002 OVC003 05/05 Q1037 NOSIG

EHAM Flight Activity (Flightaware)

Listeners: 0 out of 899 total

Schiphol Ground (West): 121.560

EHAM Info North Sea (North) (Archives)
Amsterdam, Netherlands

Feed Status: UP
Listen in your browser - HTML5 player(in browser, HTML5)
Click here to listen with your own player(launches your MP3 player)

EHAM 220925Z 24003KT 200V290 1000 R18C/1400N R27/1700N R18R/1100N R06/1500N PRFG -DZ FEW001 BKN002 OVC003 05/05 Q1037 NOSIG

EHAM Flight Activity (Flightaware)

Listeners: 0 out of 899 total

Amsterdam Info North Sea (North): 119.175

EHAM Info North Sea (Over Land) (Archives)
Amsterdam, Netherlands

Feed Status: UP
Listen in your browser - HTML5 player(in browser, HTML5)
Click here to listen with your own player(launches your MP3 player)

EHAM 220925Z 24003KT 200V290 1000 R18C/1400N R27/1700N R18R/1100N R06/1500N PRFG -DZ FEW001 BKN002 OVC003 05/05 Q1037 NOSIG

EHAM Flight Activity (Flightaware)

Listeners: 2 out of 899 total

Amsterdam Info North Sea (Over Land): 124.300

EHAM Info North Sea (South) (Archives)
Amsterdam, Netherlands

Feed Status: UP
Listen in your browser - HTML5 player(in browser, HTML5)
Click here to listen with your own player(launches your MP3 player)

EHAM 220925Z 24003KT 200V290 1000 R18C/1400N R27/1700N R18R/1100N R06/1500N PRFG -DZ FEW001 BKN002 OVC003 05/05 Q1037 NOSIG

EHAM Flight Activity (Flightaware)

Listeners: 0 out of 899 total

Amsterdam Info North Sea (South): 136.650

EHAM Ops (Archives)
Amsterdam, Netherlands

Feed Status: UP
Listen in your browser - HTML5 player(in browser, HTML5)
Click here to listen with your own player(launches your MP3 player)

EHAM 220925Z 24003KT 200V290 1000 R18C/1400N R27/1700N R18R/1100N R06/1500N PRFG -DZ FEW001 BKN002 OVC003 05/05 Q1037 NOSIG

EHAM Flight Activity (Flightaware)

Listeners: 0 out of 899 total

Schiphol Ops 1: 465.770
Schiphol Ops 2: 466.470
Schiphol Runway Ops: 447.175

EHAM Schiphol Outbound Planner (Archives)
Amsterdam, Netherlands

Feed Status: UP
Listen in your browser - HTML5 player(in browser, HTML5)
Click here to listen with your own player(launches your MP3 player)

EHAM 220925Z 24003KT 200V290 1000 R18C/1400N R27/1700N R18R/1100N R06/1500N PRFG -DZ FEW001 BKN002 OVC003 05/05 Q1037 NOSIG

EHAM Flight Activity (Flightaware)

Listeners: 0 out of 899 total

Schiphol Outbound Planner: 121.655

EHAM Tow Traffic (Archives)
Amsterdam, Netherlands

Feed Status: UP
Listen in your browser - HTML5 player(in browser, HTML5)
Click here to listen with your own player(launches your MP3 player)

EHAM 220925Z 24003KT 200V290 1000 R18C/1400N R27/1700N R18R/1100N R06/1500N PRFG -DZ FEW001 BKN002 OVC003 05/05 Q1037 NOSIG

EHAM Flight Activity (Flightaware)

Listeners: 0 out of 899 total

Schiphol Tow Traffic: 134.875

EHAM Tower (06/24) (Archives)
Amsterdam, Netherlands

Feed Status: UP
Listen in your browser - HTML5 player(in browser, HTML5)
Click here to listen with your own player(launches your MP3 player)

EHAM 220925Z 24003KT 200V290 1000 R18C/1400N R27/1700N R18R/1100N R06/1500N PRFG -DZ FEW001 BKN002 OVC003 05/05 Q1037 NOSIG

EHAM Flight Activity (Flightaware)

Listeners: 0 out of 899 total

Schiphol Tower Main 06/24: 118.950

EHAM Tower (18C/36C-27/09) (Archives)
Amsterdam, Netherlands

Feed Status: UP
Listen in your browser - HTML5 player(in browser, HTML5)
Click here to listen with your own player(launches your MP3 player)

EHAM 220925Z 24003KT 200V290 1000 R18C/1400N R27/1700N R18R/1100N R06/1500N PRFG -DZ FEW001 BKN002 OVC003 05/05 Q1037 NOSIG

EHAM Flight Activity (Flightaware)

Listeners: 1 out of 899 total

Schiphol Tower Main 18C/36C - 27/09: 118.100

EHAM Tower (18L/36R-22/04) (Archives)
Amsterdam, Netherlands

Feed Status: UP
Listen in your browser - HTML5 player(in browser, HTML5)
Click here to listen with your own player(launches your MP3 player)

EHAM 220925Z 24003KT 200V290 1000 R18C/1400N R27/1700N R18R/1100N R06/1500N PRFG -DZ FEW001 BKN002 OVC003 05/05 Q1037 NOSIG

EHAM Flight Activity (Flightaware)

Listeners: 2 out of 899 total

Schiphol Tower Main 18L/36R - 22/04: 119.225

EHAM Tower Backup (Archives)
Amsterdam, Netherlands

Feed Status: UP
Listen in your browser - HTML5 player(in browser, HTML5)
Click here to listen with your own player(launches your MP3 player)

EHAM 220925Z 24003KT 200V290 1000 R18C/1400N R27/1700N R18R/1100N R06/1500N PRFG -DZ FEW001 BKN002 OVC003 05/05 Q1037 NOSIG

EHAM Flight Activity (Flightaware)

Listeners: 0 out of 899 total

Schiphol Tower Backup: 119.905

EHAM Tower West (18R/36L) (Archives)
Amsterdam, Netherlands

Feed Status: UP
Listen in your browser - HTML5 player(in browser, HTML5)
Click here to listen with your own player(launches your MP3 player)

EHAM 220925Z 24003KT 200V290 1000 R18C/1400N R27/1700N R18R/1100N R06/1500N PRFG -DZ FEW001 BKN002 OVC003 05/05 Q1037 NOSIG

EHAM Flight Activity (Flightaware)

Listeners: 3 out of 899 total

Schiphol Tower West 18R/36L: 118.280

EHBK ATIS (Archives)
Beek, Netherlands

Feed Status: UP
Listen in your browser - HTML5 player(in browser, HTML5)
Click here to listen with your own player(launches your MP3 player)

EHBK 220925Z AUTO 19006KT 1600 BR BKN001 OVC016 M02/M03 Q1037 R03/0///95 TEMPO 3500

EHBK Flight Activity (Flightaware)

Listeners: 0 out of 899 total

Beek ATIS: 124.575

EHBK Gnd/Twr/App (Archives)
Beek, Netherlands

Feed Status: UP
Listen in your browser - HTML5 player(in browser, HTML5)
Click here to listen with your own player(launches your MP3 player)

EHBK 220925Z AUTO 19006KT 1600 BR BKN001 OVC016 M02/M03 Q1037 R03/0///95 TEMPO 3500

EHBK Flight Activity (Flightaware)

Listeners: 1 out of 899 total

Beek Approach: 120.200
Beek Approach: 123.975
Beek Ground: 121.825
Beek Tower: 119.475
Beek Tower: 119.700

MUAC/Eurocontrol Delta High (Archives)
Beek, Netherlands

Feed Status: UP
Listen in your browser - HTML5 player(in browser, HTML5)
Click here to listen with your own player(launches your MP3 player)

EHBK 220925Z AUTO 19006KT 1600 BR BKN001 OVC016 M02/M03 Q1037 R03/0///95 TEMPO 3500

EHBK Flight Activity (Flightaware)

Listeners: 0 out of 899 total

MUAC Delta High Sector: 132.085

MUAC/Eurocontrol Koksy (Archives)
Beek, Netherlands

Feed Status: UP
Listen in your browser - HTML5 player(in browser, HTML5)
Click here to listen with your own player(launches your MP3 player)

EHBK 220925Z AUTO 19006KT 1600 BR BKN001 OVC016 M02/M03 Q1037 R03/0///95 TEMPO 3500

EHBK Flight Activity (Flightaware)

Listeners: 0 out of 899 total

MUAC Koksy Sector: 132.205

MUAC/Eurocontrol Koksy High (Archives)
Beek, Netherlands

Feed Status: UP
Listen in your browser - HTML5 player(in browser, HTML5)
Click here to listen with your own player(launches your MP3 player)

EHBK 220925Z AUTO 19006KT 1600 BR BKN001 OVC016 M02/M03 Q1037 R03/0///95 TEMPO 3500

EHBK Flight Activity (Flightaware)

Listeners: 0 out of 899 total

MUAC Koksy High Sector: 132.755

MUAC/Eurocontrol Lux High (Archives)
Beek, Netherlands

Feed Status: UP
Listen in your browser - HTML5 player(in browser, HTML5)
Click here to listen with your own player(launches your MP3 player)

EHBK 220925Z AUTO 19006KT 1600 BR BKN001 OVC016 M02/M03 Q1037 R03/0///95 TEMPO 3500

EHBK Flight Activity (Flightaware)

Listeners: 0 out of 899 total

MUAC Lux High Sector: 132.315

MUAC/Eurocontrol Lux Low (Archives)
Beek, Netherlands

Feed Status: UP
Listen in your browser - HTML5 player(in browser, HTML5)
Click here to listen with your own player(launches your MP3 player)

EHBK 220925Z AUTO 19006KT 1600 BR BKN001 OVC016 M02/M03 Q1037 R03/0///95 TEMPO 3500

EHBK Flight Activity (Flightaware)

Listeners: 0 out of 899 total

MUAC Lux Low Sector: 133.355

MUAC/Eurocontrol Olno Low (Archives)
Beek, Netherlands

Feed Status: UP
Listen in your browser - HTML5 player(in browser, HTML5)
Click here to listen with your own player(launches your MP3 player)

EHBK 220925Z AUTO 19006KT 1600 BR BKN001 OVC016 M02/M03 Q1037 R03/0///95 TEMPO 3500

EHBK Flight Activity (Flightaware)

Listeners: 0 out of 899 total

MUAC Olno Low Sector: 132.855

MUAC/Eurocontrol Ruhr (Archives)
Beek, Netherlands

Feed Status: UP
Listen in your browser - HTML5 player(in browser, HTML5)
Click here to listen with your own player(launches your MP3 player)

EHBK 220925Z AUTO 19006KT 1600 BR BKN001 OVC016 M02/M03 Q1037 R03/0///95 TEMPO 3500

EHBK Flight Activity (Flightaware)

Listeners: 0 out of 899 total

MUAC Ruhr Sector: 132.515

EHEH Approach #1 (Archives)
Eindhoven, Netherlands

Feed Status: UP
Listen in your browser - HTML5 player(in browser, HTML5)
Click here to listen with your own player(launches your MP3 player)

EHEH 220925Z AUTO 22004KT 190V250 2600 R21/2700N BR BKN002 OVC003 M00/M00 Q1037 AMB 21004KT 2500 BR FEW001 SCT002 OVC005 TEMPO 0800 FZFG OVC001

EHEH Flight Activity (Flightaware)

Listeners: 0 out of 899 total

DutchMil: 132.530
DutchMil RAPCON South: 379.925
DutchMil RAPCON South: 123.180
Eindhoven Arrival/Director: 124.530

EHEH Approach #2 (Archives)
Eindhoven, Netherlands

Feed Status: UP
Listen in your browser - HTML5 player(in browser, HTML5)
Click here to listen with your own player(launches your MP3 player)

EHEH 220925Z AUTO 22004KT 190V250 2600 R21/2700N BR BKN002 OVC003 M00/M00 Q1037 AMB 21004KT 2500 BR FEW001 SCT002 OVC005 TEMPO 0800 FZFG OVC001

EHEH Flight Activity (Flightaware)

Listeners: 1 out of 899 total

Eindhoven Approach/Arrival: 124.530
Eindhoven Approach/Arrival: 132.530
Eindhoven Approach/Arrival: 278.050

EHEH Ground (Archives)
Eindhoven, Netherlands

Feed Status: UP
Listen in your browser - HTML5 player(in browser, HTML5)
Click here to listen with your own player(launches your MP3 player)

EHEH 220925Z AUTO 22004KT 190V250 2600 R21/2700N BR BKN002 OVC003 M00/M00 Q1037 AMB 21004KT 2500 BR FEW001 SCT002 OVC005 TEMPO 0800 FZFG OVC001

EHEH Flight Activity (Flightaware)

Listeners: 0 out of 899 total

Eindhoven Ground: 121.930
Eindhoven Ground: 369.250

EHEH Tower #1 (Archives)
Eindhoven, Netherlands

Feed Status: UP
Listen in your browser - HTML5 player(in browser, HTML5)
Click here to listen with your own player(launches your MP3 player)

EHEH 220925Z AUTO 22004KT 190V250 2600 R21/2700N BR BKN002 OVC003 M00/M00 Q1037 AMB 21004KT 2500 BR FEW001 SCT002 OVC005 TEMPO 0800 FZFG OVC001

EHEH Flight Activity (Flightaware)

Listeners: 1 out of 899 total

Budel Tower: 122.155
Eindhoven Tower: 131.005
Emergency/Guard: 121.500
Generic Tower: 122.100
Volkel Tower: 372.225
Volkel Tower: 136.080

EHEH Tower #2 (Archives)
Eindhoven, Netherlands

Feed Status: UP
Listen in your browser - HTML5 player(in browser, HTML5)
Click here to listen with your own player(launches your MP3 player)

EHEH 220925Z AUTO 22004KT 190V250 2600 R21/2700N BR BKN002 OVC003 M00/M00 Q1037 AMB 21004KT 2500 BR FEW001 SCT002 OVC005 TEMPO 0800 FZFG OVC001

EHEH Flight Activity (Flightaware)

Listeners: 1 out of 899 total

Eindhoven Tower: 122.100
Eindhoven Tower: 131.005
Eindhoven Tower: 281.150

EHGG Approach (Archives)
Groningen, Netherlands

Feed Status: UP
Listen in your browser - HTML5 player(in browser, HTML5)
Click here to listen with your own player(launches your MP3 player)

EHGG 220925Z AUTO 33006KT 290V010 9999 BKN007 OVC008 07/06 Q1035 TEMPO 6000 BKN012

EHGG Flight Activity (Flightaware)

Listeners: 0 out of 899 total

Eelde Approach: 120.305

EHGG ATIS (Archives)
Groningen, Netherlands

Feed Status: UP
Listen in your browser - HTML5 player(in browser, HTML5)
Click here to listen with your own player(launches your MP3 player)

EHGG 220925Z AUTO 33006KT 290V010 9999 BKN007 OVC008 07/06 Q1035 TEMPO 6000 BKN012

EHGG Flight Activity (Flightaware)

Listeners: 0 out of 899 total

Groningen ATIS: 133.555

EHGG Ground (Archives)
Groningen, Netherlands

Feed Status: UP
Listen in your browser - HTML5 player(in browser, HTML5)
Click here to listen with your own player(launches your MP3 player)

EHGG 220925Z AUTO 33006KT 290V010 9999 BKN007 OVC008 07/06 Q1035 TEMPO 6000 BKN012

EHGG Flight Activity (Flightaware)

Listeners: 0 out of 899 total

Eelde Clearance Delivery/Ground: 121.705

EHGG Guard/Emergency (Archives)
Groningen, Netherlands

Feed Status: UP
Listen in your browser - HTML5 player(in browser, HTML5)
Click here to listen with your own player(launches your MP3 player)

EHGG 220925Z AUTO 33006KT 290V010 9999 BKN007 OVC008 07/06 Q1035 TEMPO 6000 BKN012

EHGG Flight Activity (Flightaware)

Listeners: 0 out of 899 total

Emergency/Guard: 121.500

EHGG Tower (Archives)
Groningen, Netherlands

Feed Status: UP
Listen in your browser - HTML5 player(in browser, HTML5)
Click here to listen with your own player(launches your MP3 player)

EHGG 220925Z AUTO 33006KT 290V010 9999 BKN007 OVC008 07/06 Q1035 TEMPO 6000 BKN012

EHGG Flight Activity (Flightaware)

Listeners: 3 out of 899 total

Eelde Tower: 118.705

MUAC/Eurocontrol (EHGG Area) (Archives)
Groningen, Netherlands

Feed Status: UP
Listen in your browser - HTML5 player(in browser, HTML5)
Click here to listen with your own player(launches your MP3 player)

EHGG 220925Z AUTO 33006KT 290V010 9999 BKN007 OVC008 07/06 Q1035 TEMPO 6000 BKN012

EHGG Flight Activity (Flightaware)

Listeners: 1 out of 899 total

MUAC Holstein High Sector: 132.775
MUAC Holstein Sector: 120.9333
MUAC Javer High Sector: 134.700
MUAC Jever Sector: 136.4666

EHHV CTAF (Archives)
Hilversum, Netherlands

Feed Status: UP
Listen in your browser - HTML5 player(in browser, HTML5)
Click here to listen with your own player(launches your MP3 player)

EHHV Flight Activity (Flightaware)

Listeners: 0 out of 899 total

Hilversum Radio: 131.025

Approach/Dutch Mil Radar (Archives)
Lelystad, Netherlands

Feed Status: UP
Listen in your browser - HTML5 player(in browser, HTML5)
Click here to listen with your own player(launches your MP3 player)

EHLE 220925Z AUTO 22005KT 1000 R23/1300U BR OVC001 04/04 Q1036 NOSIG

EHLE Flight Activity (Flightaware)

Listeners: 0 out of 899 total

Dutch Mil Flight Info: 264.325
Dutch Mil Radar: 128.355
Dutch Mil Radar: 132.350

EHLE Tower (Archives)
Lelystad, Netherlands

Feed Status: UP
Listen in your browser - HTML5 player(in browser, HTML5)
Click here to listen with your own player(launches your MP3 player)

EHLE 220925Z AUTO 22005KT 1000 R23/1300U BR OVC001 04/04 Q1036 NOSIG

EHLE Flight Activity (Flightaware)

Listeners: 0 out of 899 total

Lelystad Clearance Delivery: 123.680
Lelystad Tower: 135.180
Lelystad Tower: 123.830

EHMC/EHML Military/Radar (Archives)
Nieuw-Milligen, Netherlands

Feed Status: UP
Listen in your browser - HTML5 player(in browser, HTML5)
Click here to listen with your own player(launches your MP3 player)

EHMC Flight Activity (Flightaware)

Listeners: 0 out of 899 total

AMCC: 234.000
Belga Radar: 129.325
Command Post: 313.550
Dutch Military Radar: 120.825
Dutch Military Radar: 125.925
Dutch Military Radar: 128.350
GCI: 363.100
Lippe Radar: 131.075
London Mil: 135.275
Meteo: 284.425

EHMC/EHML Military/Radar (Archives)
Nieuw-Milligen, Netherlands

Feed Status: UP
Listen in your browser - HTML5 player(in browser, HTML5)
Click here to listen with your own player(launches your MP3 player)

EHMC Flight Activity (Flightaware)

Listeners: 0 out of 899 total

AMCC: 234.000
Belga Radar: 129.325
Command Post: 313.550
Dutch Military Radar: 120.825
Dutch Military Radar: 125.925
Dutch Military Radar: 128.350
GCI: 363.100
Lippe Radar: 131.075
London Mil: 135.275
Meteo: 284.425

EHMM CTAF
Middenmeer, Netherlands

Feed Status: DOWN
Offline since: 2019-11-08 13:29:39 UTC

Middenmeer CTAF: 123.425

EHRD Approach (Archives)
Rotterdam, Netherlands

Feed Status: UP
Listen in your browser - HTML5 player(in browser, HTML5)
Click here to listen with your own player(launches your MP3 player)

EHRD 220925Z AUTO 22004KT 0700 R24/1100D FG FEW001 BKN002 OVC004 05/04 Q1037 NOSIG

EHRD Flight Activity (Flightaware)

Listeners: 0 out of 899 total

Rotterdam Approach: 124.535
Rotterdam Approach: 281.050

EHRD Clearance Delivery (Archives)
Rotterdam, Netherlands

Feed Status: UP
Listen in your browser - HTML5 player(in browser, HTML5)
Click here to listen with your own player(launches your MP3 player)

EHRD 220925Z AUTO 22004KT 0700 R24/1100D FG FEW001 BKN002 OVC004 05/04 Q1037 NOSIG

EHRD Flight Activity (Flightaware)

Listeners: 0 out of 899 total

Rotterdam Del/Gnd: 122.180

EHRD Del/Twr (Archives)
Rotterdam, Netherlands

Feed Status: UP
Listen in your browser - HTML5 player(in browser, HTML5)
Click here to listen with your own player(launches your MP3 player)

EHRD 220925Z AUTO 22004KT 0700 R24/1100D FG FEW001 BKN002 OVC004 05/04 Q1037 NOSIG

EHRD Flight Activity (Flightaware)

Listeners: 0 out of 899 total

Rotterdam Del/Gnd: 122.180
Rotterdam Tower: 118.205

EHRD Gnd/Twr/App (Archives)
Rotterdam, Netherlands

Feed Status: UP
Listen in your browser - HTML5 player(in browser, HTML5)
Click here to listen with your own player(launches your MP3 player)

EHRD 220925Z AUTO 22004KT 0700 R24/1100D FG FEW001 BKN002 OVC004 05/04 Q1037 NOSIG

EHRD Flight Activity (Flightaware)

Listeners: 0 out of 899 total

Adam Info: 124.300
Regional Guard: 119.705
Rotterdam Approach: 127.025
Rotterdam Del/Gnd: 122.180
Rotterdam Tower: 118.205
SAR: 123.100
SAR: 282.800

EHRD Tower (Archives)
Rotterdam, Netherlands

Feed Status: UP
Listen in your browser - HTML5 player(in browser, HTML5)
Click here to listen with your own player(launches your MP3 player)

EHRD 220925Z AUTO 22004KT 0700 R24/1100D FG FEW001 BKN002 OVC004 05/04 Q1037 NOSIG

EHRD Flight Activity (Flightaware)

Listeners: 0 out of 899 total

Rotterdam Tower: 118.205
Rotterdam Tower: 362.300

EHRD Twr/App (Archives)
Rotterdam, Netherlands

Feed Status: UP
Listen in your browser - HTML5 player(in browser, HTML5)
Click here to listen with your own player(launches your MP3 player)

EHRD 220925Z AUTO 22004KT 0700 R24/1100D FG FEW001 BKN002 OVC004 05/04 Q1037 NOSIG

EHRD Flight Activity (Flightaware)

Listeners: out of 899 total

Rotterdam Approach: 127.025
Rotterdam Tower: 118.205

EHTX Gnd/Twr (Archives)
Texel, Netherlands

Feed Status: UP
Listen in your browser - HTML5 player(in browser, HTML5)
Click here to listen with your own player(launches your MP3 player)

EHTX Flight Activity (Flightaware)

Listeners: 0 out of 899 total

Texel Radio (Ground/Tower): 119.300

EHVL CTAF/Range Control (Archives)
Vlieland, Netherlands

Feed Status: UP
Listen in your browser - HTML5 player(in browser, HTML5)
Click here to listen with your own player(launches your MP3 player)

EHVL 220925Z AUTO 35004KT 5000 BR FEW008 OVC009 08/08 Q1036 GRN

EHVL Flight Activity (Flightaware)

Listeners: 0 out of 899 total

Cornfield VHF (CTAF): 122.100
Range Controller (Primary): 291.650
Range Controller (Secondary): 370.300
Range Controller VHF: 138.075

EICK Approach/Departure (Archives)
Cork, Ireland

Feed Status: UP
Listen in your browser - HTML5 player(in browser, HTML5)
Click here to listen with your own player(launches your MP3 player)

EICK 220900Z 34005KT 2000 BR FEW001 SCT005 BKN011 07/07 Q1039 TEMPO 1000

EICK Flight Activity (Flightaware)

Listeners: 0 out of 899 total

Cork Approach: 119.900

EICK Gnd/Twr/App/Dep (Archives)
Cork, Ireland

Feed Status: UP
Listen in your browser - HTML5 player(in browser, HTML5)
Click here to listen with your own player(launches your MP3 player)

EICK 220900Z 34005KT 2000 BR FEW001 SCT005 BKN011 07/07 Q1039 TEMPO 1000

EICK Flight Activity (Flightaware)

Listeners: 1 out of 899 total

Cork Approach: 119.900
Cork Ground: 121.850
Cork Tower: 119.300

EICK Ground/Tower (Archives)
Cork, Ireland

Feed Status: UP
Listen in your browser - HTML5 player(in browser, HTML5)
Click here to listen with your own player(launches your MP3 player)

EICK 220900Z 34005KT 2000 BR FEW001 SCT005 BKN011 07/07 Q1039 TEMPO 1000

EICK Flight Activity (Flightaware)

Listeners: 0 out of 899 total

Cork Ground: 121.850
Cork Tower: 119.300

EIDW Approach (Archives)
Dublin, Ireland

Feed Status: UP
Listen in your browser - HTML5 player(in browser, HTML5)
Click here to listen with your own player(launches your MP3 player)

EIDW 220900Z VRB03KT 0700 R16/1100V1400U R28/2000D R10/1600U FG SCT001 BKN002 BKN006 07/07 Q1039 BECMG 1500

EIDW Flight Activity (Flightaware)

Listeners: 4 out of 899 total

Dublin Approach: 121.100

EIDW Approach (Final) (Archives)
Dublin, Ireland

Feed Status: UP
Listen in your browser - HTML5 player(in browser, HTML5)
Click here to listen with your own player(launches your MP3 player)

EIDW 220900Z VRB03KT 0700 R16/1100V1400U R28/2000D R10/1600U FG SCT001 BKN002 BKN006 07/07 Q1039 BECMG 1500

EIDW Flight Activity (Flightaware)

Listeners: 1 out of 899 total

Dublin Approach (Final): 119.925

EIDW Clearance Delivery (Archives)
Dublin, Ireland

Feed Status: UP
Listen in your browser - HTML5 player(in browser, HTML5)
Click here to listen with your own player(launches your MP3 player)

EIDW 220900Z VRB03KT 0700 R16/1100V1400U R28/2000D R10/1600U FG SCT001 BKN002 BKN006 07/07 Q1039 BECMG 1500

EIDW Flight Activity (Flightaware)

Listeners: 0 out of 899 total

Dublin Clearance Delivery: 121.875

EIDW Del/Gnd/Twr/App/Center (Archives)
Dublin, Ireland

Feed Status: UP
Listen in your browser - HTML5 player(in browser, HTML5)
Click here to listen with your own player(launches your MP3 player)

EIDW 220900Z VRB03KT 0700 R16/1100V1400U R28/2000D R10/1600U FG SCT001 BKN002 BKN006 07/07 Q1039 BECMG 1500

EIDW Flight Activity (Flightaware)

Listeners: 15 out of 899 total

Dublin Approach: 121.100
Dublin Approach (backup): 119.550
Dublin Centre North: 129.175
Dublin Centre South: 126.250
Dublin Clearance Delivery: 121.875
Dublin FIS: 118.500
Dublin Ground: 121.800
Dublin Tower: 118.600

EIDW Ground (Archives)
Dublin, Ireland

Feed Status: UP
Listen in your browser - HTML5 player(in browser, HTML5)
Click here to listen with your own player(launches your MP3 player)

EIDW 220900Z VRB03KT 0700 R16/1100V1400U R28/2000D R10/1600U FG SCT001 BKN002 BKN006 07/07 Q1039 BECMG 1500

EIDW Flight Activity (Flightaware)

Listeners: 0 out of 899 total

Dublin Ground: 121.800

EIDW Ground (North) (Archives)
Dublin, Ireland

Feed Status: UP
Listen in your browser - HTML5 player(in browser, HTML5)
Click here to listen with your own player(launches your MP3 player)

EIDW 220900Z VRB03KT 0700 R16/1100V1400U R28/2000D R10/1600U FG SCT001 BKN002 BKN006 07/07 Q1039 BECMG 1500

EIDW Flight Activity (Flightaware)

Listeners: 0 out of 899 total

Dublin Ground (North): 118.750

EIDW Tower (Archives)
Dublin, Ireland

Feed Status: UP
Listen in your browser - HTML5 player(in browser, HTML5)
Click here to listen with your own player(launches your MP3 player)

EIDW 220900Z VRB03KT 0700 R16/1100V1400U R28/2000D R10/1600U FG SCT001 BKN002 BKN006 07/07 Q1039 BECMG 1500

EIDW Flight Activity (Flightaware)

Listeners: 2 out of 899 total

Dublin Tower: 118.600

EIKN Gnd/Twr/App (Archives)
Charlestown, Ireland

Feed Status: UP
Listen in your browser - HTML5 player(in browser, HTML5)
Click here to listen with your own player(launches your MP3 player)

EIKN 220900Z 35004KT 1800 VCFG FEW002 BKN050 07/07 Q1039 NOSIG

EIKN Flight Activity (Flightaware)

Listeners: 3 out of 899 total

Connaught Ground: 121.900
Connaught Tower: 130.700
Shannon Low Level: 119.075

EINN Approach/Departure (Archives)
Shannon, Ireland

Feed Status: UP
Listen in your browser - HTML5 player(in browser, HTML5)
Click here to listen with your own player(launches your MP3 player)

EINN 220900Z 05001KT 0400 R24/0600N R06/0400U FG OVC001 07/07 Q1040 NOSIG

EINN Flight Activity (Flightaware)

Listeners: 0 out of 899 total

Shannon Approach Radar: 121.400
Shannon Low: 124.700

EINN Gnd/Twr/Ops (Archives)
Shannon, Ireland

Feed Status: UP
Listen in your browser - HTML5 player(in browser, HTML5)
Click here to listen with your own player(launches your MP3 player)

EINN 220900Z 05001KT 0400 R24/0600N R06/0400U FG OVC001 07/07 Q1040 NOSIG

EINN Flight Activity (Flightaware)

Listeners: 1 out of 899 total

Aer Lingus Ops: 131.500
Service Air Ops: 131.450
Shannon Ground: 121.800
Shannon Tower: 118.700
Sig Ops (Pre-Clearance): 131.590

EINN Shannon Control High #1 (Archives)
Shannon, Ireland

Feed Status: UP
Listen in your browser - HTML5 player(in browser, HTML5)
Click here to listen with your own player(launches your MP3 player)

EINN 220900Z 05001KT 0400 R24/0600N R06/0400U FG OVC001 07/07 Q1040 NOSIG

EINN Flight Activity (Flightaware)

Listeners: 12 out of 899 total

Shannon Clearance (Oceanic only): 121.700
Shannon Control: 134.630
Shannon Control: 134.260
Shannon Control: 119.075
Shannon Control (BABAN/DEVOL Sector): 132.150
Shannon Control (Cork Sector): 131.150
Shannon Control (Shannon Sector): 134.280
Shannon Control (SOTA Sector): 135.600
Shannon Control NOTA: 125.875
Shannon Control NOTA: 122.980
Shannon High Level (SOTA Sector): 135.230
Shanwick Radio: 127.650
Track Information: 133.800

EINN Twr/App #1 (Archives)
Shannon, Ireland

Feed Status: UP
Listen in your browser - HTML5 player(in browser, HTML5)
Click here to listen with your own player(launches your MP3 player)

EINN 220900Z 05001KT 0400 R24/0600N R06/0400U FG OVC001 07/07 Q1040 NOSIG

EINN Flight Activity (Flightaware)

Listeners: 1 out of 899 total

Aer Lingus Ops: 131.500
Service Air Ops: 131.450
Shannon Approach Radar: 121.400
Shannon Control: Misc
Shannon Ground: 121.800
Shannon Tower: 118.700
Sig Ops (Pre-Clearance): 131.590

ENAT Twr/App/Control (Archives)
Alta, Norway

Feed Status: UP
Listen in your browser - HTML5 player(in browser, HTML5)
Click here to listen with your own player(launches your MP3 player)

ENAT 220850Z 33027KT 9999 VCSH DRSN FEW019 BKN036 M03/M07 Q1003 RMK WIND 700FT 33039G50KT

ENAT Flight Activity (Flightaware)

Listeners: 0 out of 899 total

Alta Tower (to boat, Harbour Channel 12): 156.600
Alta Tower (to vehicle): 462.400
Alta Tower/Approach: 120.400
Norway Control: 126.700

ENBO Approach (Archives)
Bodo, Norway

Feed Status: UP
Listen in your browser - HTML5 player(in browser, HTML5)
Click here to listen with your own player(launches your MP3 player)

ENBO 220920Z 34013KT 9999 FEW025 02/M02 Q1014 TEMPO 33015G25KT

ENBO Flight Activity (Flightaware)

Listeners: 1 out of 899 total

Bodo Approach: 119.700

ENBO Tower (Archives)
Bodo, Norway

Feed Status: UP
Listen in your browser - HTML5 player(in browser, HTML5)
Click here to listen with your own player(launches your MP3 player)

ENBO 220920Z 34013KT 9999 FEW025 02/M02 Q1014 TEMPO 33015G25KT

ENBO Flight Activity (Flightaware)

Listeners: 1 out of 899 total

Bodo Tower: 118.100

ENCN Tower/Approach (Archives)
Kristiansand, Norway

Feed Status: UP
Listen in your browser - HTML5 player(in browser, HTML5)
Click here to listen with your own player(launches your MP3 player)

ENCN 220920Z VRB01KT CAVOK 05/00 Q1029

ENCN Flight Activity (Flightaware)

Listeners: 1 out of 899 total

Kjevik Tower: 118.100
Kjevik Tower/Approach: 119.950

ENEV Twr/App/ACC (Archives)
Evenes, Norway

Feed Status: UP
Listen in your browser - HTML5 player(in browser, HTML5)
Click here to listen with your own player(launches your MP3 player)

ENEV 220920Z 35008KT 9999 SCT020 BKN044 M02/M03 Q1012 RMK WIND 1400FT 33016KT

ENEV Flight Activity (Flightaware)

Listeners: 0 out of 899 total

Evenes Approach: 120.100
Evenes Tower: 118.000
Norway ACC (Bodo Sector 25): 126.450

ENGM Approach (Archives)
Oslo, Norway

Feed Status: UP
Listen in your browser - HTML5 player(in browser, HTML5)
Click here to listen with your own player(launches your MP3 player)

ENGM 220920Z VRB03KT CAVOK 03/M08 Q1024 NOSIG

ENGM Flight Activity (Flightaware)

Listeners: 2 out of 899 total

Oslo Approach: 118.475
Oslo Approach: 120.450

ENGM Tower (Archives)
Oslo, Norway

Feed Status: UP
Listen in your browser - HTML5 player(in browser, HTML5)
Click here to listen with your own player(launches your MP3 player)

ENGM 220920Z VRB03KT CAVOK 03/M08 Q1024 NOSIG

ENGM Flight Activity (Flightaware)

Listeners: 3 out of 899 total

Oslo Tower (East): 120.100
Oslo Tower (West): 118.300

ENJB CTAF (Archives)
Tonsberg, Norway

Feed Status: UP
Listen in your browser - HTML5 player(in browser, HTML5)
Click here to listen with your own player(launches your MP3 player)

ENTO 220920Z 28007KT CAVOK 04/M05 Q1026 NOSIG

ENTO Flight Activity (Flightaware)

Listeners: 0 out of 899 total

Jarlsberg CTAF: 122.300

ENKJ RDO (Archives)
Kjeller, Norway

Feed Status: UP
Listen in your browser - HTML5 player(in browser, HTML5)
Click here to listen with your own player(launches your MP3 player)

ENKJ Flight Activity (Flightaware)

Listeners: 0 out of 899 total

Kjeller RDO: 119.100

ENLI CTAF (Archives)
Farsund, Norway

Feed Status: UP
Listen in your browser - HTML5 player(in browser, HTML5)
Click here to listen with your own player(launches your MP3 player)

ENLI Flight Activity (Flightaware)

Listeners: 0 out of 899 total

Lista Traffic/Lista Radio: 126.450

ENML Gnd/Twr/App/Center
Molde, Norway

Feed Status: DOWN
Offline since: 2020-01-21 11:34:39 UTC

ENML 220920Z 27012KT 9999 FEW035 BKN060 04/M02 Q1029

Molde Info: 119.950

ENRK CTAF (Archives)
Astorp, Norway

Feed Status: UP
Listen in your browser - HTML5 player(in browser, HTML5)
Click here to listen with your own player(launches your MP3 player)

ENRK Flight Activity (Flightaware)

Listeners: 0 out of 899 total

Rakkestad CTAF: 122.950

ENOR Sector 8 (Archives)
Moss, Norway

Feed Status: UP
Listen in your browser - HTML5 player(in browser, HTML5)
Click here to listen with your own player(launches your MP3 player)

ENOR Flight Activity (Flightaware)

Listeners: 0 out of 899 total

Norway Center (FIR) Sector 8: 118.875

ENRY Tower (Archives)
Moss, Norway

Feed Status: UP
Listen in your browser - HTML5 player(in browser, HTML5)
Click here to listen with your own player(launches your MP3 player)

ENRY 220850Z 26007KT CAVOK 04/M05 Q1026 NOSIG

ENRY Flight Activity (Flightaware)

Listeners: 0 out of 899 total

Rygge Tower: 119.500

ENSO AFIS (Archives)
Stord, Norway

Feed Status: UP
Listen in your browser - HTML5 player(in browser, HTML5)
Click here to listen with your own player(launches your MP3 player)

ENSO 220920Z VRB01KT CAVOK 03/02 Q1031

ENSO Flight Activity (Flightaware)

Listeners: 0 out of 899 total

Stord AFIS: 120.200

ENTC Tower/App (Archives)
Langnes, Norway

Feed Status: UP
Listen in your browser - HTML5 player(in browser, HTML5)
Click here to listen with your own player(launches your MP3 player)

ENTC 220920Z VRB02KT 9999 VCSH FEW011 SCT040 BKN051 M03/M05 Q1009 TEMPO 4000 -SHSN BKN013 RMK WIND 2600FT /////KT

ENTC Flight Activity (Flightaware)

Listeners: 0 out of 899 total

Langnes Tower: 118.300
Langnes VDF (Approach): 123.750

ENTO App/Dep (Archives)
Sandefjord, Norway

Feed Status: UP
Listen in your browser - HTML5 player(in browser, HTML5)
Click here to listen with your own player(launches your MP3 player)

ENTO 220920Z 28007KT CAVOK 04/M05 Q1026 NOSIG

ENTO Flight Activity (Flightaware)

Listeners: 2 out of 899 total

Sandefjord Approach (TMA): 134.050

ENTO Control Sector 4 (Archives)
Sandefjord, Norway

Feed Status: UP
Listen in your browser - HTML5 player(in browser, HTML5)
Click here to listen with your own player(launches your MP3 player)

ENTO 220920Z 28007KT CAVOK 04/M05 Q1026 NOSIG

ENTO Flight Activity (Flightaware)

Listeners: 0 out of 899 total

Norway control Sector 4: 118.875

ENTO Tower (Archives)
Sandefjord, Norway

Feed Status: UP
Listen in your browser - HTML5 player(in browser, HTML5)
Click here to listen with your own player(launches your MP3 player)

ENTO 220920Z 28007KT CAVOK 04/M05 Q1026 NOSIG

ENTO Flight Activity (Flightaware)

Listeners: 0 out of 899 total

Sandefjord Tower: 118.650

ENTO Tower/App (Archives)
Sandefjord, Norway

Feed Status: UP
Listen in your browser - HTML5 player(in browser, HTML5)
Click here to listen with your own player(launches your MP3 player)

ENTO 220920Z 28007KT CAVOK 04/M05 Q1026 NOSIG

ENTO Flight Activity (Flightaware)

Listeners: 1 out of 899 total

ENJB Tonsberg Airport - Jarlsberg - CTAF: 122.300
Farris Approach (TCA): 134.050
Sandefjord Tower: 118.650

ENTO Twr/App (Archives)
Sandefjord, Norway

Feed Status: UP
Listen in your browser - HTML5 player(in browser, HTML5)
Click here to listen with your own player(launches your MP3 player)

ENTO 220920Z 28007KT CAVOK 04/M05 Q1026 NOSIG

ENTO Flight Activity (Flightaware)

Listeners: 0 out of 899 total

Sandefjord Approach (TMA): 134.050
Sandefjord Tower: 118.650

ENVA Gnd/Twr/App (Archives)
Trondheim, Norway

Feed Status: UP
Listen in your browser - HTML5 player(in browser, HTML5)
Click here to listen with your own player(launches your MP3 player)

ENVA 220920Z 25020KT 9999 6000N VCSH FEW005 BKN018CB 02/M00 Q1024 RESHRADZ TEMPO 4000 SHRASN BKN014CB RMK WIND 670FT 26025G41KT

ENVA Flight Activity (Flightaware)

Listeners: 1 out of 899 total

Trondheim Approach: 118.600
Trondheim Ground: 121.600
Trondheim Tower: 119.400

ENZV Gnd/Twr/App (Archives)
Stavanger, Norway

Feed Status: UP
Listen in your browser - HTML5 player(in browser, HTML5)
Click here to listen with your own player(launches your MP3 player)

ENZV 220920Z 34005KT 9999 FEW030 05/04 Q1031 NOSIG

ENZV Flight Activity (Flightaware)

Listeners: 1 out of 899 total

Sola Approach/Departure: 119.600
Sola Ground: 121.750
Sola Tower: 118.350

EPBY Tower (Archives)
Bydgoszcz, Poland

Feed Status: UP
Listen in your browser - HTML5 player(in browser, HTML5)
Click here to listen with your own player(launches your MP3 player)

EPBY 220900Z 28013KT 9999 -RA FEW018 BKN033 BKN038 05/03 Q1023

EPBY Flight Activity (Flightaware)

Listeners: 1 out of 899 total

Bydgoszcz Tower: 131.000

EPGD Tower/Approach (Archives)
Gdansk, Poland

Feed Status: UP
Listen in your browser - HTML5 player(in browser, HTML5)
Click here to listen with your own player(launches your MP3 player)

EPGD 220900Z 31018KT 9999 BKN015 05/02 Q1020

EPGD Flight Activity (Flightaware)

Listeners: 1 out of 899 total

Gdansk Approach: 127.275
Gdansk Tower: 118.100

EPKK Tower/App (Archives)
Krakow, Poland

Feed Status: UP
Listen in your browser - HTML5 player(in browser, HTML5)
Click here to listen with your own player(launches your MP3 player)

EPKK 220900Z 25011KT CAVOK 02/M04 Q1027

EPKK Flight Activity (Flightaware)

Listeners: out of 899 total

Krakow Approach: 121.075
Krakow Approach: 123.258
Krakow Tower: 123.250

EPKR CTAF (Archives)
Krosno, Poland

Feed Status: UP
Listen in your browser - HTML5 player(in browser, HTML5)
Click here to listen with your own player(launches your MP3 player)

EPKR Flight Activity (Flightaware)

Listeners: 0 out of 899 total

Krosno CTAF: 122.400

EPKT Del/Twr/App (Archives)
Katowice, Poland

Feed Status: UP
Listen in your browser - HTML5 player(in browser, HTML5)
Click here to listen with your own player(launches your MP3 player)

EPKT 220900Z 25013KT 9999 BKN012 M01/M05 Q1027

EPKT Flight Activity (Flightaware)

Listeners: 1 out of 899 total

Katowice Delivery: 121.800
Katowice Tower: 129.250
Krakow Approach: 135.400
Krakow Approach: 121.075

EPKT Delivery/Approach (Archives)
Katowice, Poland

Feed Status: UP
Listen in your browser - HTML5 player(in browser, HTML5)
Click here to listen with your own player(launches your MP3 player)

EPKT 220900Z 25013KT 9999 BKN012 M01/M05 Q1027

EPKT Flight Activity (Flightaware)

Listeners: 0 out of 899 total

Katowice Delivery: 121.800
Krakow Approach: 121.075

EPKT Tower/Approach (Archives)
Katowice, Poland

Feed Status: UP
Listen in your browser - HTML5 player(in browser, HTML5)
Click here to listen with your own player(launches your MP3 player)

EPKT 220900Z 25013KT 9999 BKN012 M01/M05 Q1027

EPKT Flight Activity (Flightaware)

Listeners: 0 out of 899 total

Katowice Tower: 129.250
Krakow Approach: 135.400

EPLL Tower (Archives)
Lodz, Poland

Feed Status: UP
Listen in your browser - HTML5 player(in browser, HTML5)
Click here to listen with your own player(launches your MP3 player)

EPLL 220900Z 27016KT 3800 -DZ BR OVC003 00/M00 Q1024

EPLL Flight Activity (Flightaware)

Listeners: 1 out of 899 total

Lodz Tower: 124.230

EPML Info (Archives)
Mielec, Poland

Feed Status: UP
Listen in your browser - HTML5 player(in browser, HTML5)
Click here to listen with your own player(launches your MP3 player)

EPML Flight Activity (Flightaware)

Listeners: 2 out of 899 total

Mielec Info: 119.105

EPPO Twr/App/FIS
Poznan, Poland

Feed Status: DOWN
Offline since: 2019-12-10 11:09:22 UTC

EPPO 220900Z 28012KT 6000 -DZ OVC005 03/03 Q1026

Poznan Approach: 129.025
Poznan Approach: 127.225
Poznan FIS: 126.300
Poznan Tower: 119.975

EPRZ Del/Twr/EPWW Radar (Archives)
Jasionka, Poland

Feed Status: UP
Listen in your browser - HTML5 player(in browser, HTML5)
Click here to listen with your own player(launches your MP3 player)

EPRZ 220900Z 25021KT 9999 BKN027 03/M07 Q1025

EPRZ Flight Activity (Flightaware)

Listeners: 1 out of 899 total

EPWW Radar: 134.175
EPWW Radar: 120.950
Rzeszow Delivery: 121.800
Rzeszow Tower: 126.800

EPWA Approach #1 (Archives)
Warsaw, Poland

Feed Status: UP
Listen in your browser - HTML5 player(in browser, HTML5)
Click here to listen with your own player(launches your MP3 player)

EPWA 220900Z 28011KT 6000 OVC007 03/02 Q1021 TEMPO 5000 BR

EPWA Flight Activity (Flightaware)

Listeners: 5 out of 899 total

Warsaw Approach: 128.800

EPWA Approach #2 (Archives)
Warsaw, Poland

Feed Status: UP
Listen in your browser - HTML5 player(in browser, HTML5)
Click here to listen with your own player(launches your MP3 player)

EPWA 220900Z 28011KT 6000 OVC007 03/02 Q1021 TEMPO 5000 BR

EPWA Flight Activity (Flightaware)

Listeners: 0 out of 899 total

Warsaw Approach: 125.050

EPWA Clearance Delivery (Archives)
Warsaw, Poland

Feed Status: UP
Listen in your browser - HTML5 player(in browser, HTML5)
Click here to listen with your own player(launches your MP3 player)

EPWA 220900Z 28011KT 6000 OVC007 03/02 Q1021 TEMPO 5000 BR

EPWA Flight Activity (Flightaware)

Listeners: 0 out of 899 total

Warsaw Clearance Delivery: 121.600

EPWA Director (Archives)
Warsaw, Poland

Feed Status: UP
Listen in your browser - HTML5 player(in browser, HTML5)
Click here to listen with your own player(launches your MP3 player)

EPWA 220900Z 28011KT 6000 OVC007 03/02 Q1021 TEMPO 5000 BR

EPWA Flight Activity (Flightaware)

Listeners: 0 out of 899 total

Warsaw Director: 129.375

EPWA Ground (Archives)
Warsaw, Poland

Feed Status: UP
Listen in your browser - HTML5 player(in browser, HTML5)
Click here to listen with your own player(launches your MP3 player)

EPWA 220900Z 28011KT 6000 OVC007 03/02 Q1021 TEMPO 5000 BR

EPWA Flight Activity (Flightaware)

Listeners: 1 out of 899 total

Warsaw Ground: 121.900

EPWA Tower #1 (Archives)
Warsaw, Poland

Feed Status: UP
Listen in your browser - HTML5 player(in browser, HTML5)
Click here to listen with your own player(launches your MP3 player)

EPWA 220900Z 28011KT 6000 OVC007 03/02 Q1021 TEMPO 5000 BR

EPWA Flight Activity (Flightaware)

Listeners: 0 out of 899 total

Warsaw Tower: 118.300

EPWA Tower #2 (Archives)
Warsaw, Poland

Feed Status: UP
Listen in your browser - HTML5 player(in browser, HTML5)
Click here to listen with your own player(launches your MP3 player)

EPWA 220900Z 28011KT 6000 OVC007 03/02 Q1021 TEMPO 5000 BR

EPWA Flight Activity (Flightaware)

Listeners: 0 out of 899 total

Warsaw Tower: 118.300

EPWR Tower
Wroclaw, Poland

Feed Status: DOWN
Offline since: 2019-10-14 09:07:39 UTC

EPWR 220900Z 29019KT 9999 -DZ SCT004 BKN011 00/M02 Q1030

Wroclaw Tower: 120.250

EPWR Twr/App (Archives)
Wroclaw, Poland

Feed Status: UP
Listen in your browser - HTML5 player(in browser, HTML5)
Click here to listen with your own player(launches your MP3 player)

EPPO 220900Z 28012KT 6000 -DZ OVC005 03/03 Q1026

EPPO Flight Activity (Flightaware)

Listeners: 1 out of 899 total

Poznan Approach (South): 127.225

EPRZ Del/Twr/EPWW Radar (Archives)
Jasionka, Poland

Feed Status: UP
Listen in your browser - HTML5 player(in browser, HTML5)
Click here to listen with your own player(launches your MP3 player)

EPRZ 220900Z 25021KT 9999 BKN027 03/M07 Q1025

EPRZ Flight Activity (Flightaware)

Listeners: 1 out of 899 total

EPWW Radar: 134.175
EPWW Radar: 120.950
Rzeszow Delivery: 121.800
Rzeszow Tower: 126.800

ESDF Gnd/Twr (Archives)
Ronneby, Sweden

Feed Status: UP
Listen in your browser - HTML5 player(in browser, HTML5)
Click here to listen with your own player(launches your MP3 player)

ESDF 220920Z 33010G22KT 300V010 CAVOK 05/01 Q1023

ESDF Flight Activity (Flightaware)

Listeners: 1 out of 899 total

Ronneby Ground: 121.850
Ronneby Tower: 119.200

ESDF Ronneby Control (Archives)
Ronneby, Sweden

Feed Status: UP
Listen in your browser - HTML5 player(in browser, HTML5)
Click here to listen with your own player(launches your MP3 player)

ESDF 220920Z 33010G22KT 300V010 CAVOK 05/01 Q1023

ESDF Flight Activity (Flightaware)

Listeners: 1 out of 899 total

Ronneby Control: 128.450

ESGG Gnd/Twr/Control
Gothenburg, Sweden

Feed Status: DOWN
Offline since: 2020-01-19 09:57:39 UTC

ESGG 220920Z 32009KT CAVOK 05/00 Q1025 R21/19//95

Emergency/Guard: 121.500
Goteborg Arrival: 120.125
Goteborg Control: 124.675
Goteborg Control: 124.200
Landvetter Ground: 121.900
Landvetter Tower: 118.605

ESMQ Tower (Archives)
Kalmar, Sweden

Feed Status: UP
Listen in your browser - HTML5 player(in browser, HTML5)
Click here to listen with your own player(launches your MP3 player)

ESMQ 220920Z 31013KT CAVOK 05/00 Q1021

ESMQ Flight Activity (Flightaware)

Listeners: 2 out of 899 total

Kalmar Tower: 130.805

ESMS Tower (Archives)
Svedala, Sweden

Feed Status: UP
Listen in your browser - HTML5 player(in browser, HTML5)
Click here to listen with your own player(launches your MP3 player)

ESMS 220920Z 31014KT 9999 BKN012 06/04 Q1026 R17/19//95

ESMS Flight Activity (Flightaware)

Listeners: 1 out of 899 total

Malmo Tower: 118.800

ESOW Twr/CTAF/Control (Archives)
Stockholm, Sweden

Feed Status: UP
Listen in your browser - HTML5 player(in browser, HTML5)
Click here to listen with your own player(launches your MP3 player)

ESOW 220920Z 31004KT 240V040 CAVOK 03/M06 Q1018 R01/19//95

ESOW Flight Activity (Flightaware)

Listeners: 3 out of 899 total

Arlanda Approach: 123.750
Arlanda Approach: 126.655
Arlanda Approach: 130.325
Arlanda Departure: 124.100
Arlanda Tower: 118.505
Arlanda Tower: 128.725
Enkoping/Langtora: 123.525
Eskilstuna: 126.850
Frolunda: 123.400
Johannisberg CTAF: 123.650
Ska Edeby: 123.350
Stockholm Control: 120.155
Stockholm Control: 118.405
Stockholm Control: 118.280
Sweden Control: 133.260
Sweden Control: 129.175
Sweden Control: 131.130
Uppsala Tower: 119.200
Uppsala/Sundbro: 123.350
Vasteras Control: 125.955
Vasteras Tower: 130.600

ESPA Twr/Control (Archives)
Lulea, Sweden

Feed Status: UP
Listen in your browser - HTML5 player(in browser, HTML5)
Click here to listen with your own player(launches your MP3 player)

ESPA 220920Z 29004KT CAVOK M03/M08 Q1007

ESPA Flight Activity (Flightaware)

Listeners: 4 out of 899 total

Emergency/Guard: 121.500
Kallax Control: 125.450
Kallax Tower: 128.200
Sweden Control North: 131.050

ESSG Misc (Archives)
Ludvika, Sweden

Feed Status: UP
Listen in your browser - HTML5 player(in browser, HTML5)
Click here to listen with your own player(launches your MP3 player)

ESSG Flight Activity (Flightaware)

Listeners: 2 out of 899 total

Avesta, Gagnef, Siljansnas: 123.550
Borlange Tower: 127.300
Dala-Jarna: 123.350
Emergency/Guard: 121.500
Karlstad: 119.450
Koping, Arboga, Borberg: 123.150
Ludvika CTAF: 122.100
Mora: 129.850
Orebro: 120.275
Orsa: 123.400
Soaring Freq: 123.500
Sweden Control: 131.125
Sweden Control: 129.175
Sweden Control: 118.200
Sweden Control: 132.150

ESVQ CTAF (Archives)
Koping, Sweden

Feed Status: UP
Listen in your browser - HTML5 player(in browser, HTML5)
Click here to listen with your own player(launches your MP3 player)

ESVQ Flight Activity (Flightaware)

Listeners: 0 out of 899 total

Koping CTAF: 123.150

EVLA AFIS (Archives)
Liepaja, Latvia

Feed Status: UP
Listen in your browser - HTML5 player(in browser, HTML5)
Click here to listen with your own player(launches your MP3 player)

EVLA 220920Z AUTO 33014G26KT 300V360 9999 FEW040/// 06/M02 Q1014

EVLA Flight Activity (Flightaware)

Listeners: 0 out of 899 total

Liepaja AFIS: 129.400

EVRA Approach (Archives)
Riga, Latvia

Feed Status: UP
Listen in your browser - HTML5 player(in browser, HTML5)
Click here to listen with your own player(launches your MP3 player)

EVRA 220920Z 33012KT 290V010 9999 BKN034 04/M02 Q1009 R36/290195 NOSIG

EVRA Flight Activity (Flightaware)

Listeners: 0 out of 899 total

Riga Approach: 129.925

EVRA Approach (Archives)
Riga, Latvia

Feed Status: UP
Listen in your browser - HTML5 player(in browser, HTML5)
Click here to listen with your own player(launches your MP3 player)

EVLA 220920Z AUTO 33014G26KT 300V360 9999 FEW040/// 06/M02 Q1014

EVLA Flight Activity (Flightaware)

Listeners: 0 out of 899 total

Riga Approach: 129.925

EVRA CTAF (Archives)
Riga, Latvia

Feed Status: UP
Listen in your browser - HTML5 player(in browser, HTML5)
Click here to listen with your own player(launches your MP3 player)

EVRA 220920Z 33012KT 290V010 9999 BKN034 04/M02 Q1009 R36/290195 NOSIG

EVRA Flight Activity (Flightaware)

Listeners: 0 out of 899 total

Riga Approach (evenings): 134.850
Riga CTAF: 123.950

EVRA FIC (Archives)
Riga, Latvia

Feed Status: UP
Listen in your browser - HTML5 player(in browser, HTML5)
Click here to listen with your own player(launches your MP3 player)

EVRA 220920Z 33012KT 290V010 9999 BKN034 04/M02 Q1009 R36/290195 NOSIG

EVRA Flight Activity (Flightaware)

Listeners: 0 out of 899 total

Riga FIC: 120.225

EVRA FIC (Archives)
Riga, Latvia

Feed Status: UP
Listen in your browser - HTML5 player(in browser, HTML5)
Click here to listen with your own player(launches your MP3 player)

EVLA 220920Z AUTO 33014G26KT 300V360 9999 FEW040/// 06/M02 Q1014

EVLA Flight Activity (Flightaware)

Listeners: 0 out of 899 total

Riga FIC: 120.225

EVRA Tower/Guard (Archives)
Riga, Latvia

Feed Status: UP
Listen in your browser - HTML5 player(in browser, HTML5)
Click here to listen with your own player(launches your MP3 player)

EVRA 220920Z 33012KT 290V010 9999 BKN034 04/M02 Q1009 R36/290195 NOSIG

EVRA Flight Activity (Flightaware)

Listeners: 0 out of 899 total

Emergency/Guard: 121.500
Riga Tower: 118.100

EYPA Tower (Archives)
Palanga, Lithuania

Feed Status: UP
Listen in your browser - HTML5 player(in browser, HTML5)
Click here to listen with your own player(launches your MP3 player)

EVLA 220920Z AUTO 33014G26KT 300V360 9999 FEW040/// 06/M02 Q1014

EVLA Flight Activity (Flightaware)

Listeners: 0 out of 899 total

Palanga Tower: 124.300

EYVI Twr/App/Misc (Archives)
Vilnius, Lithuania

Feed Status: UP
Listen in your browser - HTML5 player(in browser, HTML5)
Click here to listen with your own player(launches your MP3 player)

EYVI 220920Z 29012KT 260V320 9999 BKN010CB 04/02 Q1009 R01/2///95 NOSIG

EYVI Flight Activity (Flightaware)

Listeners: 0 out of 899 total

Emergency / GUARD: 121.500
FlyLAL, AirBaltic transit services: 131.900
FlyLAL, AirBaltic transit services: 131.600
FlyLAL, AirBaltic transit services: 131.500
Kaunas Approach (EYKA): 124.200
Vilnius Approach: 120.700
Vilnius Control: 132.275
Vilnius Control: 133.425
Vilnius Control: 133.300
Vilnius FIS: 123.850
Vilnius Tower: 118.200
Zokniai A/G (mil): 122.775

EYVP CTAF (Archives)
Paluknys, Lithuania

Feed Status: UP
Listen in your browser - HTML5 player(in browser, HTML5)
Click here to listen with your own player(launches your MP3 player)

EYVP Flight Activity (Flightaware)

Listeners: 1 out of 899 total

EYVP Paluknis CTAF: 119.100

FIMP Twr/App/Ctr #1 (Archives)
Plaine Magnien, Mauritius

Feed Status: UP
Listen in your browser - HTML5 player(in browser, HTML5)
Click here to listen with your own player(launches your MP3 player)

FIMP 220900Z 00000KT 3000E -RA FEW008 SCT014 BKN090 25/25 Q1005 RERA


Listeners: 2 out of 899 total

FIMP Approach: 119.100
FIMP Tower: 118.100
FMEE Approach/Departure: 127.200
Mauritius Centre: 129.300

FIMP Twr/App/Ctr #2 (Archives)
Plaine Magnien, Mauritius

Feed Status: UP
Listen in your browser - HTML5 player(in browser, HTML5)
Click here to listen with your own player(launches your MP3 player)

FIMP 220900Z 00000KT 3000E -RA FEW008 SCT014 BKN090 25/25 Q1005 RERA


Listeners: 0 out of 899 total

FIMP Approach: 119.100
FIMP Tower: 118.100
Mauritius Centre: 129.300

FMEE Tower (Archives)
Sainte-Marie, Reunion

Feed Status: UP
Listen in your browser - HTML5 player(in browser, HTML5)
Click here to listen with your own player(launches your MP3 player)

FMEE 220900Z AUTO 07012KT 9999 ///CB 29/25 Q1003 TEMPO 4000 SHRA


Listeners: 4 out of 899 total

Gillot Tower: 118.400

FMEP Info (Archives)
Saint-Pierre, Reunion

Feed Status: UP
Listen in your browser - HTML5 player(in browser, HTML5)
Click here to listen with your own player(launches your MP3 player)

FMEP 220900Z AUTO 14019KT 9999 BKN010/// OVC020/// ///CB 27/25 Q1004 TEMPO 3000 TSRA BECMG BKN020CB


Listeners: 0 out of 899 total

Saint-Pierre Info: 122.400

FMMI Twr/App/Center (Archives)
Antananarivo, Madagascar

Feed Status: UP
Listen in your browser - HTML5 player(in browser, HTML5)
Click here to listen with your own player(launches your MP3 player)

FMMI 220900Z 07007KT 7000 -RA SCT010 BKN020 19/18 Q1013 TEMPO 4000 SHRA


Listeners: 2 out of 899 total

Ivato Approach: 125.700
Ivato Tower: 120.100
Tana Control: 128.900

LATI Twr/App/ACC (Archives)
Tirana, Albania

Feed Status: UP
Listen in your browser - HTML5 player(in browser, HTML5)
Click here to listen with your own player(launches your MP3 player)

LATI 220920Z 13004KT CAVOK 08/M02 Q1034 NOSIG

LATI Flight Activity (Flightaware)

Listeners: 1 out of 899 total

Tirana Approach/Departure: 133.150
Tirana Approach/Departure: 131.075
Tirana Tower: 122.500
Tirana Tower: 123.500

LBLS Tower/FIC
Lesnovo, Bulgaria

Feed Status: DOWN
Offline since: 2019-08-23 13:30:40 UTC

LBSF 220900Z 28004KT 250V320 8000 NSC M02/M06 Q1032 NOSIG

Lesnovo FIC: 130.600
Lesnovo Tower: 122.250

LBPD Tower (Archives)
Plovdiv, Bulgaria

Feed Status: UP
Listen in your browser - HTML5 player(in browser, HTML5)
Click here to listen with your own player(launches your MP3 player)

LBSF 220900Z 28004KT 250V320 8000 NSC M02/M06 Q1032 NOSIG

LBSF Flight Activity (Flightaware)

Listeners: 0 out of 899 total

Plovdiv Tower: 125.500
Plovdiv Tower: 133.600

LBSF ATIS (Archives)
Sofia, Bulgaria

Feed Status: UP
Listen in your browser - HTML5 player(in browser, HTML5)
Click here to listen with your own player(launches your MP3 player)

LBSF 220900Z 28004KT 250V320 8000 NSC M02/M06 Q1032 NOSIG

LBSF Flight Activity (Flightaware)

Listeners: 1 out of 899 total

Sofia ATIS: 126.680

LBSF Sofia Control East (Archives)
Sofia, Bulgaria

Feed Status: UP
Listen in your browser - HTML5 player(in browser, HTML5)
Click here to listen with your own player(launches your MP3 player)

LBSF 220900Z 28004KT 250V320 8000 NSC M02/M06 Q1032 NOSIG

LBSF Flight Activity (Flightaware)

Listeners: 3 out of 899 total

Sofia Control (East/Middle Sector): 129.100
Sofia Control (Varna Sector): 134.700

LBSF Twr/App #1 (Archives)
Sofia, Bulgaria

Feed Status: UP
Listen in your browser - HTML5 player(in browser, HTML5)
Click here to listen with your own player(launches your MP3 player)

LBSF 220900Z 28004KT 250V320 8000 NSC M02/M06 Q1032 NOSIG

LBSF Flight Activity (Flightaware)

Listeners: 9 out of 899 total

Sofia Approach: 123.700
Sofia Approach: 129.900
Sofia Tower: 118.100
Sofia Tower: 120.200

LBSF Twr/App #2 (Archives)
Sofia, Bulgaria

Feed Status: UP
Listen in your browser - HTML5 player(in browser, HTML5)
Click here to listen with your own player(launches your MP3 player)

LBSF 220900Z 28004KT 250V320 8000 NSC M02/M06 Q1032 NOSIG

LBSF Flight Activity (Flightaware)

Listeners: 1 out of 899 total

Sofia Approach: 123.700
Sofia Tower: 118.100

LBWN Tower/Approach (Archives)
Varna, Bulgaria

Feed Status: UP
Listen in your browser - HTML5 player(in browser, HTML5)
Click here to listen with your own player(launches your MP3 player)

LBWN 220900Z 27014KT CAVOK 05/M04 Q1029 NOSIG

LBWN Flight Activity (Flightaware)

Listeners: 0 out of 899 total

Varna Approach: 121.000
Varna Tower: 119.500

Bordeaux Control (Archives)
Bordeaux, France

Feed Status: UP
Listen in your browser - HTML5 player(in browser, HTML5)
Click here to listen with your own player(launches your MP3 player)

LFBD 220900Z AUTO 02007KT CAVOK 06/M01 Q1026 NOSIG

LFBD Flight Activity (Flightaware)

Listeners: 0 out of 899 total

Air to Air: 123.450
Bordeaux Control BN FL<300: 127.675
Bordeaux Control L3 FL>300: 134.250
Bordeaux Control R2 FL>300: 133.575
Emergency/Guard: 121.500

LFBD Aquitane Approach (Archives)
Bordeaux, France

Feed Status: UP
Listen in your browser - HTML5 player(in browser, HTML5)
Click here to listen with your own player(launches your MP3 player)

LFBD 220900Z AUTO 02007KT CAVOK 06/M01 Q1026 NOSIG

LFBD Flight Activity (Flightaware)

Listeners: 2 out of 899 total

Aquitane Approach: 129.875

LFBD Bordeaux Control Sector X1 (Archives)
Bordeaux, France

Feed Status: UP
Listen in your browser - HTML5 player(in browser, HTML5)
Click here to listen with your own player(launches your MP3 player)

LFBD 220900Z AUTO 02007KT CAVOK 06/M01 Q1026 NOSIG

LFBD Flight Activity (Flightaware)

Listeners: 0 out of 899 total

Bordeaux Control (Sector X1): 118.425

LFBD Ground (Archives)
Bordeaux, France

Feed Status: UP
Listen in your browser - HTML5 player(in browser, HTML5)
Click here to listen with your own player(launches your MP3 player)

LFBD 220900Z AUTO 02007KT CAVOK 06/M01 Q1026 NOSIG

LFBD Flight Activity (Flightaware)

Listeners: 0 out of 899 total

Merignac Ground: 121.900

LFBD Tower (Archives)
Bordeaux, France

Feed Status: UP
Listen in your browser - HTML5 player(in browser, HTML5)
Click here to listen with your own player(launches your MP3 player)

LFBD 220900Z AUTO 02007KT CAVOK 06/M01 Q1026 NOSIG

LFBD Flight Activity (Flightaware)

Listeners: 4 out of 899 total

Merignac Tower: 118.300

LFBU/LFBL Tower (Archives)
Limoges, France

Feed Status: UP
Listen in your browser - HTML5 player(in browser, HTML5)
Click here to listen with your own player(launches your MP3 player)

LFBU 220900Z AUTO 03010KT CAVOK 02/M02 Q1029 NOSIG

LFBU Flight Activity (Flightaware)

Listeners: 0 out of 899 total

LFBL Limoges Tower: 124.055
LFBU Angouleme Tower: 123.150
Medoc: 124.325

Bordeaux Control (Archives)
Angouleme, France

Feed Status: UP
Listen in your browser - HTML5 player(in browser, HTML5)
Click here to listen with your own player(launches your MP3 player)

LFBD 220900Z AUTO 02007KT CAVOK 06/M01 Q1026 NOSIG

LFBD Flight Activity (Flightaware)

Listeners: 0 out of 899 total

Air to Air: 123.450
Bordeaux Control BN FL<300: 127.675
Bordeaux Control L3 FL>300: 134.250
Bordeaux Control R2 FL>300: 133.575
Emergency/Guard: 121.500

LFBU/LFBL Tower (Archives)
Angouleme, France

Feed Status: UP
Listen in your browser - HTML5 player(in browser, HTML5)
Click here to listen with your own player(launches your MP3 player)

LFBU 220900Z AUTO 03010KT CAVOK 02/M02 Q1029 NOSIG

LFBU Flight Activity (Flightaware)

Listeners: 0 out of 899 total

LFBL Limoges Tower: 124.055
LFBU Angouleme Tower: 123.150
Medoc: 124.325

LFBZ Tower
Biarritz, France

Feed Status: DOWN
Offline since: 2019-11-03 03:19:06 UTC

LFBZ 220900Z AUTO 10004KT 9999 OVC023 07/05 Q1024 TEMPO BKN010


LFLL Tower (Archives)
Lyon, France

Feed Status: UP
Listen in your browser - HTML5 player(in browser, HTML5)
Click here to listen with your own player(launches your MP3 player)

LFLL 220900Z 00000KT 4000 BR NSC M01/M02 Q1032 NOSIG

LFLL Flight Activity (Flightaware)

Listeners: 2 out of 899 total

Lyon Tower: 120.450

Lyon FIS (Archives)
Lyon, France

Feed Status: UP
Listen in your browser - HTML5 player(in browser, HTML5)
Click here to listen with your own player(launches your MP3 player)

LFLL 220900Z 00000KT 4000 BR NSC M01/M02 Q1032 NOSIG

LFLL Flight Activity (Flightaware)

Listeners: 1 out of 899 total

Lyon FIS: 135.200

LFLP Twr/LFLB App (Archives)
Annecy, France

Feed Status: UP
Listen in your browser - HTML5 player(in browser, HTML5)
Click here to listen with your own player(launches your MP3 player)

LFLP 220900Z AUTO 33002KT 4200 BR NSC M02/M03 Q1032 BECMG 9999 NSW

LFLP Flight Activity (Flightaware)

Listeners: 3 out of 899 total

Annecy Tower: 118.200
Chambery Approach: 121.205
Chambery Info: 123.700

LFLY Tower (Archives)
Bron, France

Feed Status: UP
Listen in your browser - HTML5 player(in browser, HTML5)
Click here to listen with your own player(launches your MP3 player)

LFLY 220900Z AUTO 33003KT 4600 BR NSC M01/M02 Q1033 BECMG 9999 NSW

LFLY Flight Activity (Flightaware)

Listeners: 0 out of 899 total

Lyon-Bron Tower: 118.100

Lyon FIS (Archives)
Bron, France

Feed Status: UP
Listen in your browser - HTML5 player(in browser, HTML5)
Click here to listen with your own player(launches your MP3 player)

LFLL 220900Z 00000KT 4000 BR NSC M01/M02 Q1032 NOSIG

LFLL Flight Activity (Flightaware)

Listeners: 1 out of 899 total

Lyon FIS: 135.200

LFMD Ground/Tower (Archives)
Cannes, France

Feed Status: UP
Listen in your browser - HTML5 player(in browser, HTML5)
Click here to listen with your own player(launches your MP3 player)

LFMD 220900Z AUTO VRB03KT CAVOK 13/03 Q1032 TEMPO 08015G25KT

LFMD Flight Activity (Flightaware)

Listeners: 1 out of 899 total

Cannes Ground: 121.800
Cannes Tower: 118.625

LFMN Approach (Archives)
Nice, France

Feed Status: UP
Listen in your browser - HTML5 player(in browser, HTML5)
Click here to listen with your own player(launches your MP3 player)

LFMN 220900Z 33008KT 9999 FEW083 BKN230 09/M01 Q1032 BECMG 08020G30KT

LFMN Flight Activity (Flightaware)

Listeners: 1 out of 899 total

Nice Approach: 124.175

LFMN Control (High) (Archives)
Nice, France

Feed Status: UP
Listen in your browser - HTML5 player(in browser, HTML5)
Click here to listen with your own player(launches your MP3 player)

LFMN 220900Z 33008KT 9999 FEW083 BKN230 09/M01 Q1032 BECMG 08020G30KT

LFMN Flight Activity (Flightaware)

Listeners: 0 out of 899 total

Marseille Control Sector K1 (FL245-FL305): 126.780

LFMN FIS/Approach (Archives)
Nice, France

Feed Status: UP
Listen in your browser - HTML5 player(in browser, HTML5)
Click here to listen with your own player(launches your MP3 player)

LFMN 220900Z 33008KT 9999 FEW083 BKN230 09/M01 Q1032 BECMG 08020G30KT

LFMN Flight Activity (Flightaware)

Listeners: 0 out of 899 total

Nice FIS/Approach (TMA4 NICE 2500ft - FL115): 120.850

LFMN Ground/Tower (Archives)
Nice, France

Feed Status: UP
Listen in your browser - HTML5 player(in browser, HTML5)
Click here to listen with your own player(launches your MP3 player)

LFMN 220900Z 33008KT 9999 FEW083 BKN230 09/M01 Q1032 BECMG 08020G30KT

LFMN Flight Activity (Flightaware)

Listeners: 1 out of 899 total

Nice Ground: 121.700
Nice Tower: 118.700

LFPG Departure (Archives)
Paris, France

Feed Status: UP
Listen in your browser - HTML5 player(in browser, HTML5)
Click here to listen with your own player(launches your MP3 player)

LFPG 220900Z VRB02KT 3500 BR NSC M02/M03 Q1035 BECMG 7000 NSW

LFPG Flight Activity (Flightaware)

Listeners: 4 out of 899 total

De Gaulle Departure: 124.350

LFPO Approach (Archives)
Paris, France

Feed Status: UP
Listen in your browser - HTML5 player(in browser, HTML5)
Click here to listen with your own player(launches your MP3 player)

LFPO 220900Z 05004KT 7000 NSC M00/M02 Q1035 TEMPO 4000 BR

LFPO Flight Activity (Flightaware)

Listeners: 4 out of 899 total

Orly Approach: 124.450
Orly Approach: 118.850
Orly Approach: 120.850
Orly Approach: 123.875

LFPO Departure (Archives)
Paris, France

Feed Status: UP
Listen in your browser - HTML5 player(in browser, HTML5)
Click here to listen with your own player(launches your MP3 player)

LFPO 220900Z 05004KT 7000 NSC M00/M02 Q1035 TEMPO 4000 BR

LFPO Flight Activity (Flightaware)

Listeners: 4 out of 899 total

Orly Departure: 127.750

LFPO Tower (Archives)
Paris, France

Feed Status: UP
Listen in your browser - HTML5 player(in browser, HTML5)
Click here to listen with your own player(launches your MP3 player)

LFPO 220900Z 05004KT 7000 NSC M00/M02 Q1035 TEMPO 4000 BR

LFPO Flight Activity (Flightaware)

Listeners: 12 out of 899 total

Orly Tower: 120.500
Orly Tower: 118.700

LFSB Tower (Archives)
Basel, Switzerland

Feed Status: UP
Listen in your browser - HTML5 player(in browser, HTML5)
Click here to listen with your own player(launches your MP3 player)

LFSB 220900Z 31003KT 0550 0400N R15/0500N R33/0500N FZFG VV/// M03/M03 Q1035 BECMG 3000 BR OVC003

LFSB Flight Activity (Flightaware)

Listeners: 0 out of 899 total

Mulhouse Tower: 118.300

LGAV App/Radar (Archives)
Athens, Greece

Feed Status: UP
Listen in your browser - HTML5 player(in browser, HTML5)
Click here to listen with your own player(launches your MP3 player)

LGAV 220920Z 02012KT CAVOK 11/M00 Q1032 NOSIG

LGAV Flight Activity (Flightaware)

Listeners: 0 out of 899 total

Athens Approach: 132.975
Athens Information: 130.925
Athens Information: 119.750
Athens Radar (Kerkira-Kefalinia-Paleohora Sectors FL460-FL345): 134.325
Athens Radar (Milos/Sitia Sectors FL460-FL345): 125.200
Athens Radar (Paleohora /Kerkira Sectors FL460-FL345): 133.725
Athens Radar (Paleohora Sector FL460-FL345): 124.625
Athens Radar (Rhodos/Kavos Sector FL460-FL345): 133.325
Emergency/Guard: 121.500
Makedonia Radar (Thessaloniki/Skopelos/Limnos/Kavala Sectors FL460-FL345): 133.575

LGAV Clearance Delivery
Athens, Greece

Feed Status: DOWN
Offline since: 2020-01-21 20:14:05 UTC

LGAV 220920Z 02012KT CAVOK 11/M00 Q1032 NOSIG

Athens Clearance Delivery: 118.675

LGAV Director
Athens, Greece

Feed Status: DOWN
Offline since: 2020-01-21 20:14:05 UTC

LGAV 220920Z 02012KT CAVOK 11/M00 Q1032 NOSIG

Athens Director: 121.400

LGAV Ground (North)
Athens, Greece

Feed Status: DOWN
Offline since: 2020-01-21 20:14:05 UTC

LGAV 220920Z 02012KT CAVOK 11/M00 Q1032 NOSIG

Athens Ground (North): 121.750

LGAV Ground (South)
Athens, Greece

Feed Status: DOWN
Offline since: 2020-01-21 20:14:22 UTC

LGAV 220920Z 02012KT CAVOK 11/M00 Q1032 NOSIG

Athens Ground (South): 121.950

LGAV Tower (Rwy 3L/21R)
Athens, Greece

Feed Status: DOWN
Offline since: 2020-01-21 20:14:05 UTC

LGAV 220920Z 02012KT CAVOK 11/M00 Q1032 NOSIG

Athens Tower (Rwy 03L/21R): 136.275

LGAV Tower (Rwy 3R/21L)
Athens, Greece

Feed Status: DOWN
Offline since: 2020-01-21 20:14:05 UTC

LGAV 220920Z 02012KT CAVOK 11/M00 Q1032 NOSIG

Athens Tower (Rwy 03R/21L): 118.625

LGIR Approach
Iraklion, Greece

Feed Status: DOWN
Offline since: 2020-01-21 07:05:06 UTC

LGIR 220920Z 34016KT 9999 FEW020 SCT025 13/05 Q1030 NOSIG

Iraklion Radar: 123.975

LGIR Ground
Iraklion, Greece

Feed Status: DOWN
Offline since: 2020-01-21 07:05:06 UTC

LGIR 220920Z 34016KT 9999 FEW020 SCT025 13/05 Q1030 NOSIG

Heraklion Ground: 121.700

LGIR Tower
Iraklion, Greece

Feed Status: DOWN
Offline since: 2020-01-21 07:05:06 UTC

LGIR 220920Z 34016KT 9999 FEW020 SCT025 13/05 Q1030 NOSIG

Heraklion Tower: 120.850

LHBP Approach (Archives)
Budapest, Hungary

Feed Status: UP
Listen in your browser - HTML5 player(in browser, HTML5)
Click here to listen with your own player(launches your MP3 player)

LHBP 220900Z 24005KT 200V260 0700 R31L/1400U R31R/1600D FZFG OVC002 M03/M03 Q1033 NOSIG

LHBP Flight Activity (Flightaware)

Listeners: 0 out of 899 total

Budapest Approach: 122.975
Budapest Approach (Upper): 123.860

LHBP Approach (Director) (Archives)
Budapest, Hungary

Feed Status: UP
Listen in your browser - HTML5 player(in browser, HTML5)
Click here to listen with your own player(launches your MP3 player)

LHBP 220900Z 24005KT 200V260 0700 R31L/1400U R31R/1600D FZFG OVC002 M03/M03 Q1033 NOSIG

LHBP Flight Activity (Flightaware)

Listeners: 0 out of 899 total

Budapest Director: 119.510

LHBP ATIS (Archives)
Budapest, Hungary

Feed Status: UP
Listen in your browser - HTML5 player(in browser, HTML5)
Click here to listen with your own player(launches your MP3 player)

LHBP 220900Z 24005KT 200V260 0700 R31L/1400U R31R/1600D FZFG OVC002 M03/M03 Q1033 NOSIG

LHBP Flight Activity (Flightaware)

Listeners: 0 out of 899 total

Budapest ATIS: 132.380

LHBP Clearance Delivery (Archives)
Budapest, Hungary

Feed Status: UP
Listen in your browser - HTML5 player(in browser, HTML5)
Click here to listen with your own player(launches your MP3 player)

LHBP 220900Z 24005KT 200V260 0700 R31L/1400U R31R/1600D FZFG OVC002 M03/M03 Q1033 NOSIG

LHBP Flight Activity (Flightaware)

Listeners: 0 out of 899 total

Budapest Clearance Delivery: 134.540

LHBP Ground (Archives)
Budapest, Hungary

Feed Status: UP
Listen in your browser - HTML5 player(in browser, HTML5)
Click here to listen with your own player(launches your MP3 player)

LHBP 220900Z 24005KT 200V260 0700 R31L/1400U R31R/1600D FZFG OVC002 M03/M03 Q1033 NOSIG

LHBP Flight Activity (Flightaware)

Listeners: 0 out of 899 total

Budapest Ground: 121.910

LHBP Info (Archives)
Budapest, Hungary

Feed Status: UP
Listen in your browser - HTML5 player(in browser, HTML5)
Click here to listen with your own player(launches your MP3 player)

LHBP 220900Z 24005KT 200V260 0700 R31L/1400U R31R/1600D FZFG OVC002 M03/M03 Q1033 NOSIG

LHBP Flight Activity (Flightaware)

Listeners: 0 out of 899 total

Budapest Info: 119.350

LHBP Tower (Archives)
Budapest, Hungary

Feed Status: UP
Listen in your browser - HTML5 player(in browser, HTML5)
Click here to listen with your own player(launches your MP3 player)

LHBP 220900Z 24005KT 200V260 0700 R31L/1400U R31R/1600D FZFG OVC002 M03/M03 Q1033 NOSIG

LHBP Flight Activity (Flightaware)

Listeners: 0 out of 899 total

Budapest Tower: 118.100

LHBP Twr/Info (Archives)
Budapest, Hungary

Feed Status: UP
Listen in your browser - HTML5 player(in browser, HTML5)
Click here to listen with your own player(launches your MP3 player)

LHBP 220900Z 24005KT 200V260 0700 R31L/1400U R31R/1600D FZFG OVC002 M03/M03 Q1033 NOSIG

LHBP Flight Activity (Flightaware)

Listeners: 1 out of 899 total

Budapest Info: 119.350
Budapest Tower: 118.100

LHCC Control (East/West) (Archives)
Budapest, Hungary

Feed Status: UP
Listen in your browser - HTML5 player(in browser, HTML5)
Click here to listen with your own player(launches your MP3 player)

LHBP 220900Z 24005KT 200V260 0700 R31L/1400U R31R/1600D FZFG OVC002 M03/M03 Q1033 NOSIG

LHBP Flight Activity (Flightaware)

Listeners: 0 out of 899 total

Budapest Control (East Low Sector): 120.375
Budapest Control (West Low Sector): 133.200

LHDC Info/Tower (Archives)
Debrecen, Hungary

Feed Status: UP
Listen in your browser - HTML5 player(in browser, HTML5)
Click here to listen with your own player(launches your MP3 player)

LHDC 220845Z AUTO 21009KT 5000 BR OVC017 M00/M02 Q1033 NOSIG

LHDC Flight Activity (Flightaware)

Listeners: 2 out of 899 total

Debrecen Info/Tower: 125.900

LHEM CTAF (Archives)
Esztergom, Hungary

Feed Status: UP
Listen in your browser - HTML5 player(in browser, HTML5)
Click here to listen with your own player(launches your MP3 player)

LHEM Flight Activity (Flightaware)

Listeners: 0 out of 899 total

Esztergom CTAF: 126.850

LHPR Info/AFIS (Archives)
Gyor, Hungary

Feed Status: UP
Listen in your browser - HTML5 player(in browser, HTML5)
Click here to listen with your own player(launches your MP3 player)

LHPR 220845Z AUTO 16002KT 1500 BR OVC002 M02/M02 Q1033

LHPR Flight Activity (Flightaware)

Listeners: 0 out of 899 total

Gyor AFIS: 129.910

LHUD CTAF/Info/AFIS (Archives)
Szeged, Hungary

Feed Status: UP
Listen in your browser - HTML5 player(in browser, HTML5)
Click here to listen with your own player(launches your MP3 player)

LHUD 032345Z 35004KT CAVOK 18/13 Q1019

LHUD Flight Activity (Flightaware)

Listeners: 3 out of 899 total

Szeged CTAF/Info/AFIS: 122.810

LJLJ Info (Archives)
Ljubljana, Slovenia

Feed Status: UP
Listen in your browser - HTML5 player(in browser, HTML5)
Click here to listen with your own player(launches your MP3 player)

LJLJ 220900Z VRB02KT CAVOK M01/M03 Q1032 NOSIG

LJLJ Flight Activity (Flightaware)

Listeners: 2 out of 899 total

Ljubljana Info: 118.475

LJLJ Radar (Archives)
Ljubljana, Slovenia

Feed Status: UP
Listen in your browser - HTML5 player(in browser, HTML5)
Click here to listen with your own player(launches your MP3 player)

LJLJ 220900Z VRB02KT CAVOK M01/M03 Q1032 NOSIG

LJLJ Flight Activity (Flightaware)

Listeners: 1 out of 899 total

Ljubljana Approach: 132.475

LJLJ Tower (Archives)
Ljubljana, Slovenia

Feed Status: UP
Listen in your browser - HTML5 player(in browser, HTML5)
Click here to listen with your own player(launches your MP3 player)

LJLJ 220900Z VRB02KT CAVOK M01/M03 Q1032 NOSIG

LJLJ Flight Activity (Flightaware)

Listeners: 2 out of 899 total

Ljubljana Tower: 118.000

LJMB Info/FSS/FIC (Archives)
Maribor, Slovenia

Feed Status: UP
Listen in your browser - HTML5 player(in browser, HTML5)
Click here to listen with your own player(launches your MP3 player)

LJMB 220900Z 36008KT 5000 BR NSC M02/M04 Q1032

LJMB Flight Activity (Flightaware)

Listeners: 0 out of 899 total

Ljubljana Information FSS/FIC (Maribor Area): 118.475

LJMB Tower/Approach (Archives)
Maribor, Slovenia

Feed Status: UP
Listen in your browser - HTML5 player(in browser, HTML5)
Click here to listen with your own player(launches your MP3 player)

LJMB 220900Z 36008KT 5000 BR NSC M02/M04 Q1032

LJMB Flight Activity (Flightaware)

Listeners: 0 out of 899 total

Maribor Tower/Approach: 119.200

LJPZ Tower
Secovlje, Slovenia

Feed Status: DOWN
Offline since: 2020-01-21 20:49:39 UTC

LJPZ 220900Z 12007KT CAVOK 02/M01 Q1035

Portoroz Tower: 124.875

LKPM Tower (Archives)
Pribram, Czech Republic

Feed Status: UP
Listen in your browser - HTML5 player(in browser, HTML5)
Click here to listen with your own player(launches your MP3 player)

LKPM Flight Activity (Flightaware)

Listeners: 0 out of 899 total

Pribram Tower: 118.750

LKAA FIR (High) (Archives)
Prague, Czech Republic

Feed Status: UP
Listen in your browser - HTML5 player(in browser, HTML5)
Click here to listen with your own player(launches your MP3 player)

LKAA Flight Activity (Flightaware)

Listeners: 1 out of 899 total

LKAA FIR Sector West High / Praha Radar : 132.065

LKAA FIR (Low) (Archives)
Prague, Czech Republic

Feed Status: UP
Listen in your browser - HTML5 player(in browser, HTML5)
Click here to listen with your own player(launches your MP3 player)

LKAA Flight Activity (Flightaware)

Listeners: 0 out of 899 total

LKAA FIR Sector West Low / Praha Radar: 120.275

LKPR Approach (Archives)
Prague, Czech Republic

Feed Status: UP
Listen in your browser - HTML5 player(in browser, HTML5)
Click here to listen with your own player(launches your MP3 player)

LKPR 220900Z 27005KT 5000 BR BKN005 M04/M05 Q1032 BECMG BKN007

LKPR Flight Activity (Flightaware)

Listeners: 1 out of 899 total

Prague Approach/Radar: 127.580

LKPR Clearance Del (Archives)
Prague, Czech Republic

Feed Status: UP
Listen in your browser - HTML5 player(in browser, HTML5)
Click here to listen with your own player(launches your MP3 player)

LKPR 220900Z 27005KT 5000 BR BKN005 M04/M05 Q1032 BECMG BKN007

LKPR Flight Activity (Flightaware)

Listeners: 0 out of 899 total


LKPR Director/Ruzyne Radar (Archives)
Prague, Czech Republic

Feed Status: UP
Listen in your browser - HTML5 player(in browser, HTML5)
Click here to listen with your own player(launches your MP3 player)

LKPR 220900Z 27005KT 5000 BR BKN005 M04/M05 Q1032 BECMG BKN007

LKPR Flight Activity (Flightaware)

Listeners: 2 out of 899 total

Prague Director/Ruzyne Radar: 119.010

LKPR Ground (Archives)
Prague, Czech Republic

Feed Status: UP
Listen in your browser - HTML5 player(in browser, HTML5)
Click here to listen with your own player(launches your MP3 player)

LKPR 220900Z 27005KT 5000 BR BKN005 M04/M05 Q1032 BECMG BKN007

LKPR Flight Activity (Flightaware)

Listeners: 0 out of 899 total

Prague/Ruzyne Clearance Delivery: 120.060
Prague/Ruzyne Ground: 121.910

LKPR Tower (Archives)
Prague, Czech Republic

Feed Status: UP
Listen in your browser - HTML5 player(in browser, HTML5)
Click here to listen with your own player(launches your MP3 player)

LKPR 220900Z 27005KT 5000 BR BKN005 M04/M05 Q1032 BECMG BKN007

LKPR Flight Activity (Flightaware)

Listeners: 3 out of 899 total

Prague/Ruzyne Tower: 134.560

LKTB Gnd/Twr/Radar (Archives)
Brno, Czech Republic

Feed Status: UP
Listen in your browser - HTML5 player(in browser, HTML5)
Click here to listen with your own player(launches your MP3 player)

LKTB 220900Z 24010KT 8000 OVC007 M04/M05 Q1032 R27/21//95 NOSIG

LKTB Flight Activity (Flightaware)

Listeners: 1 out of 899 total

Brno Ground: 125.430
Brno Handling: 131.800
Brno Radar (Approach): 127.350
Brno Tower: 119.605

Santa Maria Control (Oceanic) (Archives)
Santa Maria Island (Azores), Portugal

Feed Status: UP
Listen in your browser - HTML5 player(in browser, HTML5)
Click here to listen with your own player(launches your MP3 player)

LPAZ 220900Z 05011KT 9999 FEW024 BKN050 14/09 Q1027

LPAZ Flight Activity (Flightaware)

Listeners: 0 out of 899 total

Emergency/Guard: 121.500
LPHR (Horta) Approach: 120.600
LPLA (Terceira) Approach: 135.000
LPLA (Terceira) Tower: 122.100
LPPD (Ponta Delgada) Approach: 119.400
Ponta Delgada Ground: 131.600
Santa Maria Approach: 119.100
Santa Maria Control: 132.150

LPLA Gnd/Twr/App
Lajes, Portugal

Feed Status: DOWN
Offline since: 2020-01-05 22:57:06 UTC

LPLA 220900Z /////KT 9999 FEW020 BKN030 15/09 Q1029

Lajes Approach: 135.000
Lajes Ground: 121.900
Lajes Tower: 122.100

LPMA Approach (Archives)
Madeira, Portugal

Feed Status: UP
Listen in your browser - HTML5 player(in browser, HTML5)
Click here to listen with your own player(launches your MP3 player)

LPMA 220900Z VRB05KT 9999 BKN015 FEW016TCU 13/10 Q1018 RESHRA

LPMA Flight Activity (Flightaware)

Listeners: 2 out of 899 total

Madeira Approach: 119.605

LPPR Approach #1 (Archives)
Porto, Portugal

Feed Status: UP
Listen in your browser - HTML5 player(in browser, HTML5)
Click here to listen with your own player(launches your MP3 player)

LPPR 220900Z 03008KT 360V070 CAVOK 12/04 Q1018

LPPR Flight Activity (Flightaware)

Listeners: 1 out of 899 total

Porto Approach: 121.105

LPPT Approach (Archives)
Lisbon, Portugal

Feed Status: UP
Listen in your browser - HTML5 player(in browser, HTML5)
Click here to listen with your own player(launches your MP3 player)

LPPT 220900Z 04009G20KT 350V070 CAVOK 09/04 Q1016

LPPT Flight Activity (Flightaware)

Listeners: 1 out of 899 total

Lisbon Approach: 119.100

LRCL Twr/App #1 (Archives)
Cluj-Napoca, Romania

Feed Status: UP
Listen in your browser - HTML5 player(in browser, HTML5)
Click here to listen with your own player(launches your MP3 player)

LRCL 220900Z 26005KT 9999 OVC023 M01/M05 Q1032 R07/15//95

LRCL Flight Activity (Flightaware)

Listeners: 1 out of 899 total

Cluj Approach: 126.425
Cluj Tower: 134.400

LRCL Twr/App/ACC
Cluj-Napoca, Romania

Feed Status: DOWN
Offline since: 2020-01-22 08:16:40 UTC

LRCL 220900Z 26005KT 9999 OVC023 M01/M05 Q1032 R07/15//95

Cluj Approach: 126.425
Cluj Tower: 134.400
Napoc ACC: 127.075

LROP Ground (Archives)
Bucharest, Romania

Feed Status: UP
Listen in your browser - HTML5 player(in browser, HTML5)
Click here to listen with your own player(launches your MP3 player)

LROP 220900Z 25011KT 9000 NSC 03/M02 Q1028 NOSIG

LROP Flight Activity (Flightaware)

Listeners: 1 out of 899 total

Bucharest Ground: 121.855

LROP Radar (Archives)
Bucharest, Romania

Feed Status: UP
Listen in your browser - HTML5 player(in browser, HTML5)
Click here to listen with your own player(launches your MP3 player)

LROP 220900Z 25011KT 9000 NSC 03/M02 Q1028 NOSIG

LROP Flight Activity (Flightaware)

Listeners: 0 out of 899 total

Bucharest Radar (Arges Mid sector): 121.175
Bucharest Radar (Arges Top Sector): 123.265
Bucharest Radar (Lomos Top Sector): 132.865

LROP Tower/Approach (Archives)
Bucharest, Romania

Feed Status: UP
Listen in your browser - HTML5 player(in browser, HTML5)
Click here to listen with your own player(launches your MP3 player)

LROP 220900Z 25011KT 9000 NSC 03/M02 Q1028 NOSIG

LROP Flight Activity (Flightaware)

Listeners: 0 out of 899 total

Bucharest Approach: 119.415
Bucharest Director: 127.155
Bucharest Tower: 118.805

LROP Twr/App/Radar (Archives)
Bucharest, Romania

Feed Status: UP
Listen in your browser - HTML5 player(in browser, HTML5)
Click here to listen with your own player(launches your MP3 player)

LROP 220900Z 25011KT 9000 NSC 03/M02 Q1028 NOSIG

LROP Flight Activity (Flightaware)

Listeners: 10 out of 899 total

Bucharest Approach: 119.415
Bucharest Director: 127.155
Bucharest Radar (Arges Mid sector): 121.175
Bucharest Radar (Arges Top Sector): 123.265
Bucharest Radar (Lomos Top Sector): 132.865
Bucharest Tower: 118.805

LRSB Tower/CTAF (Archives)
Sibiu, Romania

Feed Status: UP
Listen in your browser - HTML5 player(in browser, HTML5)
Click here to listen with your own player(launches your MP3 player)

LRSB 220900Z 23003KT 6000 NSC M04/M06 Q1032 R27/19//95

LRSB Flight Activity (Flightaware)

Listeners: 2 out of 899 total

Sibiu Tower: 121.305

LRTR Tower (Archives)
Timisoara, Romania

Feed Status: UP
Listen in your browser - HTML5 player(in browser, HTML5)
Click here to listen with your own player(launches your MP3 player)

LRTR 220900Z 13003KT 4000 BR FEW005 OVC016 M00/M00 Q1034

LRTR Flight Activity (Flightaware)

Listeners: 0 out of 899 total

ARAD Approach: 127.250
Timisoara Tower: 120.100

LSGG Tower (Archives)
Geneva, Switzerland

Feed Status: UP
Listen in your browser - HTML5 player(in browser, HTML5)
Click here to listen with your own player(launches your MP3 player)

LSGG 220920Z 31001KT CAVOK M00/M02 Q1033 NOSIG

LSGG Flight Activity (Flightaware)

Listeners: 1 out of 899 total

Geneva Tower: 118.700

LSGS Gnd/Twr/App (Archives)
Sion, Switzerland

Feed Status: UP
Listen in your browser - HTML5 player(in browser, HTML5)
Click here to listen with your own player(launches your MP3 player)

LSGS 220920Z 08006KT CAVOK M01/M04 Q1033

LSGS Flight Activity (Flightaware)

Listeners: 2 out of 899 total

Alpine Jet Service Handling: 131.675
Sion Airport Handling: 131.475
Sion Approach (IFR ARR MIL OFF): 126.825
Sion Ground: 121.700
Sion Tower: 118.275

LSMD Tower (Archives)
Dubendorf, Switzerland

Feed Status: UP
Listen in your browser - HTML5 player(in browser, HTML5)
Click here to listen with your own player(launches your MP3 player)

LSZH 220920Z VRB02KT 2600 BR SCT003 BKN004 M02/M04 Q1035 BECMG BKN006

LSZH Flight Activity (Flightaware)

Listeners: 1 out of 899 total

Dubendorf Tower: 118.975

LSMV Heli Tower (Archives)
Davos, Switzerland

Feed Status: UP
Listen in your browser - HTML5 player(in browser, HTML5)
Click here to listen with your own player(launches your MP3 player)

LSMV Flight Activity (Flightaware)

Listeners: 0 out of 899 total

LSMV Tower: 130.700

LSPM AFIS (Archives)
Ambri, Switzerland

Feed Status: UP
Listen in your browser - HTML5 player(in browser, HTML5)
Click here to listen with your own player(launches your MP3 player)

LSPM Flight Activity (Flightaware)

Listeners: 0 out of 899 total

Ambri AFIS: 118.525

LSZA Tower (Archives)
Agno, Switzerland

Feed Status: UP
Listen in your browser - HTML5 player(in browser, HTML5)
Click here to listen with your own player(launches your MP3 player)

LSZA 220920Z 01002KT CAVOK 00/M04 Q1036 NOSIG

LSZA Flight Activity (Flightaware)

Listeners: 1 out of 899 total

Lugano Tower: 120.250

LSZB Twr/App/Dep (Archives)
Bern, Switzerland

Feed Status: UP
Listen in your browser - HTML5 player(in browser, HTML5)
Click here to listen with your own player(launches your MP3 player)

LSZB 220920Z VRB02KT 8000 NSC M02/M02 Q1033 NOSIG

LSZB Flight Activity (Flightaware)

Listeners: 1 out of 899 total

LSZB Arrival/Departure: 127.325
LSZB Tower: 121.025

LSZG Tower (Archives)
Grenchen, Switzerland

Feed Status: UP
Listen in your browser - HTML5 player(in browser, HTML5)
Click here to listen with your own player(launches your MP3 player)

LSZG 220920Z 08001KT 3000 BR NSC M02/M03 Q1034 NOSIG

LSZG Flight Activity (Flightaware)

Listeners: 2 out of 899 total

Grenchen Tower: 120.100

LSZH Approach (East) (Archives)
Zurich, Switzerland

Feed Status: UP
Listen in your browser - HTML5 player(in browser, HTML5)
Click here to listen with your own player(launches your MP3 player)

LSZH 220920Z VRB02KT 2600 BR SCT003 BKN004 M02/M04 Q1035 BECMG BKN006

LSZH Flight Activity (Flightaware)

Listeners: 4 out of 899 total

Zurich Approach (East): 135.225

LSZH Approach (West) (Archives)
Zurich, Switzerland

Feed Status: UP
Listen in your browser - HTML5 player(in browser, HTML5)
Click here to listen with your own player(launches your MP3 player)

LSZH 220920Z VRB02KT 2600 BR SCT003 BKN004 M02/M04 Q1035 BECMG BKN006

LSZH Flight Activity (Flightaware)

Listeners: 1 out of 899 total

Zurich Approach (West): 118.000

LSZH Apron (South) (Archives)
Zurich, Switzerland

Feed Status: UP
Listen in your browser - HTML5 player(in browser, HTML5)
Click here to listen with your own player(launches your MP3 player)

LSZH 220920Z VRB02KT 2600 BR SCT003 BKN004 M02/M04 Q1035 BECMG BKN006

LSZH Flight Activity (Flightaware)

Listeners: 3 out of 899 total

Zurich Apron (South): 121.755

LSZH Apron (West) (Archives)
Zurich, Switzerland

Feed Status: UP
Listen in your browser - HTML5 player(in browser, HTML5)
Click here to listen with your own player(launches your MP3 player)

LSZH 220920Z VRB02KT 2600 BR SCT003 BKN004 M02/M04 Q1035 BECMG BKN006

LSZH Flight Activity (Flightaware)

Listeners: 2 out of 899 total

Zurich Apron (West): 121.855

LSZH Clearance Delivery (Archives)
Zurich, Switzerland

Feed Status: UP
Listen in your browser - HTML5 player(in browser, HTML5)
Click here to listen with your own player(launches your MP3 player)

LSZH 220920Z VRB02KT 2600 BR SCT003 BKN004 M02/M04 Q1035 BECMG BKN006

LSZH Flight Activity (Flightaware)

Listeners: 2 out of 899 total

Zurich Clearance Delivery: 121.925

LSZH Ground (Archives)
Zurich, Switzerland

Feed Status: UP
Listen in your browser - HTML5 player(in browser, HTML5)
Click here to listen with your own player(launches your MP3 player)

LSZH 220920Z VRB02KT 2600 BR SCT003 BKN004 M02/M04 Q1035 BECMG BKN006

LSZH Flight Activity (Flightaware)

Listeners: 1 out of 899 total

Zurich Ground: 121.905

LSZH Radar (Archives)
Zurich, Switzerland

Feed Status: UP
Listen in your browser - HTML5 player(in browser, HTML5)
Click here to listen with your own player(launches your MP3 player)

LSZH 220920Z VRB02KT 2600 BR SCT003 BKN004 M02/M04 Q1035 BECMG BKN006

LSZH Flight Activity (Flightaware)

Listeners: 2 out of 899 total

Zurich Radar ACC (-FL240 East): 133.900
Zurich Radar ACC (-FL240 North): 136.150
Zurich Radar ACC (-FL240 South): 128.050
Zurich Radar ACC (-FL240 West): 135.675
Zurich Radar ACC (FL250-280): 133.050
Zurich Radar ACC (FL290-320): 132.815
Zurich Radar ACC (FL330-350): 134.600
Zurich Radar ACC (FL360+): 133.400

LSZH Radar 132.815 (Archives)
Zurich, Switzerland

Feed Status: UP
Listen in your browser - HTML5 player(in browser, HTML5)
Click here to listen with your own player(launches your MP3 player)

LSZH 220920Z VRB02KT 2600 BR SCT003 BKN004 M02/M04 Q1035 BECMG BKN006

LSZH Flight Activity (Flightaware)

Listeners: 0 out of 899 total

Zurich Radar: 132.815

LSZH Radar 133.050 (Archives)
Zurich, Switzerland

Feed Status: UP
Listen in your browser - HTML5 player(in browser, HTML5)
Click here to listen with your own player(launches your MP3 player)

LSZH 220920Z VRB02KT 2600 BR SCT003 BKN004 M02/M04 Q1035 BECMG BKN006

LSZH Flight Activity (Flightaware)

Listeners: 0 out of 899 total

Zurich Radar: 133.050

LSZH Radar 133.405 (Archives)
Zurich, Switzerland

Feed Status: UP
Listen in your browser - HTML5 player(in browser, HTML5)
Click here to listen with your own player(launches your MP3 player)

LSZH 220920Z VRB02KT 2600 BR SCT003 BKN004 M02/M04 Q1035 BECMG BKN006

LSZH Flight Activity (Flightaware)

Listeners: 0 out of 899 total

Zurich Radar: 133.405

LSZH Radar 133.690 (Archives)
Zurich, Switzerland

Feed Status: UP
Listen in your browser - HTML5 player(in browser, HTML5)
Click here to listen with your own player(launches your MP3 player)

LSZH 220920Z VRB02KT 2600 BR SCT003 BKN004 M02/M04 Q1035 BECMG BKN006

LSZH Flight Activity (Flightaware)

Listeners: 0 out of 899 total

Zurich Radar: 133.690

LSZH Radar 133.905 (Archives)
Zurich, Switzerland

Feed Status: UP
Listen in your browser - HTML5 player(in browser, HTML5)
Click here to listen with your own player(launches your MP3 player)

LSZH 220920Z VRB02KT 2600 BR SCT003 BKN004 M02/M04 Q1035 BECMG BKN006

LSZH Flight Activity (Flightaware)

Listeners: 0 out of 899 total

Zurich Radar (Below FL240 East): 133.905

LSZH Radar 134.605 (Archives)
Zurich, Switzerland

Feed Status: UP
Listen in your browser - HTML5 player(in browser, HTML5)
Click here to listen with your own player(launches your MP3 player)

LSZH 220920Z VRB02KT 2600 BR SCT003 BKN004 M02/M04 Q1035 BECMG BKN006

LSZH Flight Activity (Flightaware)

Listeners: 0 out of 899 total

Zurich Radar (FL330-350): 134.605

LSZH Radar 135.680 (Archives)
Zurich, Switzerland

Feed Status: UP
Listen in your browser - HTML5 player(in browser, HTML5)
Click here to listen with your own player(launches your MP3 player)

LSZH 220920Z VRB02KT 2600 BR SCT003 BKN004 M02/M04 Q1035 BECMG BKN006

LSZH Flight Activity (Flightaware)

Listeners: 1 out of 899 total


LSZH Radar 136.155 (Archives)
Zurich, Switzerland

Feed Status: UP
Listen in your browser - HTML5 player(in browser, HTML5)
Click here to listen with your own player(launches your MP3 player)

LSZH 220920Z VRB02KT 2600 BR SCT003 BKN004 M02/M04 Q1035 BECMG BKN006

LSZH Flight Activity (Flightaware)

Listeners: 1 out of 899 total

Zurich Radar (Below FL240 North): 136.155

LSZH Tower (Archives)
Zurich, Switzerland

Feed Status: UP
Listen in your browser - HTML5 player(in browser, HTML5)
Click here to listen with your own player(launches your MP3 player)

LSZH 220920Z VRB02KT 2600 BR SCT003 BKN004 M02/M04 Q1035 BECMG BKN006

LSZH Flight Activity (Flightaware)

Listeners: 47 out of 899 total

Zurich Tower: 118.100

LSZH Tower #3
Zurich, Switzerland

Feed Status: DOWN
Offline since: 2019-09-02 03:53:05 UTC

LSZH 220920Z VRB02KT 2600 BR SCT003 BKN004 M02/M04 Q1035 BECMG BKN006

Zurich Tower: 118.100

LSZH Tower (14/32) (Archives)
Zurich, Switzerland

Feed Status: UP
Listen in your browser - HTML5 player(in browser, HTML5)
Click here to listen with your own player(launches your MP3 player)

LSZH 220920Z VRB02KT 2600 BR SCT003 BKN004 M02/M04 Q1035 BECMG BKN006

LSZH Flight Activity (Flightaware)

Listeners: 8 out of 899 total

Zurich Tower (Rwy 14 App/32 Takeoff): 120.225

LSZH Twr/Gnd (backup) (Archives)
Zurich, Switzerland

Feed Status: UP
Listen in your browser - HTML5 player(in browser, HTML5)
Click here to listen with your own player(launches your MP3 player)

LSZH 220920Z VRB02KT 2600 BR SCT003 BKN004 M02/M04 Q1035 BECMG BKN006

LSZH Flight Activity (Flightaware)

Listeners: 0 out of 899 total

Zurich Twr/Gnd (backup): 119.700

LSZL Tower (Archives)
Locarno, Switzerland

Feed Status: UP
Listen in your browser - HTML5 player(in browser, HTML5)
Click here to listen with your own player(launches your MP3 player)

LSZL 220920Z 00000KT CAVOK 01/M03 Q1036 RMK BLU

LSZL Flight Activity (Flightaware)

Listeners: 1 out of 899 total


LSZN CTAF (Archives)
Zurich, Switzerland

Feed Status: UP
Listen in your browser - HTML5 player(in browser, HTML5)
Click here to listen with your own player(launches your MP3 player)

LSZN Flight Activity (Flightaware)

Listeners: 0 out of 899 total

Hausen am Albis CTAF: 130.775

LSZR Tower (Archives)
Altenrhein, Switzerland

Feed Status: UP
Listen in your browser - HTML5 player(in browser, HTML5)
Click here to listen with your own player(launches your MP3 player)

LSZR 220920Z VRB02KT 3000 BR SCT003 OVC005 M01/M01 Q1035 NOSIG RMK E

LSZR Flight Activity (Flightaware)

Listeners: 0 out of 899 total

Altenrhein Tower: 135.425

LSZW CTAF (Archives)
Thun, Switzerland

Feed Status: UP
Listen in your browser - HTML5 player(in browser, HTML5)
Click here to listen with your own player(launches your MP3 player)

LSZW Flight Activity (Flightaware)

Listeners: 0 out of 899 total

Thun CTAF/Info: 123.250

LTBA Gnd/Twr/App (Archives)
Istanbul, Turkey

Feed Status: UP
Listen in your browser - HTML5 player(in browser, HTML5)
Click here to listen with your own player(launches your MP3 player)

LTBA 220920Z 23008KT CAVOK 06/M00 Q1032 NOSIG

LTBA Flight Activity (Flightaware)

Listeners: 3 out of 899 total

Istanbul Approach: 126.425
Istanbul Ground: 121.800
Istanbul Tower: 118.100

LTFJ Del/Gnd/Twr (Archives)
Istanbul, Turkey

Feed Status: UP
Listen in your browser - HTML5 player(in browser, HTML5)
Click here to listen with your own player(launches your MP3 player)

LTFJ 220920Z 20007KT 170V260 CAVOK 06/00 Q1031 NOSIG

LTFJ Flight Activity (Flightaware)

Listeners: 3 out of 899 total

Gokcen Clearance Delivery: 122.625
Gokcen Ground: 121.750
Gokcen Tower: 118.800

LTFJ Pegasus Dispatch
Istanbul, Turkey

Feed Status: DOWN
Offline since: 2019-11-04 19:23:39 UTC

LTFJ 220920Z 20007KT 170V260 CAVOK 06/00 Q1031 NOSIG

Pegasus Dispatch: 131.750

LUKK ACC #1 (Archives)
Chisinau, Moldova

Feed Status: UP
Listen in your browser - HTML5 player(in browser, HTML5)
Click here to listen with your own player(launches your MP3 player)

LUKK 220930Z 30014KT CAVOK 08/M04 Q1020 R26/CLRD// TEMPO 29016G26KT

LUKK Flight Activity (Flightaware)

Listeners: 0 out of 899 total

Chisinau ACC: 130.975

LUKK ACC #2 (Archives)
Chisinau, Moldova

Feed Status: UP
Listen in your browser - HTML5 player(in browser, HTML5)
Click here to listen with your own player(launches your MP3 player)

LUKK 220930Z 30014KT CAVOK 08/M04 Q1020 R26/CLRD// TEMPO 29016G26KT

LUKK Flight Activity (Flightaware)

Listeners: 0 out of 899 total

Chisinau ACC: 128.975

LUKK Air to Air (Archives)
Chisinau, Moldova

Feed Status: UP
Listen in your browser - HTML5 player(in browser, HTML5)
Click here to listen with your own player(launches your MP3 player)

LUKK 220930Z 30014KT CAVOK 08/M04 Q1020 R26/CLRD// TEMPO 29016G26KT

LUKK Flight Activity (Flightaware)

Listeners: 0 out of 899 total

Chisinau Air to Air: 123.450

LUKK Alternate (Archives)
Chisinau, Moldova

Feed Status: UP
Listen in your browser - HTML5 player(in browser, HTML5)
Click here to listen with your own player(launches your MP3 player)

LUKK 220930Z 30014KT CAVOK 08/M04 Q1020 R26/CLRD// TEMPO 29016G26KT

LUKK Flight Activity (Flightaware)

Listeners: 0 out of 899 total

Chisinau Alternate: 129.725

LUKK Approach #1 (Archives)
Chisinau, Moldova

Feed Status: UP
Listen in your browser - HTML5 player(in browser, HTML5)
Click here to listen with your own player(launches your MP3 player)

LUKK 220930Z 30014KT CAVOK 08/M04 Q1020 R26/CLRD// TEMPO 29016G26KT

LUKK Flight Activity (Flightaware)

Listeners: 0 out of 899 total

Chisinau Approach: 133.300

LUKK Approach #2 (Archives)
Chisinau, Moldova

Feed Status: UP
Listen in your browser - HTML5 player(in browser, HTML5)
Click here to listen with your own player(launches your MP3 player)

LUKK 220930Z 30014KT CAVOK 08/M04 Q1020 R26/CLRD// TEMPO 29016G26KT

LUKK Flight Activity (Flightaware)

Listeners: 0 out of 899 total

Chisinau Approach: 133.300

LUKK Emergency/Guard (Archives)
Chisinau, Moldova

Feed Status: UP
Listen in your browser - HTML5 player(in browser, HTML5)
Click here to listen with your own player(launches your MP3 player)

LUKK 220930Z 30014KT CAVOK 08/M04 Q1020 R26/CLRD// TEMPO 29016G26KT

LUKK Flight Activity (Flightaware)

Listeners: 0 out of 899 total

Emergency/Guard: 121.500

LUKK Ground #1 (Archives)
Chisinau, Moldova

Feed Status: UP
Listen in your browser - HTML5 player(in browser, HTML5)
Click here to listen with your own player(launches your MP3 player)

LUKK 220930Z 30014KT CAVOK 08/M04 Q1020 R26/CLRD// TEMPO 29016G26KT

LUKK Flight Activity (Flightaware)

Listeners: 0 out of 899 total

Chisinau Ground: 121.800

LUKK Ground #2 (Archives)
Chisinau, Moldova

Feed Status: UP
Listen in your browser - HTML5 player(in browser, HTML5)
Click here to listen with your own player(launches your MP3 player)

LUKK 220930Z 30014KT CAVOK 08/M04 Q1020 R26/CLRD// TEMPO 29016G26KT

LUKK Flight Activity (Flightaware)

Listeners: 0 out of 899 total

Chisinau Ground: 121.800

LUKK Handling (Archives)
Chisinau, Moldova

Feed Status: UP
Listen in your browser - HTML5 player(in browser, HTML5)
Click here to listen with your own player(launches your MP3 player)

LUKK 220930Z 30014KT CAVOK 08/M04 Q1020 R26/CLRD// TEMPO 29016G26KT

LUKK Flight Activity (Flightaware)

Listeners: 0 out of 899 total

Chisinau Handling: 131.700

LUKK Tower #2 (Archives)
Chisinau, Moldova

Feed Status: UP
Listen in your browser - HTML5 player(in browser, HTML5)
Click here to listen with your own player(launches your MP3 player)

LUKK 220930Z 30014KT CAVOK 08/M04 Q1020 R26/CLRD// TEMPO 29016G26KT

LUKK Flight Activity (Flightaware)

Listeners: 0 out of 899 total

Chisinau Tower: 118.100

LWSK ACC (Lower) (Archives)
Petrovec, Macedonia, Republic of

Feed Status: UP
Listen in your browser - HTML5 player(in browser, HTML5)
Click here to listen with your own player(launches your MP3 player)

LWSK 220930Z 00000KT 8000 NSC M00/M04 Q1035 NOSIG

LWSK Flight Activity (Flightaware)

Listeners: 1 out of 899 total

Skopje Control (Lower): 119.375

LWSK ACC (Upper) (Archives)
Petrovec, Macedonia, Republic of

Feed Status: UP
Listen in your browser - HTML5 player(in browser, HTML5)
Click here to listen with your own player(launches your MP3 player)

LWSK 220930Z 00000KT 8000 NSC M00/M04 Q1035 NOSIG

LWSK Flight Activity (Flightaware)

Listeners: 0 out of 899 total

Skopje Control (Upper): 120.015

LWSK Approach (Archives)
Petrovec, Macedonia, Republic of

Feed Status: UP
Listen in your browser - HTML5 player(in browser, HTML5)
Click here to listen with your own player(launches your MP3 player)

LWSK 220930Z 00000KT 8000 NSC M00/M04 Q1035 NOSIG

LWSK Flight Activity (Flightaware)

Listeners: 0 out of 899 total

Skopje Approach/Departure: 120.300

LWSK ATIS (Archives)
Petrovec, Macedonia, Republic of

Feed Status: UP
Listen in your browser - HTML5 player(in browser, HTML5)
Click here to listen with your own player(launches your MP3 player)

LWSK 220930Z 00000KT 8000 NSC M00/M04 Q1035 NOSIG

LWSK Flight Activity (Flightaware)

Listeners: 0 out of 899 total

Skopje ATIS: 130.125

LWSK Tower (Archives)
Petrovec, Macedonia, Republic of

Feed Status: UP
Listen in your browser - HTML5 player(in browser, HTML5)
Click here to listen with your own player(launches your MP3 player)

LWSK 220930Z 00000KT 8000 NSC M00/M04 Q1035 NOSIG

LWSK Flight Activity (Flightaware)

Listeners: 1 out of 899 total

Skopje Tower: 118.500

LYNI Twr/App (Archives)
Nis, Serbia

Feed Status: UP
Listen in your browser - HTML5 player(in browser, HTML5)
Click here to listen with your own player(launches your MP3 player)

LYNI 220900Z 18004KT 100V230 9000 FEW017 M00/M05 Q1035 NOSIG

LYNI Flight Activity (Flightaware)

Listeners: 0 out of 899 total

Nis Approach: 119.525
Nis Approach/Tower (Alternate): 136.075
Nis Tower: 118.950

LZKZ Gnd/Twr/App (Archives)
Kosice, Slovakia

Feed Status: UP
Listen in your browser - HTML5 player(in browser, HTML5)
Click here to listen with your own player(launches your MP3 player)

LZKZ 220900Z 23011KT 9999 OVC007 M03/M04 Q1031 NOSIG

LZKZ Flight Activity (Flightaware)

Listeners: 3 out of 899 total

Kosice Approach: 119.850
Kosice Ground: 121.700
Kosice Handling: 131.850
Kosice Tower: 120.400

LZNI CTAF (Archives)
Nitra, Slovakia

Feed Status: UP
Listen in your browser - HTML5 player(in browser, HTML5)
Click here to listen with your own player(launches your MP3 player)

LZNI Flight Activity (Flightaware)

Listeners: 0 out of 899 total

Nitra Traffic Radio: 123.405

LZPE CTAF/UNICOM (Archives)
Prievidza, Slovakia

Feed Status: UP
Listen in your browser - HTML5 player(in browser, HTML5)
Click here to listen with your own player(launches your MP3 player)

LZPE Flight Activity (Flightaware)

Listeners: 0 out of 899 total

Prievidza CTAF/UNICOM: 123.055

LZPP Ground/Tower (Archives)
Piestany, Slovakia

Feed Status: UP
Listen in your browser - HTML5 player(in browser, HTML5)
Click here to listen with your own player(launches your MP3 player)

LZPP 220900Z VRB02KT 9999 OVC009 M02/M03 Q1032

LZPP Flight Activity (Flightaware)

Listeners: 0 out of 899 total

Piestany Ground: 121.700
Piestany Tower: 118.575

LZPT CTAF (Archives)
Partizanske, Slovakia

Feed Status: UP
Listen in your browser - HTML5 player(in browser, HTML5)
Click here to listen with your own player(launches your MP3 player)

LZPT Flight Activity (Flightaware)

Listeners: 0 out of 899 total

Male Bielice CTAF: 123.500

MDPP App/Dep (Archives)
Puerto Plata, Dominican Republic

Feed Status: UP
Listen in your browser - HTML5 player(in browser, HTML5)
Click here to listen with your own player(launches your MP3 player)

MDPP 220900Z 00000KT 9999 FEW018 22/22 Q1010

MDPP Flight Activity (Flightaware)

Listeners: 0 out of 899 total

Puerto Plata Approach/Departure: 119.000

MDPP Ground/Center (Archives)
Puerto Plata, Dominican Republic

Feed Status: UP
Listen in your browser - HTML5 player(in browser, HTML5)
Click here to listen with your own player(launches your MP3 player)

MDPP 220900Z 00000KT 9999 FEW018 22/22 Q1010

MDPP Flight Activity (Flightaware)

Listeners: 0 out of 899 total

Puerto Plata Ground: 121.900
Puerto Plata Tower: 118.000
Santo Domingo Center: 124.300

MDPP Ground/Tower/Center (Archives)
Puerto Plata, Dominican Republic

Feed Status: UP
Listen in your browser - HTML5 player(in browser, HTML5)
Click here to listen with your own player(launches your MP3 player)

MDPP 220900Z 00000KT 9999 FEW018 22/22 Q1010

MDPP Flight Activity (Flightaware)

Listeners: 0 out of 899 total

Puerto Plata Ground: 121.900
Puerto Plata Tower: 118.000
Santo Domingo Center: 124.300

MDPP Tower (Archives)
Puerto Plata, Dominican Republic

Feed Status: UP
Listen in your browser - HTML5 player(in browser, HTML5)
Click here to listen with your own player(launches your MP3 player)

MDPP 220900Z 00000KT 9999 FEW018 22/22 Q1010

MDPP Flight Activity (Flightaware)

Listeners: 0 out of 899 total

Puerto Plata Tower: 118.000

MHLC Gnd/Twr/Center
La Ceiba, Honduras

Feed Status: DOWN
Offline since: 2020-01-22 09:32:06 UTC

MHLC 220900Z 21003KT 9999 SCT026 SCT080 21/18 Q1018 A3006 NOSIG

CENAMER: 123.900
CENAMER: 124.300
Goloson Ground: 121.900
Goloson Tower: 118.500
La Ceiba Radio: 128.900

MHRO Gnd/Twr/App/Center (Archives)
Roatan, Honduras

Feed Status: UP
Listen in your browser - HTML5 player(in browser, HTML5)
Click here to listen with your own player(launches your MP3 player)

MHRO 220600Z 34005KT 9999 SCT025 SCT070 25/16 Q1020 A3012 NOSIG

MHRO Flight Activity (Flightaware)

Listeners: 0 out of 899 total

CENAMER (Center): 124.300
La Ceiba Radio: 128.900
Roatan Ground: 121.600
Roatan Tower: 118.100

MHTG ATIS (Archives)
Tegucigalpa, Honduras

Feed Status: UP
Listen in your browser - HTML5 player(in browser, HTML5)
Click here to listen with your own player(launches your MP3 player)

MHTG 220900Z 36010KT 9999 SCT024 SCT080 14/10 Q1021 A3015 NOSIG

MHTG Flight Activity (Flightaware)

Listeners: 0 out of 899 total

Toncontin ATIS: 127.750

MHTG Gnd/Twr/App/Ctr/Ops (Archives)
Tegucigalpa, Honduras

Feed Status: UP
Listen in your browser - HTML5 player(in browser, HTML5)
Click here to listen with your own player(launches your MP3 player)

MHTG 220900Z 36010KT 9999 SCT024 SCT080 14/10 Q1021 A3015 NOSIG

MHTG Flight Activity (Flightaware)

Listeners: 0 out of 899 total

American Airlines Ops: 130.700
ARINC ACARS: 131.550
Cenamer Center: 123.900
Cenamer Center: 124.300
Cenamer Center: 124.100
CMP Ops: 129.925
Continental Airlines Ops: 129.925
FAH Ground: 122.900
Taca Ops: 131.300
Taca Ops Sal: 130.300
Tecnologias Unidas: 133.000
Tegucigalpa RDO: 126.700
Toncontin Approach: 119.100
Toncontin Ground: 121.900
Toncontin Tower: 118.700

MMAN Tower (Archives)
Monterrey, Mexico

Feed Status: UP
Listen in your browser - HTML5 player(in browser, HTML5)
Click here to listen with your own player(launches your MP3 player)

MMAN 220540Z 00000KT 1 1/2SM DZ BR OVC003 12/12 A3016 RMK SLP/// 5//// 9// 60045 8/7//

MMAN Flight Activity (Flightaware)

Listeners: 0 out of 899 total

Monterrey Tower: 118.600

MMCU Twr/App (Archives)
Chihuahua, Mexico

Feed Status: UP
Listen in your browser - HTML5 player(in browser, HTML5)
Click here to listen with your own player(launches your MP3 player)

MMCU 220341Z 21008KT 8SM FEW035 BKN080 BKN200 15/05 A3013 RMK 8/572

MMCU Flight Activity (Flightaware)

Listeners: 0 out of 899 total

Chihuahua Approach: 121.000
Chihuahua Tower: 118.400

MMGL Twr/App (Archives)
Guadalajara, Mexico

Feed Status: UP
Listen in your browser - HTML5 player(in browser, HTML5)
Click here to listen with your own player(launches your MP3 player)

MMGL 220840Z 25003KT 10SM BKN100 16/10 A3021 RMK SLP121 57007 967 8/030

MMGL Flight Activity (Flightaware)

Listeners: 2 out of 899 total

Guadalajara Approach: 120.800
Guadalajara Tower: 118.100

MMHO App/Dep
Hermosillo, Mexico

Feed Status: DOWN
Offline since: 2019-11-27 01:26:40 UTC

MMHO 220906Z RTD 00000KT 10SM FEW090 BKN200 12/12 A3010 RMK 8/038 HZY

Hermosillo Approach/Departure: 121.400

MMHO Tower
Hermosillo, Mexico

Feed Status: DOWN
Offline since: 2019-11-27 01:26:40 UTC

MMHO 220906Z RTD 00000KT 10SM FEW090 BKN200 12/12 A3010 RMK 8/038 HZY

Hermosillo Tower: 118.700

MMLP Twr/App/Center (Archives)
La Paz, Mexico

Feed Status: UP
Listen in your browser - HTML5 player(in browser, HTML5)
Click here to listen with your own player(launches your MP3 player)

MMLP 220541Z 00000KT 10SM FEW030 SCT100 19/11 A3010 RMK SLP193 52005 900 8/130

MMLP Flight Activity (Flightaware)

Listeners: 0 out of 899 total

La Paz Approach: 120.600
La Paz Tower: 118.100
Mazatlan Center: 128.000
Mazatlan Center: 124.400
Mazatlan Center: 128.300
Mazatlan Center: 124.200
Mazatlan Center: 126.300
Mazatlan Center: 126.500
San Jose Approach: 120.900

MMMD Tower/Approach (Archives)
Merida, Mexico

Feed Status: UP
Listen in your browser - HTML5 player(in browser, HTML5)
Click here to listen with your own player(launches your MP3 player)

MMMD 220844Z 18003KT 7SM SCT020 14/13 A3015 RMK SLP214 57016 957 8/500

MMMD Flight Activity (Flightaware)

Listeners: 0 out of 899 total

Merida Approach: 121.200
Merida Tower: 118.300

MMMM Tower (Archives)
Morelia, Mexico

Feed Status: UP
Listen in your browser - HTML5 player(in browser, HTML5)
Click here to listen with your own player(launches your MP3 player)

MMMM 220911Z RTD 00000KT 7SM SKC 06/03 A3025 RMK SLP157 57011 980

MMMM Flight Activity (Flightaware)

Listeners: 0 out of 899 total

Morelia Tower: 118.500

MMMX Approach (Archives)
Mexico City, Mexico

Feed Status: UP
Listen in your browser - HTML5 player(in browser, HTML5)
Click here to listen with your own player(launches your MP3 player)

MMMX 220845Z 00000KT 6SM SKC 08/05 A3035 NOSIG RMK SLP160 57009 975 HZY

MMMX Flight Activity (Flightaware)

Listeners: 2 out of 899 total

Mexico City Approach: 121.200

MMMX Twr/App (Archives)
Mexico City, Mexico

Feed Status: UP
Listen in your browser - HTML5 player(in browser, HTML5)
Click here to listen with your own player(launches your MP3 player)

MMMX 220845Z 00000KT 6SM SKC 08/05 A3035 NOSIG RMK SLP160 57009 975 HZY

MMMX Flight Activity (Flightaware)

Listeners: 7 out of 899 total

Mexico City Approach: 121.200
Mexico City Final Approach: 119.750
Mexico City Helicopters: 118.150
Mexico City Terminal: 129.600
Mexico City Tower: 118.550

MMMY Tower/Approach (Archives)
Monterrey, Mexico

Feed Status: UP
Listen in your browser - HTML5 player(in browser, HTML5)
Click here to listen with your own player(launches your MP3 player)

MMMY 220840Z 10004KT 1SM -DZ BR OVC003 14/13 A3004 RMK SLP/// 5//// 9// 60025 8/7// -DZ INTMT

MMMY Flight Activity (Flightaware)

Listeners: 0 out of 899 total

Monterrey Approach/Departure: 119.750
Monterrey Tower: 118.100

MMQT Tower/App (Archives)
Queretaro, Mexico

Feed Status: UP
Listen in your browser - HTML5 player(in browser, HTML5)
Click here to listen with your own player(launches your MP3 player)

MMQT 220842Z 08006KT 3SM BR BKN005 08/08 A3034 RMK 8/6//

MMQT Flight Activity (Flightaware)

Listeners: 0 out of 899 total

Queretaro Approach: 127.200
Queretaro Tower: 118.950

MMSP Gnd/Twr/App/Center (Archives)
San Luis Potosi, Mexico

Feed Status: UP
Listen in your browser - HTML5 player(in browser, HTML5)
Click here to listen with your own player(launches your MP3 player)

MMSP 220840Z 00000KT 5SM SCT008 OVC012 07/05 A3027 RMK SLP180 57002 984 8/5//

MMSP Flight Activity (Flightaware)

Listeners: 0 out of 899 total

AMX Ground Ops: 131.000
Mexico Center (North, Sector 6): 126.000
Mexico Center (Northwest, Sector 7): 123.900
Mexico Center (West, Sector 5): 125.100
Potosi Approach: 127.500
Potosi Tower: 118.900
TAO Ground Ops: 133.600

MMTC Twr/App/Center (Archives)
Torreon, Mexico

Feed Status: UP
Listen in your browser - HTML5 player(in browser, HTML5)
Click here to listen with your own player(launches your MP3 player)

MMTC 220340Z 09004KT 10SM BKN110 19/06 A3007 RMK 8/060

MMTC Flight Activity (Flightaware)

Listeners: 0 out of 899 total

Mazatlan Center: 124.200
Mazatlan Center: 124.400
Mazatlan Center: 128.000
Mexico Center: 123.900
Monterrey Center: 125.600
Monterrey Center: 125.425
Monterrey Center: 127.400
Torreon Approach: 119.500
Torreon Tower: 118.500

MMTJ Approach (Archives)
Tijuana, Mexico

Feed Status: UP
Listen in your browser - HTML5 player(in browser, HTML5)
Click here to listen with your own player(launches your MP3 player)

MMTJ 220840Z 34004KT 7SM OVC020 11/10 A3023 RMK SLP238 50002 918 8/5// HZY

MMTJ Flight Activity (Flightaware)

Listeners: 0 out of 899 total

Tijuana Approach: 120.300

MMTJ Twr/Ramp (Archives)
Tijuana, Mexico

Feed Status: UP
Listen in your browser - HTML5 player(in browser, HTML5)
Click here to listen with your own player(launches your MP3 player)

MMTJ 220840Z 34004KT 7SM OVC020 11/10 A3023 RMK SLP238 50002 918 8/5// HZY

MMTJ Flight Activity (Flightaware)

Listeners: 1 out of 899 total

Tijuana Ramp: 126.100
Tijuana Tower: 118.100

MROC Del/Gnd/Twr (Archives)
San Jose, Costa Rica

Feed Status: UP
Listen in your browser - HTML5 player(in browser, HTML5)
Click here to listen with your own player(launches your MP3 player)

MROC 220900Z 07009KT 9999 FEW040 20/14 A3004 NOSIG

MROC Flight Activity (Flightaware)

Listeners: 0 out of 899 total

Coco Clearance Delivery/Ground: 121.900
Coco Tower: 118.600

MROC Del/Gnd/Twr/App/Center/Misc (Archives)
San Jose, Costa Rica

Feed Status: UP
Listen in your browser - HTML5 player(in browser, HTML5)
Click here to listen with your own player(launches your MP3 player)

MROC 220900Z 07009KT 9999 FEW040 20/14 A3004 NOSIG

MROC Flight Activity (Flightaware)

Listeners: 1 out of 899 total

Central American Center (CENAMER Control): 124.100
Coco Center (Control over CR Airspace): 119.600
Coco Clearance Delivery: 121.300
Coco Ground: 121.900
Coco Terminal Control: 120.500
Coco Tower: 118.600
Coco UNICOM: 126.800
SYQ Ground: 121.700
SYQ Tower: 118.300

MSLP Gnd/Twr/App (Archives)
San Salvador, El Salvador

Feed Status: UP
Listen in your browser - HTML5 player(in browser, HTML5)
Click here to listen with your own player(launches your MP3 player)

MSLP 220850Z 02012G22KT 350V050 CAVOK 25/12 Q1012 A2990 NOSIG

MSLP Flight Activity (Flightaware)

Listeners: 0 out of 899 total

Comalapa Ground: 121.700
Comalapa Tower: 118.000
Compalapa Approach: 119.900

MSLP Gnd/Twr/App/Center (Archives)
San Salvador, El Salvador

Feed Status: UP
Listen in your browser - HTML5 player(in browser, HTML5)
Click here to listen with your own player(launches your MP3 player)

MSLP 220850Z 02012G22KT 350V050 CAVOK 25/12 Q1012 A2990 NOSIG

MSLP Flight Activity (Flightaware)

Listeners: 0 out of 899 total

Avianca Ops: 123.500
CCA: 119.300
CENAMER: 124.100
Comalapa Authorizations: 121.250
Comalapa Departure: 123.900
Comalapa Ground: 121.700
Comalapa Tower: 118.000
Compalapa Approach: 119.900
Ilopango Tower: 118.300
TACA Ops: 130.500

MSSS Tower
San Salvador, El Salvador

Feed Status: DOWN
Offline since: 2020-01-21 10:42:40 UTC

MSSS 220550Z 35008KT CAVOK 19/12 Q1020 A3012

Ilopango Tower: 118.300

MUFH Havana FIR (App/Center) (Archives)
Havana, Cuba

Feed Status: UP
Listen in your browser - HTML5 player(in browser, HTML5)
Click here to listen with your own player(launches your MP3 player)

MUFH Flight Activity (Flightaware)

Listeners: 0 out of 899 total

Hava Approach: 120.300
Havana Center: 120.250
Havana Center: 123.700
Havana Center: 124.550
Havana Center: 133.700
Havana Center: 135.100

OKBK Gnd/Twr/App/Radar (Archives)
Kuwait City, Kuwait

Feed Status: UP
Listen in your browser - HTML5 player(in browser, HTML5)
Click here to listen with your own player(launches your MP3 player)

OKBK 220900Z 27012KT 3000 -DU NSC 20/06 Q1012 NOSIG


Listeners: 3 out of 899 total

Kuwait Approach: 121.300
Kuwait Approach: 124.800
Kuwait Ground: 121.700
Kuwait Radar (Center): 125.300
Kuwait Tower: 118.300

OPKC Gnd/Twr/Radar (Archives)
Karachi, Pakistan

Feed Status: UP
Listen in your browser - HTML5 player(in browser, HTML5)
Click here to listen with your own player(launches your MP3 player)

OPKC 220855Z 05021KT 4000 BLDU NSC 23/04 Q1021 TEMPO 05015G25KT


Listeners: 1 out of 899 total

Karachi Ground: 121.600
Karachi Radar: 125.500
Karachi Tower: 118.300

RCTP Approach
Taipei, Taiwan

Feed Status: DOWN
Offline since: 2020-01-22 09:42:39 UTC

RCTP 220900Z 02003KT 5000 BR FEW006 BKN200 19/17 Q1018 TEMPO 4000 BR RMK A3008

Emergency/Guard: 121.500
Taipei Approach: 125.100
Taipei Approach: 125.600
Taipei Approach: 128.500

RCTP Tower
Taipei, Taiwan

Feed Status: DOWN
Offline since: 2020-01-22 09:42:39 UTC

RCTP 220900Z 02003KT 5000 BR FEW006 BKN200 19/17 Q1018 TEMPO 4000 BR RMK A3008

Taipei Tower: 118.700

RJAA Approach (Archives)
Tokyo, Japan

Feed Status: UP
Listen in your browser - HTML5 player(in browser, HTML5)
Click here to listen with your own player(launches your MP3 player)

RJAA 220900Z 29004KT 9999 FEW020 BKN120 05/01 Q1025 NOSIG

RJAA Flight Activity (Flightaware)

Listeners: 7 out of 899 total

Tokyo Approach: 124.400
Tokyo Approach: 127.700

RJAA Clearance Delivery (Archives)
Tokyo, Japan

Feed Status: UP
Listen in your browser - HTML5 player(in browser, HTML5)
Click here to listen with your own player(launches your MP3 player)

RJAA 220900Z 29004KT 9999 FEW020 BKN120 05/01 Q1025 NOSIG

RJAA Flight Activity (Flightaware)

Listeners: 1 out of 899 total

Narita Clearance Delivery (Asia/Pacific): 121.650
Narita Clearance Delivery (US/Europe): 121.900

RJAA Clearance Delivery #1 (Archives)
Tokyo, Japan

Feed Status: UP
Listen in your browser - HTML5 player(in browser, HTML5)
Click here to listen with your own player(launches your MP3 player)

RJAA 220900Z 29004KT 9999 FEW020 BKN120 05/01 Q1025 NOSIG

RJAA Flight Activity (Flightaware)

Listeners: 0 out of 899 total

Narita Clearance Delivery (Asia/Pacific): 121.650

RJAA Clearance Delivery #2 (Archives)
Tokyo, Japan

Feed Status: UP
Listen in your browser - HTML5 player(in browser, HTML5)
Click here to listen with your own player(launches your MP3 player)

RJAA 220900Z 29004KT 9999 FEW020 BKN120 05/01 Q1025 NOSIG

RJAA Flight Activity (Flightaware)

Listeners: 0 out of 899 total

Narita Clearance Delivery (US/Europe): 121.900

RJAA Company Channels (Archives)
Tokyo, Japan

Feed Status: UP
Listen in your browser - HTML5 player(in browser, HTML5)
Click here to listen with your own player(launches your MP3 player)

RJAA 220900Z 29004KT 9999 FEW020 BKN120 05/01 Q1025 NOSIG

RJAA Flight Activity (Flightaware)

Listeners: 3 out of 899 total

Ops: 130.450
Ops: 130.550
Ops: 130.900
Ops: 131.025
Ops: 131.100
Ops: 131.200
Ops: 131.700
Ops: 131.750

RJAA Departure (Archives)
Tokyo, Japan

Feed Status: UP
Listen in your browser - HTML5 player(in browser, HTML5)
Click here to listen with your own player(launches your MP3 player)

RJAA 220900Z 29004KT 9999 FEW020 BKN120 05/01 Q1025 NOSIG

RJAA Flight Activity (Flightaware)

Listeners: 0 out of 899 total

Tokyo Departure: 119.600
Tokyo Departure: 124.200

RJAA Departure #1 (Archives)
Tokyo, Japan

Feed Status: UP
Listen in your browser - HTML5 player(in browser, HTML5)
Click here to listen with your own player(launches your MP3 player)

RJAA 220900Z 29004KT 9999 FEW020 BKN120 05/01 Q1025 NOSIG

RJAA Flight Activity (Flightaware)

Listeners: 0 out of 899 total

Tokyo Departure: 124.200

RJAA Departure #2 (Archives)
Tokyo, Japan

Feed Status: UP
Listen in your browser - HTML5 player(in browser, HTML5)
Click here to listen with your own player(launches your MP3 player)

RJAA 220900Z 29004KT 9999 FEW020 BKN120 05/01 Q1025 NOSIG

RJAA Flight Activity (Flightaware)

Listeners: 0 out of 899 total

Tokyo Departure: 119.600

RJAA Emergency/Guard (Archives)
Tokyo, Japan

Feed Status: UP
Listen in your browser - HTML5 player(in browser, HTML5)
Click here to listen with your own player(launches your MP3 player)

RJAA 220900Z 29004KT 9999 FEW020 BKN120 05/01 Q1025 NOSIG

RJAA Flight Activity (Flightaware)

Listeners: 0 out of 899 total

Emergency/Guard: 121.500

RJAA Ground #1 (Archives)
Tokyo, Japan

Feed Status: UP
Listen in your browser - HTML5 player(in browser, HTML5)
Click here to listen with your own player(launches your MP3 player)

RJAA 220900Z 29004KT 9999 FEW020 BKN120 05/01 Q1025 NOSIG

RJAA Flight Activity (Flightaware)

Listeners: 0 out of 899 total

Narita Ground: 121.850

RJAA Ground #2 (Archives)
Tokyo, Japan

Feed Status: UP
Listen in your browser - HTML5 player(in browser, HTML5)
Click here to listen with your own player(launches your MP3 player)

RJAA 220900Z 29004KT 9999 FEW020 BKN120 05/01 Q1025 NOSIG

RJAA Flight Activity (Flightaware)

Listeners: 3 out of 899 total

Narita Ground: 121.950

RJAA Radar 119.025 (Archives)
Tokyo, Japan

Feed Status: UP
Listen in your browser - HTML5 player(in browser, HTML5)
Click here to listen with your own player(launches your MP3 player)

RJAA 220900Z 29004KT 9999 FEW020 BKN120 05/01 Q1025 NOSIG

RJAA Flight Activity (Flightaware)

Listeners: 0 out of 899 total

Tokyo Radar: 119.025

RJAA Radar 120.2 (Archives)
Tokyo, Japan

Feed Status: UP
Listen in your browser - HTML5 player(in browser, HTML5)
Click here to listen with your own player(launches your MP3 player)

RJAA 220900Z 29004KT 9999 FEW020 BKN120 05/01 Q1025 NOSIG

RJAA Flight Activity (Flightaware)

Listeners: 2 out of 899 total

Tokyo Radar: 120.200

RJAA Radar 120.6 (Archives)
Tokyo, Japan

Feed Status: UP
Listen in your browser - HTML5 player(in browser, HTML5)
Click here to listen with your own player(launches your MP3 player)

RJAA 220900Z 29004KT 9999 FEW020 BKN120 05/01 Q1025 NOSIG

RJAA Flight Activity (Flightaware)

Listeners: 0 out of 899 total

Tokyo Radar: 120.600

RJAA Radar 132.1 (Archives)
Tokyo, Japan

Feed Status: UP
Listen in your browser - HTML5 player(in browser, HTML5)
Click here to listen with your own player(launches your MP3 player)

RJAA 220900Z 29004KT 9999 FEW020 BKN120 05/01 Q1025 NOSIG

RJAA Flight Activity (Flightaware)

Listeners: 0 out of 899 total

Tokyo Radar: 132.100

RJAA Radar 133.35 (Archives)
Tokyo, Japan

Feed Status: UP
Listen in your browser - HTML5 player(in browser, HTML5)
Click here to listen with your own player(launches your MP3 player)

RJAA 220900Z 29004KT 9999 FEW020 BKN120 05/01 Q1025 NOSIG

RJAA Flight Activity (Flightaware)

Listeners: 0 out of 899 total

Tokyo Radar: 133.350

RJAA Ramp #1 (Archives)
Tokyo, Japan

Feed Status: UP
Listen in your browser - HTML5 player(in browser, HTML5)
Click here to listen with your own player(launches your MP3 player)

RJAA 220900Z 29004KT 9999 FEW020 BKN120 05/01 Q1025 NOSIG

RJAA Flight Activity (Flightaware)

Listeners: 0 out of 899 total

Narita Ramp: 121.600

RJAA Ramp #2 (Archives)
Tokyo, Japan

Feed Status: UP
Listen in your browser - HTML5 player(in browser, HTML5)
Click here to listen with your own player(launches your MP3 player)

RJAA 220900Z 29004KT 9999 FEW020 BKN120 05/01 Q1025 NOSIG

RJAA Flight Activity (Flightaware)

Listeners: 1 out of 899 total

Narita Ramp: 121.750

RJAA TCA (Archives)
Tokyo, Japan

Feed Status: UP
Listen in your browser - HTML5 player(in browser, HTML5)
Click here to listen with your own player(launches your MP3 player)

RJAA 220900Z 29004KT 9999 FEW020 BKN120 05/01 Q1025 NOSIG

RJAA Flight Activity (Flightaware)

Listeners: 0 out of 899 total

Tokyo TCA (Terminal Control Area): 119.450

RJAA Tokyo Control (Archives)
Tokyo, Japan

Feed Status: UP
Listen in your browser - HTML5 player(in browser, HTML5)
Click here to listen with your own player(launches your MP3 player)

RJAA 220900Z 29004KT 9999 FEW020 BKN120 05/01 Q1025 NOSIG

RJAA Flight Activity (Flightaware)

Listeners: 0 out of 899 total

Tokyo Control: 125.900

RJAA Tower #1 (Archives)
Tokyo, Japan

Feed Status: UP
Listen in your browser - HTML5 player(in browser, HTML5)
Click here to listen with your own player(launches your MP3 player)

RJAA 220900Z 29004KT 9999 FEW020 BKN120 05/01 Q1025 NOSIG

RJAA Flight Activity (Flightaware)

Listeners: 8 out of 899 total

Narita Tower (Rwy 16R/34L): 118.200

RJAA Tower #2 (Archives)
Tokyo, Japan

Feed Status: UP
Listen in your browser - HTML5 player(in browser, HTML5)
Click here to listen with your own player(launches your MP3 player)

RJAA 220900Z 29004KT 9999 FEW020 BKN120 05/01 Q1025 NOSIG

RJAA Flight Activity (Flightaware)

Listeners: 3 out of 899 total

Narita Tower (Rwy 16L/34R): 118.350

RJAA Tower (Both) (Archives)
Tokyo, Japan

Feed Status: UP
Listen in your browser - HTML5 player(in browser, HTML5)
Click here to listen with your own player(launches your MP3 player)

RJAA 220900Z 29004KT 9999 FEW020 BKN120 05/01 Q1025 NOSIG

RJAA Flight Activity (Flightaware)

Listeners: 2 out of 899 total

Narita Tower (Rwy 16L/34R): 118.350
Narita Tower (Rwy 16R/34L): 118.200

RJOO Tower (Archives)
Osaka, Japan

Feed Status: UP
Listen in your browser - HTML5 player(in browser, HTML5)
Click here to listen with your own player(launches your MP3 player)

RJOO 220900Z VRB01KT 9999 -RA FEW025 SCT060 BKN080 10/05 Q1026

RJOO Flight Activity (Flightaware)

Listeners: 0 out of 899 total

Osaka Tower: 118.100

RJSF RDO (Archives)
Sukagawa, Japan

Feed Status: UP
Listen in your browser - HTML5 player(in browser, HTML5)
Click here to listen with your own player(launches your MP3 player)

RJSF 220900Z 14004KT 100V160 9999 FEW020 SCT025 BKN030 04/04 Q1024

RJSF Flight Activity (Flightaware)

Listeners: 1 out of 899 total

Fukushima Radio: 118.050

RJTT App/Dep (Archives)
Tokyo, Japan

Feed Status: UP
Listen in your browser - HTML5 player(in browser, HTML5)
Click here to listen with your own player(launches your MP3 player)

RJTT 220900Z 02005KT 340V060 9999 FEW015 BKN110 BKN160 07/M01 Q1026 NOSIG

RJTT Flight Activity (Flightaware)

Listeners: 16 out of 899 total

Tokyo Approach: 119.100
Tokyo Approach: 119.400
Tokyo Departure: 120.800
Tokyo Departure: 126.000

RJTT Approach (Archives)
Tokyo, Japan

Feed Status: UP
Listen in your browser - HTML5 player(in browser, HTML5)
Click here to listen with your own player(launches your MP3 player)

RJTT 220900Z 02005KT 340V060 9999 FEW015 BKN110 BKN160 07/M01 Q1026 NOSIG

RJTT Flight Activity (Flightaware)

Listeners: 14 out of 899 total

Tokyo Approach: 119.100
Tokyo Approach: 119.400

RJTT ATIS (Archives)
Tokyo, Japan

Feed Status: UP
Listen in your browser - HTML5 player(in browser, HTML5)
Click here to listen with your own player(launches your MP3 player)

RJTT 220900Z 02005KT 340V060 9999 FEW015 BKN110 BKN160 07/M01 Q1026 NOSIG

RJTT Flight Activity (Flightaware)

Listeners: 0 out of 899 total

Tokyo ATIS: 128.800

RJTT Company Channels (Archives)
Tokyo, Japan

Feed Status: UP
Listen in your browser - HTML5 player(in browser, HTML5)
Click here to listen with your own player(launches your MP3 player)

RJTT 220900Z 02005KT 340V060 9999 FEW015 BKN110 BKN160 07/M01 Q1026 NOSIG

RJTT Flight Activity (Flightaware)

Listeners: 12 out of 899 total

Company TBD: 128.500
Company TBD: 131.850
Company TBD: 129.725
Company TBD: 129.700
Company TBD: 131.900
Company TBD: 129.850
Company TBD: 128.975
Company TBD: 123.675
Company TBD: 132.075

RJTT Del/Ground (Archives)
Tokyo, Japan

Feed Status: UP
Listen in your browser - HTML5 player(in browser, HTML5)
Click here to listen with your own player(launches your MP3 player)

RJTT 220900Z 02005KT 340V060 9999 FEW015 BKN110 BKN160 07/M01 Q1026 NOSIG

RJTT Flight Activity (Flightaware)

Listeners: 1 out of 899 total

Tokyo Clearance Delivery: 121.825
Tokyo Ground: 121.700
Tokyo Ground: 118.225
Tokyo Ground: 121.625
Tokyo Ground: 121.975

RJTT Del/Twr/TCA/Gnd (Archives)
Tokyo, Japan

Feed Status: UP
Listen in your browser - HTML5 player(in browser, HTML5)
Click here to listen with your own player(launches your MP3 player)

RJTT 220900Z 02005KT 340V060 9999 FEW015 BKN110 BKN160 07/M01 Q1026 NOSIG

RJTT Flight Activity (Flightaware)

Listeners: 7 out of 899 total

Tokyo Clearance Delivery: 121.825
Tokyo Ground: 121.975
Tokyo Ground: 121.625
Tokyo Ground: 121.700
Tokyo Ground: 118.225
Tokyo TCA: 124.750
Tokyo Tower: 118.100
Tokyo Tower: 118.575
Tokyo Tower: 118.725
Tokyo Tower: 124.350

RJTT Departure (Archives)
Tokyo, Japan

Feed Status: UP
Listen in your browser - HTML5 player(in browser, HTML5)
Click here to listen with your own player(launches your MP3 player)

RJTT 220900Z 02005KT 340V060 9999 FEW015 BKN110 BKN160 07/M01 Q1026 NOSIG

RJTT Flight Activity (Flightaware)

Listeners: 2 out of 899 total

Tokyo Departure: 120.800
Tokyo Departure: 126.000

RJTT Tokyo Control (Archives)
Tokyo, Japan

Feed Status: UP
Listen in your browser - HTML5 player(in browser, HTML5)
Click here to listen with your own player(launches your MP3 player)

RJTT 220900Z 02005KT 340V060 9999 FEW015 BKN110 BKN160 07/M01 Q1026 NOSIG

RJTT Flight Activity (Flightaware)

Listeners: 32 out of 899 total

Tokyo Control: 133.700
Tokyo Control: 125.900
Tokyo Control: 120.500

RJTT Twr/TCA (Archives)
Tokyo, Japan

Feed Status: UP
Listen in your browser - HTML5 player(in browser, HTML5)
Click here to listen with your own player(launches your MP3 player)

RJTT 220900Z 02005KT 340V060 9999 FEW015 BKN110 BKN160 07/M01 Q1026 NOSIG

RJTT Flight Activity (Flightaware)

Listeners: 2 out of 899 total

Tokyo TCA: 124.750
Tokyo Tower: 118.100
Tokyo Tower: 118.575
Tokyo Tower: 118.725
Tokyo Tower: 124.350

RJTY Approach (Archives)
Tokyo, Japan

Feed Status: UP
Listen in your browser - HTML5 player(in browser, HTML5)
Click here to listen with your own player(launches your MP3 player)

RJTY 220856Z AUTO 00000KT 10SM BKN110 OVC140 05/M03 A3033 RMK AO2 SLP282 T00451026 58003 FZRANO $

RJTY Flight Activity (Flightaware)

Listeners: 5 out of 899 total

Yokota Approach: 118.300
Yokota APproach: 123.800
Yokota Approach: 120.700

RJTY ATIS (Archives)
Tokyo, Japan

Feed Status: UP
Listen in your browser - HTML5 player(in browser, HTML5)
Click here to listen with your own player(launches your MP3 player)

RJTY 220856Z AUTO 00000KT 10SM BKN110 OVC140 05/M03 A3033 RMK AO2 SLP282 T00451026 58003 FZRANO $

RJTY Flight Activity (Flightaware)

Listeners: 0 out of 899 total

Yokota ATIS: 126.400

RJTY Ground (Archives)
Tokyo, Japan

Feed Status: UP
Listen in your browser - HTML5 player(in browser, HTML5)
Click here to listen with your own player(launches your MP3 player)

RJTY 220856Z AUTO 00000KT 10SM BKN110 OVC140 05/M03 A3033 RMK AO2 SLP282 T00451026 58003 FZRANO $

RJTY Flight Activity (Flightaware)

Listeners: 0 out of 899 total

Yokota Ground: 133.200

RJTY Ground/Tower (Archives)
Tokyo, Japan

Feed Status: UP
Listen in your browser - HTML5 player(in browser, HTML5)
Click here to listen with your own player(launches your MP3 player)

RJTY 220856Z AUTO 00000KT 10SM BKN110 OVC140 05/M03 A3033 RMK AO2 SLP282 T00451026 58003 FZRANO $

RJTY Flight Activity (Flightaware)

Listeners: 1 out of 899 total

Yokota Ground: 133.200
Yokota Tower: 134.300

RJTY Tower (Archives)
Tokyo, Japan

Feed Status: UP
Listen in your browser - HTML5 player(in browser, HTML5)
Click here to listen with your own player(launches your MP3 player)

RJTY 220856Z AUTO 00000KT 10SM BKN110 OVC140 05/M03 A3033 RMK AO2 SLP282 T00451026 58003 FZRANO $

RJTY Flight Activity (Flightaware)

Listeners: 2 out of 899 total

Yokota Tower: 134.300

RKSG Gnd/Twr/App (Archives)
Pyeongtaek, Korea, Republic of

Feed Status: UP
Listen in your browser - HTML5 player(in browser, HTML5)
Click here to listen with your own player(launches your MP3 player)

RKSG 220856Z 00000KT 5SM HZ OVC047 04/M03 A3024 RMK AO2A SLP244 53005 $

RKSG Flight Activity (Flightaware)

Listeners: 1 out of 899 total

Desiderio Final: 255.800
Desiderio GCA: 226.800
Desiderio GCA: 127.000
Desiderio Ground (Camp Humphreys A-511 AAF): 119.500
Desiderio Ground UHF: 229.700
Desiderio Ops: 294.100
Desiderio Tower (Camp Humphreys A-511 AAF): 122.500
Desiderio Tower UHF: 257.800

RKRR Incheon Control (Archives)
Incheon, Korea, Republic of

Feed Status: UP
Listen in your browser - HTML5 player(in browser, HTML5)
Click here to listen with your own player(launches your MP3 player)

RKSI 220900Z 28002KT CAVOK 04/M04 Q1024 NOSIG

RKSI Flight Activity (Flightaware)

Listeners: 10 out of 899 total

Incheon Control North Sector (Primary): 128.700
Incheon Control North Sector (Secondary): 132.800
Incheon Control Northwest Sector (Primary): 126.175
Incheon Control Northwest Sector (Secondary): 123.725

RKSO Gnd/Twr/App (Archives)
Pyeongtaek, Korea, Republic of

Feed Status: UP
Listen in your browser - HTML5 player(in browser, HTML5)
Click here to listen with your own player(launches your MP3 player)

RKSO 220858Z 07003KT 6SM HZ BKN050 02/M02 A3024 RMK AO2A SLP244 T00241019 52005 $

RKSO Flight Activity (Flightaware)

Listeners: 2 out of 899 total

25 FS Ops: 229.000
36FS Ops: 371.300
Osan Air Base Approach/Departure: 127.900
Osan Air Base Approach/Departure: 133.650
Osan Air Base Ground: 132.450
Osan Air Base Tower: 122.100
Osan App/Dep UHF: 306.600
Osan App/Dep UHF: 234.300
Osan App/Dep UHF (possibly inactive): 306.300
Osan App/Dep UHF (possibly inactive): 363.100
Osan Ground UHF: 253.700
Osan SAR: 282.800
Osan SAR: 381.000
Osan SOF: 299.800
Osan Tower UHF: 308.800
Stallion Ops: 276.200

ROAH Gnd/Twr/App (Archives)
Okinawa, Japan

Feed Status: UP
Listen in your browser - HTML5 player(in browser, HTML5)
Click here to listen with your own player(launches your MP3 player)

RODN 220856Z AUTO 15004KT 10SM FEW029 20/14 A3019 RMK AO2 SLP231 T02010144 53006 $

RODN Flight Activity (Flightaware)

Listeners: 0 out of 899 total


ROAH Naha ACC (Archives)
Okinawa, Japan

Feed Status: UP
Listen in your browser - HTML5 player(in browser, HTML5)
Click here to listen with your own player(launches your MP3 player)

RODN 220856Z AUTO 15004KT 10SM FEW029 20/14 A3019 RMK AO2 SLP231 T02010144 53006 $

RODN Flight Activity (Flightaware)

Listeners: 1 out of 899 total


RODN Gnd/Twr/App (Archives)
Okinawa, Japan

Feed Status: UP
Listen in your browser - HTML5 player(in browser, HTML5)
Click here to listen with your own player(launches your MP3 player)

RODN 220856Z AUTO 15004KT 10SM FEW029 20/14 A3019 RMK AO2 SLP231 T02010144 53006 $

RODN Flight Activity (Flightaware)

Listeners: 3 out of 899 total


ROTM Gnd/Twr (Archives)
Okinawa, Japan

Feed Status: UP
Listen in your browser - HTML5 player(in browser, HTML5)
Click here to listen with your own player(launches your MP3 player)

RODN 220856Z AUTO 15004KT 10SM FEW029 20/14 A3019 RMK AO2 SLP231 T02010144 53006 $

RODN Flight Activity (Flightaware)

Listeners: 0 out of 899 total


RPLL ACC 125.7 (Archives)
Manila, Philippines

Feed Status: UP
Listen in your browser - HTML5 player(in browser, HTML5)
Click here to listen with your own player(launches your MP3 player)

RPLL 220900Z 11009KT 070V140 9999 FEW030 30/18 Q1014 NOSIG RMK A2994

RPLL Flight Activity (Flightaware)

Listeners: 0 out of 899 total

Manila Control: 125.700

RPLL App/Dep 124.4 (Archives)
Manila, Philippines

Feed Status: UP
Listen in your browser - HTML5 player(in browser, HTML5)
Click here to listen with your own player(launches your MP3 player)

RPLL 220900Z 11009KT 070V140 9999 FEW030 30/18 Q1014 NOSIG RMK A2994

RPLL Flight Activity (Flightaware)

Listeners: 0 out of 899 total

Manila Approach/.Departure: 124.400

RPLL App/Dep 124.8 (Archives)
Manila, Philippines

Feed Status: UP
Listen in your browser - HTML5 player(in browser, HTML5)
Click here to listen with your own player(launches your MP3 player)

RPLL 220900Z 11009KT 070V140 9999 FEW030 30/18 Q1014 NOSIG RMK A2994

RPLL Flight Activity (Flightaware)

Listeners: 0 out of 899 total

Manila Approach/.Departure: 124.800

RPLL ATIS (Archives)
Manila, Philippines

Feed Status: UP
Listen in your browser - HTML5 player(in browser, HTML5)
Click here to listen with your own player(launches your MP3 player)

RPLL 220900Z 11009KT 070V140 9999 FEW030 30/18 Q1014 NOSIG RMK A2994

RPLL Flight Activity (Flightaware)

Listeners: 0 out of 899 total

Manila ATIS: 126.400

RPLL Clearance Delivery (Archives)
Manila, Philippines

Feed Status: UP
Listen in your browser - HTML5 player(in browser, HTML5)
Click here to listen with your own player(launches your MP3 player)

RPLL 220900Z 11009KT 070V140 9999 FEW030 30/18 Q1014 NOSIG RMK A2994

RPLL Flight Activity (Flightaware)

Listeners: 0 out of 899 total

Manila Clearance Delivery (Primary): 125.100
Manila Clearance Delivery (Secondary): 125.500

RPLL Ground (Archives)
Manila, Philippines

Feed Status: UP
Listen in your browser - HTML5 player(in browser, HTML5)
Click here to listen with your own player(launches your MP3 player)

RPLL 220900Z 11009KT 070V140 9999 FEW030 30/18 Q1014 NOSIG RMK A2994

RPLL Flight Activity (Flightaware)

Listeners: 0 out of 899 total

Manila Ground: 121.800

RPLL Ramp/Taxi (Archives)
Manila, Philippines

Feed Status: UP
Listen in your browser - HTML5 player(in browser, HTML5)
Click here to listen with your own player(launches your MP3 player)

RPLL 220900Z 11009KT 070V140 9999 FEW030 30/18 Q1014 NOSIG RMK A2994

RPLL Flight Activity (Flightaware)

Listeners: 0 out of 899 total

Manila Ramp/Taxi: 121.350
Manila Ramp/Taxi: 121.700

RPLL Tower (Archives)
Manila, Philippines

Feed Status: UP
Listen in your browser - HTML5 player(in browser, HTML5)
Click here to listen with your own player(launches your MP3 player)

RPLL 220900Z 11009KT 070V140 9999 FEW030 30/18 Q1014 NOSIG RMK A2994

RPLL Flight Activity (Flightaware)

Listeners: 7 out of 899 total

Manila Tower: 118.100

SABE Gnd/Twr/App
Buenos Aires, Argentina

Feed Status: DOWN
Offline since: 2020-01-22 09:45:05 UTC

SABE 220900Z 09011KT 9999 SCT018 BKN023 25/21 Q1012 NOSIG

Aerolineas Argentinas Ops: 131.950
Aerolineas Argentinas Ops: 131.100
Aeroparque Ground: 121.900
Aeroparque Tower: 120.600
Aeroparque Tower: 118.250
Aeroparque Tower: 128.850
Aeroparque Tower: 118.850
Aeroparque Tower: 129.300
Air to Air: 123.450
Baires: 125.900
Baires: 125.300
Baires: 124.900
Cordoba South: 126.500
Ezeiza Ground: 121.750
Ezeiza North: 133.350
Ezeiza North: 124.500
Ezeiza North: 125.600
Ezeiza North: 135.500
Ezeiza South: 124.100
Ezeiza South: 125.200
LAN Ops: 131.700

SANT Tower/Apps (Archives)
Tucuman, Argentina

Feed Status: UP
Listen in your browser - HTML5 player(in browser, HTML5)
Click here to listen with your own player(launches your MP3 player)

SANT 220900Z 23003KT 9999 SCT007 BKN020 OVC050 24/22 Q1013

SANT Flight Activity (Flightaware)

Listeners: 0 out of 899 total

Aeroclub Tucuman: 119.000
Aerolineas Argentinas SOC Salta: 131.100
Aerolineas Argentinas SOC Tucuman: 131.950
Air To Air: 123.450
Andes Lineas Aereas: 132.000
Campo Arenal: 130.950
Catamarca Tower: 118.150
Copa Airlines: 129.400
Cordoba Centro Norte: 125.100
Cordoba Centro Sur: 126.500
Emergency/Guard: 121.500
Lan Argentina Operaciones: 131.700
Lan Peru: 131.300
Salta Tower: 128.850
Santiago del Estero Tower: 118.700
Taca Peru: 126.450
Termas de Rio Hondo: 118.200
Termas de Rio Hondo: 119.850
Tucuman Ground: 121.750
Tucuman Ground: 121.750
Tucuman Tower: 118.350
Tucuman Tower: 119.500

SASA Twr/App (Archives)
Salta, Argentina

Feed Status: UP
Listen in your browser - HTML5 player(in browser, HTML5)
Click here to listen with your own player(launches your MP3 player)

SASA 220900Z 11003KT CAVOK 20/18 Q1016

SASA Flight Activity (Flightaware)

Listeners: 1 out of 899 total

Cordoba Approach (North): 125.100
Salta Approach: 124.600
Salta Tower: 126.000
Salta Tower/Ground: 128.850

SAZN Tower (Archives)
Neuquen, Argentina

Feed Status: UP
Listen in your browser - HTML5 player(in browser, HTML5)
Click here to listen with your own player(launches your MP3 player)

SAZN 220900Z 00000KT CAVOK 19/18 Q1014

SAZN Flight Activity (Flightaware)

Listeners: 0 out of 899 total

Neuquen Tower/Approach: 119.800

SAZS Gnd/Twr/App (Archives)
Rio Negro, Argentina

Feed Status: UP
Listen in your browser - HTML5 player(in browser, HTML5)
Click here to listen with your own player(launches your MP3 player)

SAZS 220900Z 17004KT CAVOK 13/05 Q1016

SAZS Flight Activity (Flightaware)

Listeners: 0 out of 899 total

Bariloche Ground: 118.650
Bariloche Twr/App: 119.100
Chapelco Tower/Approach: 119.600
Comodoro Rivadavia Control: 125.500
Emergency: 121.500
Ezeiza South: 125.200
Puerto Mont Radar North: 121.300
Puerto Mont Radar South: 128.300
Puerto Mont Radio: 126.900

SBBI Gnd/Twr
Curitiba, Brazil

Feed Status: DOWN
Offline since: 2019-11-23 18:42:22 UTC

SBBI 220100Z 08007KT 9999 OVC007 18/16 Q1015

Bacacheri Ground: 121.800
Bacacheri Tower: 118.900

SBBV Approach (Archives)
Boa Vista, Brazil

Feed Status: UP
Listen in your browser - HTML5 player(in browser, HTML5)
Click here to listen with your own player(launches your MP3 player)

SBBV 220900Z 09006KT CAVOK 25/21 Q1009

SBBV Flight Activity (Flightaware)

Listeners: 4 out of 899 total

Boa Vista Approach: 120.100

SBBV Tower (Archives)
Boa Vista, Brazil

Feed Status: UP
Listen in your browser - HTML5 player(in browser, HTML5)
Click here to listen with your own player(launches your MP3 player)

SBBV 220900Z 09006KT CAVOK 25/21 Q1009

SBBV Flight Activity (Flightaware)

Listeners: 1 out of 899 total

Boa Vista Tower: 118.100

SBCT Gnd/Twr/App (Archives)
Curitiba, Brazil

Feed Status: UP
Listen in your browser - HTML5 player(in browser, HTML5)
Click here to listen with your own player(launches your MP3 player)

SBCT 220900Z 13003KT 9999 BKN020 BKN100 16/16 Q1013

SBCT Flight Activity (Flightaware)

Listeners: 2 out of 899 total

Curitiba Approach: 119.950
Curitiba Ground: 121.900
Curitiba Tower: 118.150
Curitiba Tower: 118.900

SBDN Twr/App (Archives)
Presidente Prudente/Sao Paulo, Brazil

Feed Status: UP
Listen in your browser - HTML5 player(in browser, HTML5)
Click here to listen with your own player(launches your MP3 player)

SBDN 220900Z 10008KT CAVOK 21/16 Q1007

SBDN Flight Activity (Flightaware)

Listeners: 5 out of 899 total

Air-to-Air: 123.450
Curitiba Sector 13: 133.595
Prudente Approach: 118.450
Prudente Tower: 125.450

SBEG Tower/App (Archives)
Manaus, Brazil

Feed Status: UP
Listen in your browser - HTML5 player(in browser, HTML5)
Click here to listen with your own player(launches your MP3 player)

SBEG 220900Z 06004KT CAVOK 25/24 Q1009

SBEG Flight Activity (Flightaware)

Listeners: 1 out of 899 total

Emergency/Guard: 121.500
Manaus Approach : 119.250
Manaus Approach: 120.400
Manaus Approach: 119.700
Manaus Tower: 118.300

SBFI Twr/App/Ctr/Misc (Archives)
Foz do Iguacu, Brazil

Feed Status: UP
Listen in your browser - HTML5 player(in browser, HTML5)
Click here to listen with your own player(launches your MP3 player)

SBFI 220900Z 06002KT 9999 FEW030 OVC080 22/22 Q1005

SBFI Flight Activity (Flightaware)

Listeners: 3 out of 899 total

Asuncion Center (Paraguay): 126.900
Asuncion Center (Paraguay): 128.400
Curitiba Center: 127.200
Curitiba Center: 125.800
Emergency/Guard: 121.500
Foz do Iguacu Approach/Departure: 120.300
Foz do Iguacu Approach/Departure: 119.150
Foz do Iguacu Tower: 118.800
Guarani Approach (Paraguay): 119.300
Puerto Iguazu - Cataratas Tower (Argentina) : 120.700
Resistencia Center (Argentina): 124.300
UNICOM: 123.450

SBFZ ACC/Misc (Archives)
Fortaleza, Brazil

Feed Status: UP
Listen in your browser - HTML5 player(in browser, HTML5)
Click here to listen with your own player(launches your MP3 player)

SBFZ 220900Z 36003KT 330V040 9999 FEW023 28/23 Q1009

SBFZ Flight Activity (Flightaware)

Listeners: 0 out of 899 total

:
Ait to Air: 123.450
SBAC: 131.250
SBJE: 131.050
SBJU: 131.750
SBMS: 125.800
SBPB: 126.600
SBRF ACC: 133.500
SBRF ACC: 135.250
SBRF ACC: 126.350
SBRF ACC: 125.150

SBFZ Twr/App/Center (Archives)
Fortaleza, Brazil

Feed Status: UP
Listen in your browser - HTML5 player(in browser, HTML5)
Click here to listen with your own player(launches your MP3 player)

SBFZ 220900Z 36003KT 330V040 9999 FEW023 28/23 Q1009

SBFZ Flight Activity (Flightaware)

Listeners: 7 out of 899 total

ACC-RE (Fortaleza Sector): 125.150
ACC-RE (Fortaleza Sector): 126.350
ACC-RE (Fortaleza Sector): 135.250
Fortaleza Approach: 133.000
Fortaleza Tower: 129.000

SBGO Gnd/Twr/App (Archives)
Goiania, Brazil

Feed Status: UP
Listen in your browser - HTML5 player(in browser, HTML5)
Click here to listen with your own player(launches your MP3 player)

SBGO 220900Z 32004KT 290V350 9999 BKN011 SCT100 22/21 Q1011

SBGO Flight Activity (Flightaware)

Listeners: 1 out of 899 total

Anapolis Approach: 119.150
Anapolis Approach: 120.550
Anapolis Approach: 133.000
Anapolis Approach: 129.450
Emergency/Guard: 121.500
Goiania Ground: 121.700
Goiania Tower: 118.700
Goiania Tower: 121.050

SBJP Twr/Control/Airlines
Joao Pessoa, Brazil

Feed Status: DOWN
Offline since: 2020-01-21 23:43:23 UTC

SBJP 220900Z 33003KT 9999 FEW020 25/25 Q1011

AZUL: 130.900
GOL: 131.225
Joao Pessoa Tower: 118.300
Recife Control: 119.500
TAM: 130.500

SBJU Tower/Center (Archives)
Juazeiro do Norte, Brazil

Feed Status: UP
Listen in your browser - HTML5 player(in browser, HTML5)
Click here to listen with your own player(launches your MP3 player)

SBJU 220900Z 00000KT 9999 SCT010 OVC017 25/21 Q1014

SBJU Flight Activity (Flightaware)

Listeners: 1 out of 899 total

Pilot-to-Pilot: 123.450
Radio Juazeiro: 131.750
Recife Center: 135.250
Recife Center: 125.150

SBKP Approach (Archives)
Campinas, Brazil

Feed Status: UP
Listen in your browser - HTML5 player(in browser, HTML5)
Click here to listen with your own player(launches your MP3 player)

SBKP 220900Z 12010KT CAVOK 19/15 Q1010

SBKP Flight Activity (Flightaware)

Listeners: 0 out of 899 total

Campinas Approach: 132.100
Campinas Approach: 135.750

SBKP Tower #1 (Archives)
Campinas, Brazil

Feed Status: UP
Listen in your browser - HTML5 player(in browser, HTML5)
Click here to listen with your own player(launches your MP3 player)

SBKP 220900Z 12010KT CAVOK 19/15 Q1010

SBKP Flight Activity (Flightaware)

Listeners: 4 out of 899 total

Campinas Tower: 118.250

SBKP Tower #2 (Archives)
Campinas, Brazil

Feed Status: UP
Listen in your browser - HTML5 player(in browser, HTML5)
Click here to listen with your own player(launches your MP3 player)

SBKP 220900Z 12010KT CAVOK 19/15 Q1010

SBKP Flight Activity (Flightaware)

Listeners: 1 out of 899 total

Campinas Tower: 118.250

SBLO Gnd/Twr/App (Archives)
Londrina, Brazil

Feed Status: UP
Listen in your browser - HTML5 player(in browser, HTML5)
Click here to listen with your own player(launches your MP3 player)

SBLO 220900Z 11006KT CAVOK 20/17 Q1009

SBLO Flight Activity (Flightaware)

Listeners: 0 out of 899 total

Londrina Approach: 129.700
Londrina Ground: 119.550
Londrina Tower: 118.400

SBMG Twr/App/Misc (Archives)
Maringa, Brazil

Feed Status: UP
Listen in your browser - HTML5 player(in browser, HTML5)
Click here to listen with your own player(launches your MP3 player)

SBMG 220900Z 09007KT CAVOK 20/16 Q1008

SBMG Flight Activity (Flightaware)

Listeners: 2 out of 899 total

Air to Air: 123.450
Londrina Approach: 129.700
Maringa Tower: 118.750

SBMK RDO/Center (Archives)
Montes Claros, Brazil

Feed Status: UP
Listen in your browser - HTML5 player(in browser, HTML5)
Click here to listen with your own player(launches your MP3 player)

SBMK Flight Activity (Flightaware)

Listeners: 2 out of 899 total

Brasilia Center (Sector 15): 127.300
Montes Claros RDO: 131.700

SBMQ Tower/App/Center (Archives)
Macapa, Brazil

Feed Status: UP
Listen in your browser - HTML5 player(in browser, HTML5)
Click here to listen with your own player(launches your MP3 player)

SBMQ 220900Z 34004KT 9999 SCT018 BKN080 25/25 Q1009

SBMQ Flight Activity (Flightaware)

Listeners: 1 out of 899 total

Amazonico Center: 123.950
Amazonico Center: 128.000
Macapa Approach: 119.000
Macapa Tower: 118.000

SBNF Tower (Archives)
Navegantes, Brazil

Feed Status: UP
Listen in your browser - HTML5 player(in browser, HTML5)
Click here to listen with your own player(launches your MP3 player)

SBNF 220910Z 28005KT 9999 SCT015 22/20 Q1010

SBNF Flight Activity (Flightaware)

Listeners: 0 out of 899 total

Navegantes Tower: 118.200

SBPL RDO (Archives)
Petrolina, Brazil

Feed Status: UP
Listen in your browser - HTML5 player(in browser, HTML5)
Click here to listen with your own player(launches your MP3 player)

SBPL 220918Z 11012KT 5000 -TSRA BKN023 FEW030CB OVC070 23/22 Q1012

SBPL Flight Activity (Flightaware)

Listeners: 2 out of 899 total

Petrolina RDO: 125.700

SBRF App 129.60 (Archives)
Recife, Brazil

Feed Status: UP
Listen in your browser - HTML5 player(in browser, HTML5)
Click here to listen with your own player(launches your MP3 player)

SBRF 220900Z 32004KT 9999 BKN018 26/24 Q1010

SBRF Flight Activity (Flightaware)

Listeners: 1 out of 899 total

Recife Approach: 129.600

SBRF Gol Ops (Archives)
Recife, Brazil

Feed Status: UP
Listen in your browser - HTML5 player(in browser, HTML5)
Click here to listen with your own player(launches your MP3 player)

SBRF 220900Z 32004KT 9999 BKN018 26/24 Q1010

SBRF Flight Activity (Flightaware)

Listeners: 0 out of 899 total

Gol Ops: 131.225

SBRF Ground (Archives)
Recife, Brazil

Feed Status: UP
Listen in your browser - HTML5 player(in browser, HTML5)
Click here to listen with your own player(launches your MP3 player)

SBRF 220900Z 32004KT 9999 BKN018 26/24 Q1010

SBRF Flight Activity (Flightaware)

Listeners: 1 out of 899 total

Recife Ground: 121.850

SBRF LATAM Ops (Archives)
Recife, Brazil

Feed Status: UP
Listen in your browser - HTML5 player(in browser, HTML5)
Click here to listen with your own player(launches your MP3 player)

SBRF 220900Z 32004KT 9999 BKN018 26/24 Q1010

SBRF Flight Activity (Flightaware)

Listeners: 0 out of 899 total

LATAM Ops: 130.500

SBRF Recife ACC (Archives)
Recife, Brazil

Feed Status: UP
Listen in your browser - HTML5 player(in browser, HTML5)
Click here to listen with your own player(launches your MP3 player)

SBRF 220900Z 32004KT 9999 BKN018 26/24 Q1010

SBRF Flight Activity (Flightaware)

Listeners: 1 out of 899 total

Recife Center: 128.700
Recife Center: 133.650
Recife Center: 134.800

SBRF Tower (Archives)
Recife, Brazil

Feed Status: UP
Listen in your browser - HTML5 player(in browser, HTML5)
Click here to listen with your own player(launches your MP3 player)

SBRF 220900Z 32004KT 9999 BKN018 26/24 Q1010

SBRF Flight Activity (Flightaware)

Listeners: 1 out of 899 total

Recife Tower: 125.250
Recife Tower: 118.350
Recife Tower: 118.900

SBRP Tower/Center (Archives)
Ribeirao Preto, Brazil

Feed Status: UP
Listen in your browser - HTML5 player(in browser, HTML5)
Click here to listen with your own player(launches your MP3 player)

SBRP 220900Z 11005KT 9999 FEW030 21/20 Q1009

SBRP Flight Activity (Flightaware)

Listeners: 3 out of 899 total

Leite Lopes Tower: 118.000
Pirassununga Center (North): 119.550

SBSN Twr/App/ACC (Archives)
Santarem, Brazil

Feed Status: UP
Listen in your browser - HTML5 player(in browser, HTML5)
Click here to listen with your own player(launches your MP3 player)

SBSN 220900Z 15003KT 9999 SCT010 SCT100 25/25 Q1009

SBSN Flight Activity (Flightaware)

Listeners: 0 out of 899 total

Brasilia Center/ACC: 123.650
Brasilia Center/ACC: 125.050
Santarem Approach: 119.300
Santarem Tower: 118.100

SBSR AFIS/App/Center (Archives)
Sao Jose do Rio Preto, Brazil

Feed Status: UP
Listen in your browser - HTML5 player(in browser, HTML5)
Click here to listen with your own player(launches your MP3 player)

SBSR 220900Z 09003KT CAVOK 22/20 Q1008

SBSR Flight Activity (Flightaware)

Listeners: 1 out of 899 total

Academia Approach (North Sector): 119.750
Academia Approach (North Sector): 120.400
Brasilia Center: 135.150
Rio Preto Radio AFIS: 130.850

SBTE Twr/App (Archives)
Teresina, Brazil

Feed Status: UP
Listen in your browser - HTML5 player(in browser, HTML5)
Click here to listen with your own player(launches your MP3 player)

SBTE 220900Z 32002KT 9999 FEW007 26/24 Q1009

SBTE Flight Activity (Flightaware)

Listeners: 1 out of 899 total

Teresina Approach: 119.600
Teresina Tower: 118.800

SBRE Recife ACC (Archives)
Paulo Afonso, Brazil

Feed Status: UP
Listen in your browser - HTML5 player(in browser, HTML5)
Click here to listen with your own player(launches your MP3 player)

SBRE Flight Activity (Flightaware)

Listeners: 0 out of 899 total

Recife Center (ACC): 125.400
Recife Center (ACC): 125.450
Recife Center (ACC): 126.850
Recife Center (ACC): 133.650
Recife Center (ACC): 134.500
Recife Center (ACC): 134.900

SBUF AFIS/Center (Archives)
Paulo Afonso, Brazil

Feed Status: UP
Listen in your browser - HTML5 player(in browser, HTML5)
Click here to listen with your own player(launches your MP3 player)

SBUF 211900Z 01008KT 9999 FEW023 37/15 Q1006

SBUF Flight Activity (Flightaware)

Listeners: 0 out of 899 total

Paulo Afonso Radio: 125.850
Recife Center: 133.650
Recife Center: 134.500
Recife Center: 125.450

SBQV AFIS (Archives)
Vitoria da Conquista, Brazil

Feed Status: UP
Listen in your browser - HTML5 player(in browser, HTML5)
Click here to listen with your own player(launches your MP3 player)

SBQV Flight Activity (Flightaware)

Listeners: 0 out of 899 total

Conquista AFIS: 130.850
Despacho Azul: 131.875
Despacho Passaredo: 132.000

SBVT Gnd/Twr/App (Archives)
Vitoria, Brazil

Feed Status: UP
Listen in your browser - HTML5 player(in browser, HTML5)
Click here to listen with your own player(launches your MP3 player)

SBVT 220900Z 32002KT 9999 FEW009 SCT015 BKN020 22/22 Q1008

SBVT Flight Activity (Flightaware)

Listeners: 0 out of 899 total

SBVT Approach: 119.850
SBVT Ground: 121.950
SBVT Tower: 118.100

SCEL Gnd/Twr/Radar (Archives)
Santiago, Chile

Feed Status: UP
Listen in your browser - HTML5 player(in browser, HTML5)
Click here to listen with your own player(launches your MP3 player)

SCEL 220900Z 17005KT CAVOK 15/11 Q1011 NOSIG

SCEL Flight Activity (Flightaware)

Listeners: 2 out of 899 total

Santiago Authorizations: 121.700
Santiago Control (Lat 3323S North): 128.100
Santiago Control (Lat 3323S South): 126.300
Santiago Ground (Primary): 122.200
Santiago Ground (Secondary): 122.500
Santiago Radar: 135.400
Santiago Radar (Arrival, Primary): 129.700
Santiago Radar (Arrival, Secondary): 119.700
Santiago Radar (Arrival, Secondary): 123.800
Santiago Radar (Departure, Primary): 121.100
Santiago Radar (Departure, Secondary): 123.800
Santiago Radar (Information, Primary): 122.400
Santiago Radar (Information, Secondary): 120.800
Santiago Radar (Information, Secondary): 123.800
Santiago Tower (Primary): 118.100
Santiago Tower (Secondary): 118.350
SCTB Tobalaba Tower: 118.700

SEGU App/Dep/Info (Archives)
Guayaquil, Ecuador

Feed Status: UP
Listen in your browser - HTML5 player(in browser, HTML5)
Click here to listen with your own player(launches your MP3 player)

SEGU 220900Z 23004KT 8000 -RA FEW010 BKN020 OVC090 24/22 Q1012 NOSIG RMK A2989

SEGU Flight Activity (Flightaware)

Listeners: 0 out of 899 total

Guayaquil Approach: 120.700
Guayaquil Approach (Secondary): 119.300
Guayaquil Info: 126.900

SEGU Gnd/Twr (Archives)
Guayaquil, Ecuador

Feed Status: UP
Listen in your browser - HTML5 player(in browser, HTML5)
Click here to listen with your own player(launches your MP3 player)

SEGU 220900Z 23004KT 8000 -RA FEW010 BKN020 OVC090 24/22 Q1012 NOSIG RMK A2989

SEGU Flight Activity (Flightaware)

Listeners: 1 out of 899 total

Guayaquil Ground: 121.900
Guayaquil Ground (Secondary): 121.700
Guayaquil Tower: 118.300
Guayaquil Tower (Secondary): 118.900

SEGU Gnd/Twr/App (Archives)
Guayaquil, Ecuador

Feed Status: UP
Listen in your browser - HTML5 player(in browser, HTML5)
Click here to listen with your own player(launches your MP3 player)

SEGU 220900Z 23004KT 8000 -RA FEW010 BKN020 OVC090 24/22 Q1012 NOSIG RMK A2989

SEGU Flight Activity (Flightaware)

Listeners: 1 out of 899 total

Guayaquil Approach: 120.700
Guayaquil Ground: 121.900
Guayaquil Tower: 118.300

SEGU Guayaquil Center (Archives)
Guayaquil, Ecuador

Feed Status: UP
Listen in your browser - HTML5 player(in browser, HTML5)
Click here to listen with your own player(launches your MP3 player)

SEGU 220900Z 23004KT 8000 -RA FEW010 BKN020 OVC090 24/22 Q1012 NOSIG RMK A2989

SEGU Flight Activity (Flightaware)

Listeners: 0 out of 899 total

Guayaquil Center: 127.950
Guayaquil Center: 128.300
Guayaquil Center (Secondary): 128.000
Guayaquil Center (Secondary): 123.900

SEQM ATIS (Archives)
Quito, Ecuador

Feed Status: UP
Listen in your browser - HTML5 player(in browser, HTML5)
Click here to listen with your own player(launches your MP3 player)

SEQM 220900Z 36002KT 8000 2000S -DZ BCFG SCT003 BKN033 13/12 Q1026 NOSIG RMK A3032

SEQM Flight Activity (Flightaware)

Listeners: 0 out of 899 total

Quito ATIS: 118.700

SEQM Gnd/Twr/App (Archives)
Quito, Ecuador

Feed Status: UP
Listen in your browser - HTML5 player(in browser, HTML5)
Click here to listen with your own player(launches your MP3 player)

SEQM 220900Z 36002KT 8000 2000S -DZ BCFG SCT003 BKN033 13/12 Q1026 NOSIG RMK A3032

SEQM Flight Activity (Flightaware)

Listeners: 0 out of 899 total

Quito Approach/Departure: 119.700
Quito Approach/Departure: 121.200
Quito Ground: 121.900
Quito Tower: 118.100
Quito Tower (Secondary): 118.350

SEQM Tower (Archives)
Quito, Ecuador

Feed Status: UP
Listen in your browser - HTML5 player(in browser, HTML5)
Click here to listen with your own player(launches your MP3 player)

SEQM 220900Z 36002KT 8000 2000S -DZ BCFG SCT003 BKN033 13/12 Q1026 NOSIG RMK A3032

SEQM Flight Activity (Flightaware)

Listeners: 0 out of 899 total

Quito Tower: 118.100
Quito Tower (Secondary): 118.350

SJOY CTAF (Archives)
Palmeira, Brazil

Feed Status: UP
Listen in your browser - HTML5 player(in browser, HTML5)
Click here to listen with your own player(launches your MP3 player)

SJOY Flight Activity (Flightaware)

Listeners: 0 out of 899 total


SKBO Del/Gnd/Twr/App
Bogota, Colombia

Feed Status: DOWN
Offline since: 2020-01-20 02:34:40 UTC

SKBO 220900Z VRB02KT 9999 FEW010 10/09 A3028 NOSIG

Bogota Approach: 119.500
Bogota Clearance Delivery: 121.600
Bogota Departure (North): 121.300
Bogota Departure (South): 119.650
Bogota Ground (North): 121.800
Bogota Ground (South): 122.750
Bogota Information: 126.900
Bogota Tower (North): 118.100
Bogota Tower (South): 118.250
Guaymaral Ground: 121.700
Guaymaral Tower: 118.800

SKBQ Approach
Barranquilla, Colombia

Feed Status: DOWN
Offline since: 2020-01-21 23:50:05 UTC

SKBQ 220900Z 32005KT 260V040 9000 BKN008 24/23 A2982 NOSIG RMK HZ

Barranquilla Approach/Departure: 119.100

HF CWP/SEA (Archives)
Pyeongtaek, Korea, Republic of

Feed Status: UP
Listen in your browser - HTML5 player(in browser, HTML5)
Click here to listen with your own player(launches your MP3 player)


Listeners: 7 out of 899 total

CWP 1 (Tokyo): 11.384
CWP 1/2 (Tokyo): 13.300
CWP-1/2 (San Francisco): 17.904
CWP-1/2 (Tokyo/Manila): 8.903
CWP-1/2 (Tokyo/San Francisco): 21.985
SEA-2 (Manila): 8.942

SPJC Approach (Archives)
Lima, Peru

Feed Status: UP
Listen in your browser - HTML5 player(in browser, HTML5)
Click here to listen with your own player(launches your MP3 player)

SPJC 220900Z 20002KT 9999 FEW060 BKN130 22/20 Q1011 NOSIG RMK PP000

SPJC Flight Activity (Flightaware)

Listeners: 0 out of 899 total

Lima Approach: 119.700

SPJC Ground (Archives)
Lima, Peru

Feed Status: UP
Listen in your browser - HTML5 player(in browser, HTML5)
Click here to listen with your own player(launches your MP3 player)

SPJC 220900Z 20002KT 9999 FEW060 BKN130 22/20 Q1011 NOSIG RMK PP000

SPJC Flight Activity (Flightaware)

Listeners: 1 out of 899 total

Lima Ground: 121.900

SPJC Tower (Archives)
Lima, Peru

Feed Status: UP
Listen in your browser - HTML5 player(in browser, HTML5)
Click here to listen with your own player(launches your MP3 player)

SPJC 220900Z 20002KT 9999 FEW060 BKN130 22/20 Q1011 NOSIG RMK PP000

SPJC Flight Activity (Flightaware)

Listeners: 0 out of 899 total

Lima Tower: 118.100

SPST Tower (Archives)
Tarapoto, Peru

Feed Status: UP
Listen in your browser - HTML5 player(in browser, HTML5)
Click here to listen with your own player(launches your MP3 player)

SPST 220300Z 16003KT 9999 FEW020 26/23 Q1009 RMK BIRD HAZARD RWY 17/35 PP000

SPST Flight Activity (Flightaware)

Listeners: 0 out of 899 total

Tarapoto Tower: 118.400

SSBL Air to Air (Archives)
Blumenau, Brazil

Feed Status: UP
Listen in your browser - HTML5 player(in browser, HTML5)
Click here to listen with your own player(launches your MP3 player)

SSBL Flight Activity (Flightaware)

Listeners: 0 out of 899 total

Air to Air: 123.450

SULS Tower (Archives)
Punta del Este, Uruguay

Feed Status: UP
Listen in your browser - HTML5 player(in browser, HTML5)
Click here to listen with your own player(launches your MP3 player)

SULS 220900Z 08008KT 9999 BKN010 OVC070 22/21 Q1014

SULS Flight Activity (Flightaware)

Listeners: 0 out of 899 total

Air to Air: 123.450
SULS A/G: 122.100
SULS Tower: 118.300

SUMU Twr/App (Archives)
Montevideo, Uruguay

Feed Status: UP
Listen in your browser - HTML5 player(in browser, HTML5)
Click here to listen with your own player(launches your MP3 player)

SUMU 220900Z 12011KT 9999 BKN023 BKN200 22/20 Q1013 NOSIG

SUMU Flight Activity (Flightaware)

Listeners: 0 out of 899 total

SUMU Approach: 119.200
SUMU Tower: 118.100

SUMU Twr/App/Radar (Archives)
Montevideo, Uruguay

Feed Status: UP
Listen in your browser - HTML5 player(in browser, HTML5)
Click here to listen with your own player(launches your MP3 player)

SUMU 220900Z 12011KT 9999 BKN023 BKN200 22/20 Q1013 NOSIG

SUMU Flight Activity (Flightaware)

Listeners: 0 out of 899 total

SUMU Approach: 120.200
SUMU Approach: 119.200
SUMU Info: 121.800
SUMU Informacion: 121.800
SUMU Radar Control: 128.500
SUMU Radar Control: 126.300
SUMU Radar Control: 128.000
SUMU Tower: 118.100

SUPE CTAF (Archives)
Punta del Este, Uruguay

Feed Status: UP
Listen in your browser - HTML5 player(in browser, HTML5)
Click here to listen with your own player(launches your MP3 player)

SULS 220900Z 08008KT 9999 BKN010 OVC070 22/21 Q1014

SULS Flight Activity (Flightaware)

Listeners: 0 out of 899 total

SUPE CTAF: 118.700

SUPU/SUPC Misc (Archives)
Paysandu, Uruguay

Feed Status: UP
Listen in your browser - HTML5 player(in browser, HTML5)
Click here to listen with your own player(launches your MP3 player)

SUPU 040900Z 10005KT 9999 FEW020TCU BKN070 FEW200 23/23 Q1010

SUPU Flight Activity (Flightaware)

Listeners: 0 out of 899 total

Chalkling Tower: 118.700
Paysandu Tower: 118.200

SVPR Twr/App/FIR (Archives)
Ciudad Guayana, Venezuela

Feed Status: UP
Listen in your browser - HTML5 player(in browser, HTML5)
Click here to listen with your own player(launches your MP3 player)

SVPR Flight Activity (Flightaware)

Listeners: 0 out of 899 total

Emergency/Guard: 121.500
FIR 6: 126.000
Guayana Approach (Primary): 119.500
Guayana Approach (Secondary): 120.300
Guayana Tower (Primary): 118.000
Guayana Tower (Secondary): 123.500
SMC: 121.900

SVVA Gnd/Twr/App (Archives)
Valencia, Venezuela

Feed Status: UP
Listen in your browser - HTML5 player(in browser, HTML5)
Click here to listen with your own player(launches your MP3 player)

SVVA 212200Z /////KT 9999 BKN016 28/19 Q1013

SVVA Flight Activity (Flightaware)

Listeners: 0 out of 899 total

Libertador Approach: 119.300
Valencia Ground: 121.900
Valencia Tower: 121.200

TBPB Gnd/Twr/Radar/Center
Bridgetown, Barbados

Feed Status: DOWN
Offline since: 2020-01-22 00:32:23 UTC

TBPB 220900Z 11015KT 8000 SHRA SCT016 BKN036 24/22 Q1011 NOSIG

Adams Approach/Departure: 129.350
Adams Approach/Departure: 128.850
Adams Ground: 121.900
Adams Tower: 118.700
Piarco Center: 123.700

TNCA Twr/Apron/FIR (Archives)
Oranjestad, Aruba

Feed Status: UP
Listen in your browser - HTML5 player(in browser, HTML5)
Click here to listen with your own player(launches your MP3 player)

TNCA 220500Z 10010KT 9999 FEW017 26/22 Q1011 NOSIG

TNCA Flight Activity (Flightaware)

Listeners: 0 out of 899 total

Beatrix Ground (Apron): 121.600
Beatrix Tower: 120.900
Beatrix Tower (secondary): 118.000
Curacao Control: 127.100
Emergency/Guard: 121.500
Search/Rescue: 123.100

TNCB Tower (Archives)
Kralendijk, Bonaire

Feed Status: UP
Listen in your browser - HTML5 player(in browser, HTML5)
Click here to listen with your own player(launches your MP3 player)

TNCB 220855Z AUTO 09009KT 9999 FEW016/// 26/23 Q1010

TNCB Flight Activity (Flightaware)

Listeners: 0 out of 899 total

Bonaire Tower: 118.700

TNCC Curacao Control (Archives)
Willemstad, Curacao

Feed Status: UP
Listen in your browser - HTML5 player(in browser, HTML5)
Click here to listen with your own player(launches your MP3 player)

TNCC 220900Z 11007KT 9999 FEW016 26/22 Q1010 NOSIG

TNCC Flight Activity (Flightaware)

Listeners: 0 out of 899 total

Curacao Control: 124.100
Curacao Control: 127.100

TNCC Tower/Radar (Archives)
Willemstad, Curacao

Feed Status: UP
Listen in your browser - HTML5 player(in browser, HTML5)
Click here to listen with your own player(launches your MP3 player)

TNCC 220900Z 11007KT 9999 FEW016 26/22 Q1010 NOSIG

TNCC Flight Activity (Flightaware)

Listeners: 0 out of 899 total

Hato Radar: 119.600
Hato Tower: 118.300

TNCC Twr/Radar/Control (Archives)
Willemstad, Curacao

Feed Status: UP
Listen in your browser - HTML5 player(in browser, HTML5)
Click here to listen with your own player(launches your MP3 player)

TNCC 220900Z 11007KT 9999 FEW016 26/22 Q1010 NOSIG

TNCC Flight Activity (Flightaware)

Listeners: 0 out of 899 total

Curacao Control: 127.100
Hato Radar: 119.600
Hato Tower: 118.300

TNCE Info (Archives)
Oranjestad, Sint Eustatius

Feed Status: UP
Listen in your browser - HTML5 player(in browser, HTML5)
Click here to listen with your own player(launches your MP3 player)

TNCE 220855Z AUTO /////KT //// // ///////// 24/21 Q//// RE//

TNCE Flight Activity (Flightaware)

Listeners: 0 out of 899 total

Statia Info: 118.100

TTCP Gnd/Twr/App (Archives)
Scarborough, Trinidad and Tobago

Feed Status: UP
Listen in your browser - HTML5 player(in browser, HTML5)
Click here to listen with your own player(launches your MP3 player)

TTCP 220900Z 07004KT 9999 FEW015 23/21 Q1010 NOSIG

TTCP Flight Activity (Flightaware)

Listeners: 0 out of 899 total

Piarco Approach: 119.000
Robinson Ground: 121.700
Robinson Tower: 118.400

TTPP Apron/Gnd/Twr (Archives)
Port of Spain, Trinidad and Tobago

Feed Status: UP
Listen in your browser - HTML5 player(in browser, HTML5)
Click here to listen with your own player(launches your MP3 player)

TTPP 220900Z 00000KT 9999 FEW016 21/20 Q1011 NOSIG

TTPP Flight Activity (Flightaware)

Listeners: 1 out of 899 total

Piarco Apron: 121.750
Piarco Ground: 121.900
Piarco Tower: 118.100

TTPP Piarco Approach (Archives)
Port of Spain, Trinidad and Tobago

Feed Status: UP
Listen in your browser - HTML5 player(in browser, HTML5)
Click here to listen with your own player(launches your MP3 player)

TTPP 220900Z 00000KT 9999 FEW016 21/20 Q1011 NOSIG

TTPP Flight Activity (Flightaware)

Listeners: 0 out of 899 total

Piarco Approach: 119.550
Piarco Approach: 119.000
Piarco Approach (backup): 124.000

TTPP Piarco Center (Archives)
Port of Spain, Trinidad and Tobago

Feed Status: UP
Listen in your browser - HTML5 player(in browser, HTML5)
Click here to listen with your own player(launches your MP3 player)

TTPP 220900Z 00000KT 9999 FEW016 21/20 Q1011 NOSIG

TTPP Flight Activity (Flightaware)

Listeners: 1 out of 899 total

Piarco Center: 123.700
Piarco Center (Oceanic): 126.500
Piarco Center (South Sector): 125.400
Piarco Center Oceanic (Backup): 133.100

TXKF Tower/Ground (Archives)
Hamilton, Bermuda

Feed Status: UP
Listen in your browser - HTML5 player(in browser, HTML5)
Click here to listen with your own player(launches your MP3 player)

TXKF 220855Z 04005KT 010V070 9999 SCT045 BKN160 OVC230 16/09 Q1015

TXKF Flight Activity (Flightaware)

Listeners: 0 out of 899 total

Bermuda CTAF: 122.800
Bermuda Ground/Clearance: 124.500
Bermuda Tower: 118.100

ZNY Bermuda Sector (Archives)
Hamilton, Bermuda

Feed Status: UP
Listen in your browser - HTML5 player(in browser, HTML5)
Click here to listen with your own player(launches your MP3 player)

TXKF 220855Z 04005KT 010V070 9999 SCT045 BKN160 OVC230 16/09 Q1015

TXKF Flight Activity (Flightaware)

Listeners: 1 out of 899 total

New York Approach (Bermuda Sector) : 119.100
New York Center (Bermuda Sector): 128.500

UAAA Approach (Archives)
Almaty, Kazakhstan

Feed Status: UP
Listen in your browser - HTML5 player(in browser, HTML5)
Click here to listen with your own player(launches your MP3 player)

UAAA 220900Z 36002MPS 3900 BR BKN100 M02/M06 Q1023 R88/3///50 NOSIG

UAAA Flight Activity (Flightaware)

Listeners: 0 out of 899 total

Almaty Approach: 124.800

UAAA Tower (Archives)
Almaty, Kazakhstan

Feed Status: UP
Listen in your browser - HTML5 player(in browser, HTML5)
Click here to listen with your own player(launches your MP3 player)

UAAA 220900Z 36002MPS 3900 BR BKN100 M02/M06 Q1023 R88/3///50 NOSIG

UAAA Flight Activity (Flightaware)

Listeners: 0 out of 899 total

Almaty Tower: 119.400

UAAA Tower/Approach (Archives)
Almaty, Kazakhstan

Feed Status: UP
Listen in your browser - HTML5 player(in browser, HTML5)
Click here to listen with your own player(launches your MP3 player)

UAAA 220900Z 36002MPS 3900 BR BKN100 M02/M06 Q1023 R88/3///50 NOSIG

UAAA Flight Activity (Flightaware)

Listeners: 0 out of 899 total

Almaty Approach: 124.800
Almaty Tower: 119.400

UKKK Gnd/Twr/ACC
Kyiv, Ukraine

Feed Status: DOWN
Offline since: 2020-01-22 09:33:23 UTC

UKKK 220900Z 28009MPS 9999 OVC011 02/M01 Q1012 R26/190056 TEMPO 30012G18MPS

Emergency/Guard: 121.500
Kyiv Radar ACC: 122.775
Kyiv Radar ACC: 124.675
Kyiv Radar ACC: 127.725
Kyiv Radar ACC: 128.175
Kyiv Radar ACC: 125.300
Kyiv Zhuliany Ground: 119.000
Kyiv Zhuliany Tower: 120.700

UMGG Control
Gomel, Belarus

Feed Status: DOWN
Offline since: 2019-12-11 18:02:40 UTC

UMGG 220900Z 26010G13MPS 5000 -SHRA BKN007 OVC015CB 02/01 Q1007 R28/290050 NOSIG

Minsk Control: 119.125
Minsk Control: 120.125
Minsk Control: 120.575

UNNT Gnd/Twr/App/Radar/Misc (Archives)
Novosibirsk, Russia

Feed Status: UP
Listen in your browser - HTML5 player(in browser, HTML5)
Click here to listen with your own player(launches your MP3 player)

UNNT 220900Z 14005MPS 6000 -SN OVC037 M12/M14 Q1016 R25/490150 R16/490150 NOSIG RMK QFE752/1003

UNNT Flight Activity (Flightaware)

Listeners: 10 out of 899 total

ACC_Novosibirsk-Control [5th military channel]: 128.500
ACC_Novosibirsk-Control [Southeast]: 126.100
ACC_Novosibirsk-Control [West]: 127.000
GPA_Kristallik [Severniy airfield]: 123.425
GPA_Sernisiy [Chkalovskiy airfield]: 124.750
GPA_Tomsk Information 1: 134.500
MIL_3 [3rd military channel]: 130.750
MIL_Larek [Shilovo facility]: 123.750
MIL_Maneken [Chkalovskiy airfield]: 123.550
MIL_Novosibirsk-1 [1st military channel]: 124.000
MIL_Noyabr' 31: 124.900
MIL_Trimaran: 124.500
SP_Air-to-Air: 123.450
SP_Air-to-Air 2: 123.400
SP_Common backup frequency: 129.000
SP_Emergency: 121.500
SP_Emergency 2: 123.100
SP_Flyoff: 124.375
SURF_Boarding: 163.425
SURF_Duty chart: 163.800
SURF_O&D Service: 163.325
SURF_Search & Rescue: 164.000
SURF_Security: 163.750
SURF_Tower surf: 163.650
SURF_Vehicles: 163.850
UNNT_Backup frequency: 127.100
UNNT_Novosibirsk-Approach: 127.500
UNNT_Novosibirsk-Ground: 121.700
UNNT_Novosibirsk-Radar: 122.000
UNNT_Novosibirsk-Tower: 118.500
UNNT_Novosibirsk-Transit: 131.600
UNNT_S7 FOCC: 131.925

UNOO Gnd/Tower/App (Archives)
Omsk, Russia

Feed Status: UP
Listen in your browser - HTML5 player(in browser, HTML5)
Click here to listen with your own player(launches your MP3 player)

UNOO 220900Z 20006MPS 9999 SCT040CB M06/M09 Q1006 R25/390035 NOSIG RMK QFE746

UNOO Flight Activity (Flightaware)

Listeners: 1 out of 899 total

Aerodrom Kalachevo: 123.300
Aerodrom Marianovka: 123.000
Emergency/Guard: 121.500
Novosibirsk Control (Sector 7): 132.500
Novosibirsk Control (Sector 8): 132.900
Omsk Approach (FL060-FL265): 131.200
Omsk Apron: 118.800
Omsk Start/Radar: 119.000
Omsk Taxiing: 121.700
Omsk Transit: 131.700
UNOS/OMSK-Severny: 124.000

UNTT Gnd/Info/Radar/Control (Archives)
Tomsk, Russia

Feed Status: UP
Listen in your browser - HTML5 player(in browser, HTML5)
Click here to listen with your own player(launches your MP3 player)

UNTT Flight Activity (Flightaware)

Listeners: 1 out of 899 total

Common Backup Frequency: 129.000
Emergency/Guard: 121.500
Novosibirsk Control (Sector 2): 126.100
Novosibirsk Control (Sector 3): 129.300
Novosibirsk Control (Sector 5): 132.300
Tomsk Ground: 118.800
Tomsk Information 1: 134.500
Tomsk Krug (Radar): 127.300
Tomsk Transit: 131.875
Troynik (Golovino): 122.400

URKK Gnd/Twr/App (Archives)
Krasnodar, Russia

Feed Status: UP
Listen in your browser - HTML5 player(in browser, HTML5)
Click here to listen with your own player(launches your MP3 player)

URKK 220900Z 23008MPS 9999 OVC025 07/03 Q1019 R23L/290060 TEMPO 23011G17MPS RMK QFE761

URKK Flight Activity (Flightaware)

Listeners: 7 out of 899 total

Krasnodar Approach: 129.600
Krasnodar Ground: 119.000
Krasnodar Radar: 121.300
Krasnodar Tower: 118.200

URMT Twr/App/Control (Archives)
Stavropol, Russia

Feed Status: UP
Listen in your browser - HTML5 player(in browser, HTML5)
Click here to listen with your own player(launches your MP3 player)

URMT 220900Z 29017G23MPS 9999 FEW040 05/M03 Q1014 R25/190060 NOSIG RMK QFE722

URMT Flight Activity (Flightaware)

Listeners: 0 out of 899 total

Stavropol Approach: 120.300
Stavropol Control: 118.250
Stavropol Tower: 120.900

URSS Gnd/Twr/App (Archives)
Sochi, Russia

Feed Status: UP
Listen in your browser - HTML5 player(in browser, HTML5)
Click here to listen with your own player(launches your MP3 player)

URSS 220900Z 13003MPS 090V160 9999 BKN025 OVC080 06/01 Q1028 R02/290260 R06/290260 NOSIG RMK R06/13004MPS MT OBSC QFE769

URSS Flight Activity (Flightaware)

Listeners: 4 out of 899 total

Sochi Approach: 118.300
Sochi Approach: 119.700
Sochi District (Small Aircraft): 118.500
Sochi Start: 121.200
Sochi Taxi: 119.000
Sochi Tower: 124.600

USDD Gnd/Twr/App/Control (Archives)
Salekhard, Russia

Feed Status: UP
Listen in your browser - HTML5 player(in browser, HTML5)
Click here to listen with your own player(launches your MP3 player)

USDD 150530Z 05007MPS 9999 -SHRA BKN009CB 09/07 Q1002 R04/290060 NOSIG RMK QFE746/0994

USDD Flight Activity (Flightaware)

Listeners: 0 out of 899 total

Salekhard Control: 132.300
Salekhard Ground: 118.800
Salekhard Info: 125.200
Salekhard Krug: 120.800
Salekhard Tower: 118.600
Salekhard Transit: 131.700

USTR Gnd/Twr/App (Archives)
Tyumen, Russia

Feed Status: UP
Listen in your browser - HTML5 player(in browser, HTML5)
Click here to listen with your own player(launches your MP3 player)

USTR 220900Z 17006G11MPS 9999 -SN DRSN OVC009 M07/M09 Q0993 R21/390050 R30/390050 TEMPO 3100 -SN BKN007 RMK QFE735/0980

USTR Flight Activity (Flightaware)

Listeners: 0 out of 899 total

Tyumen Approach: 126.100
Tyumen Control: 132.600
Tyumen Control: 133.600
Tyumen Info (Regional): 133.400
Tyumen Start: 118.200
Tyumen Transit: 131.800

USUU Twr/App/Control
Kurgan, Russia

Feed Status: DOWN
Offline since: 2019-09-20 03:54:23 UTC

Aerodromnaya 50: 164.100
Baggage Handling: 164.025
Kurgan Approach: 120.300
Kurgan Tower: 134.300
Kurgan/USUU Transit: 131.700
Kurtamysh: 122.450
Ural Control Sector 4: 119.700
USUL Tower: 129.600

UUDD Twr/App
Moscow, Russia

Feed Status: DOWN
Offline since: 2020-01-20 07:54:40 UTC

UUDD 220900Z 28007G14MPS 250V310 9999 SCT046 01/M04 Q0996 WS R32L R88/290042 NOSIG

Domodedovo Tower: 118.600
Moscow Approach: 125.300
Moscow Approach: 127.700

UUEE Twr/App/Radar (Archives)
Moscow, Russia

Feed Status: UP
Listen in your browser - HTML5 player(in browser, HTML5)
Click here to listen with your own player(launches your MP3 player)

UUEE 220900Z 26008MPS 9999 SCT019 01/M02 Q0995 R24L/290051 R24R/290051 NOSIG

UUEE Flight Activity (Flightaware)

Listeners: 1 out of 899 total

Sheremetyevo Radar: 118.100
Sheremetyevo Radar/Departure: 126.600
Sheremetyevo Tower: 131.500
Sheremetyevo Tower (Rwy 24R/06L): 118.700

VCBI Director
Colombo, Sri Lanka

Feed Status: DOWN
Offline since: 2020-01-19 13:33:40 UTC

VCBI 220910Z 05014KT 9999 FEW017 FEW019CB 32/24 Q1010 NOSIG RMK E/NE

Colombo Director: 132.400

VGHS Tower (Archives)
Dhaka, Bangladesh

Feed Status: UP
Listen in your browser - HTML5 player(in browser, HTML5)
Click here to listen with your own player(launches your MP3 player)

VGHS 220900Z 34004KT 3500 HZ NSC 24/10 Q1017 NOSIG

VGHS Flight Activity (Flightaware)

Listeners: 0 out of 899 total

Bangladesh Tower: 118.300

VHHH Approach 119.1 #1 (Archives)
Hong Kong, Hong Kong

Feed Status: UP
Listen in your browser - HTML5 player(in browser, HTML5)
Click here to listen with your own player(launches your MP3 player)

VHHH 220900Z 26009KT 9000 FEW030 23/17 Q1017 NOSIG

VHHH Flight Activity (Flightaware)

Listeners: 0 out of 899 total

Hong Kong Approach: 119.100

VHHH ATIS (Archives)
Hong Kong, Hong Kong

Feed Status: UP
Listen in your browser - HTML5 player(in browser, HTML5)
Click here to listen with your own player(launches your MP3 player)

VHHH 220900Z 26009KT 9000 FEW030 23/17 Q1017 NOSIG

VHHH Flight Activity (Flightaware)

Listeners: 0 out of 899 total

Hong Kong Arrival ATIS: 128.200

VHHH Clearance Delivery (Archives)
Hong Kong, Hong Kong

Feed Status: UP
Listen in your browser - HTML5 player(in browser, HTML5)
Click here to listen with your own player(launches your MP3 player)

VHHH 220900Z 26009KT 9000 FEW030 23/17 Q1017 NOSIG

VHHH Flight Activity (Flightaware)

Listeners: 0 out of 899 total

Hong Kong Clearance Delivery: 129.900

VHHH Departure (Primary) (Archives)
Hong Kong, Hong Kong

Feed Status: UP
Listen in your browser - HTML5 player(in browser, HTML5)
Click here to listen with your own player(launches your MP3 player)

VHHH 220900Z 26009KT 9000 FEW030 23/17 Q1017 NOSIG

VHHH Flight Activity (Flightaware)

Listeners: 1 out of 899 total

Hong Kong Departure: 123.800

VHHH Director #1 (Archives)
Hong Kong, Hong Kong

Feed Status: UP
Listen in your browser - HTML5 player(in browser, HTML5)
Click here to listen with your own player(launches your MP3 player)

VHHH 220900Z 26009KT 9000 FEW030 23/17 Q1017 NOSIG

VHHH Flight Activity (Flightaware)

Listeners: 1 out of 899 total

Hong Kong Director: 119.500

VHHH Ground (Archives)
Hong Kong, Hong Kong

Feed Status: UP
Listen in your browser - HTML5 player(in browser, HTML5)
Click here to listen with your own player(launches your MP3 player)

VHHH 220900Z 26009KT 9000 FEW030 23/17 Q1017 NOSIG

VHHH Flight Activity (Flightaware)

Listeners: 2 out of 899 total

Hong Kong Ground (North): 121.600
Hong Kong Ground (South): 122.550

VHHH Ground (North) (Archives)
Hong Kong, Hong Kong

Feed Status: UP
Listen in your browser - HTML5 player(in browser, HTML5)
Click here to listen with your own player(launches your MP3 player)

VHHH 220900Z 26009KT 9000 FEW030 23/17 Q1017 NOSIG

VHHH Flight Activity (Flightaware)

Listeners: 1 out of 899 total

Hong Kong Ground (North): 121.600

VHHH Ground (South) (Archives)
Hong Kong, Hong Kong

Feed Status: UP
Listen in your browser - HTML5 player(in browser, HTML5)
Click here to listen with your own player(launches your MP3 player)

VHHH 220900Z 26009KT 9000 FEW030 23/17 Q1017 NOSIG

VHHH Flight Activity (Flightaware)

Listeners: 0 out of 899 total

Hong Kong Ground (South): 122.550

VHHH Hong Kong Radar
Hong Kong, Hong Kong

Feed Status: DOWN
Offline since: 2019-12-15 11:40:40 UTC

VHHH 220900Z 26009KT 9000 FEW030 23/17 Q1017 NOSIG

Hong Kong Radar: 121.300
Hong Kong Radar: 118.925
Hong Kong Radar: 123.950

VTBS Approach (East) (Archives)
Bangkok, Thailand

Feed Status: UP
Listen in your browser - HTML5 player(in browser, HTML5)
Click here to listen with your own player(launches your MP3 player)

VTBS 220900Z VRB03KT 6000 SCT035 33/24 Q1011 NOSIG

VTBS Flight Activity (Flightaware)

Listeners: 0 out of 899 total

Bangkok Approach (East): 122.350

VTBS Approach (North) (Archives)
Bangkok, Thailand

Feed Status: UP
Listen in your browser - HTML5 player(in browser, HTML5)
Click here to listen with your own player(launches your MP3 player)

VTBS 220900Z VRB03KT 6000 SCT035 33/24 Q1011 NOSIG

VTBS Flight Activity (Flightaware)

Listeners: 1 out of 899 total

Bangkok Approach (North): 121.700

VTBS Approach 119.1 (Archives)
Bangkok, Thailand

Feed Status: UP
Listen in your browser - HTML5 player(in browser, HTML5)
Click here to listen with your own player(launches your MP3 player)

VTBS 220900Z VRB03KT 6000 SCT035 33/24 Q1011 NOSIG

VTBS Flight Activity (Flightaware)

Listeners: 0 out of 899 total

Bangkok Approach: 119.100

VTBS Approach 119.4 (Archives)
Bangkok, Thailand

Feed Status: UP
Listen in your browser - HTML5 player(in browser, HTML5)
Click here to listen with your own player(launches your MP3 player)

VTBS 220900Z VRB03KT 6000 SCT035 33/24 Q1011 NOSIG

VTBS Flight Activity (Flightaware)

Listeners: 0 out of 899 total

Bangkok Approach: 119.400

VTBS Approach 120.3 (Archives)
Bangkok, Thailand

Feed Status: UP
Listen in your browser - HTML5 player(in browser, HTML5)
Click here to listen with your own player(launches your MP3 player)

VTBS 220900Z VRB03KT 6000 SCT035 33/24 Q1011 NOSIG

VTBS Flight Activity (Flightaware)

Listeners: 0 out of 899 total

Bangkok Approach: 120.300

VTBS Approach/Arrival (Archives)
Bangkok, Thailand

Feed Status: UP
Listen in your browser - HTML5 player(in browser, HTML5)
Click here to listen with your own player(launches your MP3 player)

VTBS 220900Z VRB03KT 6000 SCT035 33/24 Q1011 NOSIG

VTBS Flight Activity (Flightaware)

Listeners: 1 out of 899 total

Bangkok Approach: 124.350
Bangkok Approach: 125.200
Bangkok Approach: 124.700
Bangkok Approach: 126.300
Bangkok Approach: 133.400
Bangkok Arrival (VTBD): 125.500

VTBS Arrival 121.1 (Archives)
Bangkok, Thailand

Feed Status: UP
Listen in your browser - HTML5 player(in browser, HTML5)
Click here to listen with your own player(launches your MP3 player)

VTBS 220900Z VRB03KT 6000 SCT035 33/24 Q1011 NOSIG

VTBS Flight Activity (Flightaware)

Listeners: 0 out of 899 total

Bangkok Arrival: 121.100

VTBS Departure (Archives)
Bangkok, Thailand

Feed Status: UP
Listen in your browser - HTML5 player(in browser, HTML5)
Click here to listen with your own player(launches your MP3 player)

VTBS 220900Z VRB03KT 6000 SCT035 33/24 Q1011 NOSIG

VTBS Flight Activity (Flightaware)

Listeners: 0 out of 899 total

Bangkok Departure: 119.250

VTBS Ground (East) (Archives)
Bangkok, Thailand

Feed Status: UP
Listen in your browser - HTML5 player(in browser, HTML5)
Click here to listen with your own player(launches your MP3 player)

VTBS 220900Z VRB03KT 6000 SCT035 33/24 Q1011 NOSIG

VTBS Flight Activity (Flightaware)

Listeners: 0 out of 899 total

Bangkok Ground (East): 121.650

VTBS Ground (Main) (Archives)
Bangkok, Thailand

Feed Status: UP
Listen in your browser - HTML5 player(in browser, HTML5)
Click here to listen with your own player(launches your MP3 player)

VTBS 220900Z VRB03KT 6000 SCT035 33/24 Q1011 NOSIG

VTBS Flight Activity (Flightaware)

Listeners: 0 out of 899 total

Bangkok Ground (Main): 121.750

VTBS Ground (West) (Archives)
Bangkok, Thailand

Feed Status: UP
Listen in your browser - HTML5 player(in browser, HTML5)
Click here to listen with your own player(launches your MP3 player)

VTBS 220900Z VRB03KT 6000 SCT035 33/24 Q1011 NOSIG

VTBS Flight Activity (Flightaware)

Listeners: 0 out of 899 total

Bangkok Ground (West): 121.950

VTBS Tower (Archives)
Bangkok, Thailand

Feed Status: UP
Listen in your browser - HTML5 player(in browser, HTML5)
Click here to listen with your own player(launches your MP3 player)

VTBS 220900Z VRB03KT 6000 SCT035 33/24 Q1011 NOSIG

VTBS Flight Activity (Flightaware)

Listeners: 0 out of 899 total

Bangkok Tower (Rwy 01L/19R): 119.000
Bangkok Tower (Rwy 01R/19L): 118.200

VTBS Tower (Rwy 01L/19R) (Archives)
Bangkok, Thailand

Feed Status: UP
Listen in your browser - HTML5 player(in browser, HTML5)
Click here to listen with your own player(launches your MP3 player)

VTBS 220900Z VRB03KT 6000 SCT035 33/24 Q1011 NOSIG

VTBS Flight Activity (Flightaware)

Listeners: 0 out of 899 total

Bangkok Tower (Rwy 01L/19R): 119.000

VTBS Tower (Rwy 01R/19L) (Archives)
Bangkok, Thailand

Feed Status: UP
Listen in your browser - HTML5 player(in browser, HTML5)
Click here to listen with your own player(launches your MP3 player)

VTBS 220900Z VRB03KT 6000 SCT035 33/24 Q1011 NOSIG

VTBS Flight Activity (Flightaware)

Listeners: 0 out of 899 total

Bangkok Tower (Rwy 01R/19L): 118.200

VTSS Approach (Archives)
Songkhla, Thailand

Feed Status: UP
Listen in your browser - HTML5 player(in browser, HTML5)
Click here to listen with your own player(launches your MP3 player)

VTSS 220900Z 07013KT 9999 FEW020 SCT100 31/23 Q1010 NOSIG

VTSS Flight Activity (Flightaware)

Listeners: 0 out of 899 total

Hat Yai Approach: 126.700

WAHH Approach
Yogyakarta, Indonesia

Feed Status: DOWN
Offline since: 2019-01-09 17:03:03 UTC

Adisutjipto Approach: 123.400

WBKK Gnd/Twr/App (Archives)
Kota Kinabalu, Malaysia

Feed Status: UP
Listen in your browser - HTML5 player(in browser, HTML5)
Click here to listen with your own player(launches your MP3 player)

WBKK 220900Z 01008KT 320V070 9999 FEW015 BKN290 31/24 Q1009 NOSIG


Listeners: 1 out of 899 total

Kinabalu Director: 119.100
Kinabalu Ground: 121.600
Kinabalu Radar: 126.100
Kinabalu Radar: 132.450
Kinabalu Tower: 118.300

WBKK Gnd/Twr/Radar/Control (Archives)
Kota Kinabalu, Malaysia

Feed Status: UP
Listen in your browser - HTML5 player(in browser, HTML5)
Click here to listen with your own player(launches your MP3 player)

WBKK 220900Z 01008KT 320V070 9999 FEW015 BKN290 31/24 Q1009 NOSIG


Listeners: 0 out of 899 total

Kinabalu Director: 119.100
Kinabalu Ground: 121.600
Kinabalu Radar: 126.100
Kinabalu Radar: 132.450
Kinabalu Radar: 128.300
Kinabalu Tower: 118.300

WBKS Approach (Archives)
Sandakan, Malaysia

Feed Status: UP
Listen in your browser - HTML5 player(in browser, HTML5)
Click here to listen with your own player(launches your MP3 player)

WBKS 220900Z 04009KT 010V070 9999 SCT016 29/23 Q1012


Listeners: 1 out of 899 total

Sandakan Approach/Departure: 123.200

WBKS ATIS (Archives)
Sandakan, Malaysia

Feed Status: UP
Listen in your browser - HTML5 player(in browser, HTML5)
Click here to listen with your own player(launches your MP3 player)

WBKS 220900Z 04009KT 010V070 9999 SCT016 29/23 Q1012


Listeners: 0 out of 899 total

Sandakan ATIS: 128.200

WBKS Emergency/Guard (Archives)
Sandakan, Malaysia

Feed Status: UP
Listen in your browser - HTML5 player(in browser, HTML5)
Click here to listen with your own player(launches your MP3 player)

WBKS 220900Z 04009KT 010V070 9999 SCT016 29/23 Q1012


Listeners: 0 out of 899 total

Emergency/Guard: 121.500

WBKS Gnd/Twr/App/Guard (Archives)
Sandakan, Malaysia

Feed Status: UP
Listen in your browser - HTML5 player(in browser, HTML5)
Click here to listen with your own player(launches your MP3 player)

WBKS 220900Z 04009KT 010V070 9999 SCT016 29/23 Q1012


Listeners: 0 out of 899 total

Emergency/Guard: 121.500
Sandakan Approach/Departure: 123.200
Sandakan Ground: 121.900
Sandakan Tower: 122.050

WBKS Ground (Archives)
Sandakan, Malaysia

Feed Status: UP
Listen in your browser - HTML5 player(in browser, HTML5)
Click here to listen with your own player(launches your MP3 player)

WBKS 220900Z 04009KT 010V070 9999 SCT016 29/23 Q1012


Listeners: 0 out of 899 total

Sandakan Ground: 121.900

WBKS Tower (Archives)
Sandakan, Malaysia

Feed Status: UP
Listen in your browser - HTML5 player(in browser, HTML5)
Click here to listen with your own player(launches your MP3 player)

WBKS 220900Z 04009KT 010V070 9999 SCT016 29/23 Q1012


Listeners: 0 out of 899 total

Sandakan Tower: 122.050

WMKB Radar (Archives)
Penang, Malaysia

Feed Status: UP
Listen in your browser - HTML5 player(in browser, HTML5)
Click here to listen with your own player(launches your MP3 player)

WMKB 220900Z 30010KT 250V360 9999 FEW020 32/24 Q1009 NOSIG


Listeners: 2 out of 899 total

Butterworth Radar: 125.800

WMSA Del/Gnd/Twr/App (Archives)
Subang, Malaysia

Feed Status: UP
Listen in your browser - HTML5 player(in browser, HTML5)
Click here to listen with your own player(launches your MP3 player)

WMSA 220900Z 06005KT 350V120 9999 FEW018 35/25 Q1009


Listeners: 2 out of 899 total

Lumpur Approach: 119.450
Lumpur Director: 124.200
Subang Clearance Delivery: 126.000
Subang Ground: 121.900
Subang Tower: 118.200

YADG CTAF (Archives)
Sellicks Hill, South Australia, Australia

Feed Status: UP
Listen in your browser - HTML5 player(in browser, HTML5)
Click here to listen with your own player(launches your MP3 player)

YADG Flight Activity (Flightaware)

Listeners: 0 out of 899 total

Aldinga CTAF: 127.150

YBAF Gnd/Twr #2 (Archives)
Brisbane, Queensland, Australia

Feed Status: UP
Listen in your browser - HTML5 player(in browser, HTML5)
Click here to listen with your own player(launches your MP3 player)

YBAF Flight Activity (Flightaware)

Listeners: 2 out of 899 total

Brisbane Ground: 119.900
Brisbane Tower (North): 123.600
Brisbane Tower/CTAF (South): 118.100

YBAS Tower/Center (Archives)
Alice Springs, Northern Territory, Australia

Feed Status: UP
Listen in your browser - HTML5 player(in browser, HTML5)
Click here to listen with your own player(launches your MP3 player)

YBAS 220900Z AUTO 25009KT 9999 // SCT097 OVC120 36/14 Q1004

YBAS Flight Activity (Flightaware)

Listeners: 0 out of 899 total

Alice Tower/CTAF: 118.300
Melbourne Center (above FL280): 128.850
Melbourne Center (below FL280): 119.800

YBBN Gnd/Twr/App/Dep
Brisbane, Queensland, Australia

Feed Status: DOWN
Offline since: 2020-01-22 05:07:23 UTC

YBBN 220900Z 02017KT 9999 BKN010 27/25 Q1010

Approach: 123.500
Brisbane Approach: 124.700
Brisbane Approach/Departure: 125.600
Brisbane Departure: 128.300
Brisbane Ground: 121.700
Brisbane Tower: 120.500

YBCG Approach (Archives)
Gold Coast City, Queensland, Australia

Feed Status: UP
Listen in your browser - HTML5 player(in browser, HTML5)
Click here to listen with your own player(launches your MP3 player)

YBCG 220900Z AUTO 36011KT 9999 // OVC011 26/24 Q1011

YBCG Flight Activity (Flightaware)

Listeners: 0 out of 899 total

Brisbane Approach: 123.500

YBCG Area CTAF (Archives)
Gold Coast City, Queensland, Australia

Feed Status: UP
Listen in your browser - HTML5 player(in browser, HTML5)
Click here to listen with your own player(launches your MP3 player)

YBCG 220900Z AUTO 36011KT 9999 // OVC011 26/24 Q1011

YBCG Flight Activity (Flightaware)

Listeners: 0 out of 899 total

Gold Coast Area CTAF: 126.700

YBCG Brisbane Centre (Archives)
Gold Coast City, Queensland, Australia

Feed Status: UP
Listen in your browser - HTML5 player(in browser, HTML5)
Click here to listen with your own player(launches your MP3 player)

YBCG 220900Z AUTO 36011KT 9999 // OVC011 26/24 Q1011

YBCG Flight Activity (Flightaware)

Listeners: 0 out of 899 total

Brisbane Centre/Radar: 119.500

YBCG Ground (Archives)
Gold Coast City, Queensland, Australia

Feed Status: UP
Listen in your browser - HTML5 player(in browser, HTML5)
Click here to listen with your own player(launches your MP3 player)

YBCG 220900Z AUTO 36011KT 9999 // OVC011 26/24 Q1011

YBCG Flight Activity (Flightaware)

Listeners: 0 out of 899 total

Gold Coast Ground: 121.800

YBCG Ground/Tower (Archives)
Gold Coast City, Queensland, Australia

Feed Status: UP
Listen in your browser - HTML5 player(in browser, HTML5)
Click here to listen with your own player(launches your MP3 player)

YBCG 220900Z AUTO 36011KT 9999 // OVC011 26/24 Q1011

YBCG Flight Activity (Flightaware)

Listeners: 0 out of 899 total

Gold Coast Ground: 121.800
Gold Coast Tower: 118.700

YBCG Tower (Archives)
Gold Coast City, Queensland, Australia

Feed Status: UP
Listen in your browser - HTML5 player(in browser, HTML5)
Click here to listen with your own player(launches your MP3 player)

YBCG 220900Z AUTO 36011KT 9999 // OVC011 26/24 Q1011

YBCG Flight Activity (Flightaware)

Listeners: 0 out of 899 total

Gold Coast Tower: 118.700

YBCS App/Dep #1 (Archives)
Cairns, Queensland, Australia

Feed Status: UP
Listen in your browser - HTML5 player(in browser, HTML5)
Click here to listen with your own player(launches your MP3 player)

YBCS 220900Z AUTO 00000KT 9999 // NCD 28/24 Q1008 FM0900 VRB03KT 9999 FEW025 INTER 1000/1200 3000 SHRA BKN015

YBCS Flight Activity (Flightaware)

Listeners: 0 out of 899 total

Cairns Approach/Departure: 118.400

YBCS App/Dep #2 (Archives)
Cairns, Queensland, Australia

Feed Status: UP
Listen in your browser - HTML5 player(in browser, HTML5)
Click here to listen with your own player(launches your MP3 player)

YBCS 220900Z AUTO 00000KT 9999 // NCD 28/24 Q1008 FM0900 VRB03KT 9999 FEW025 INTER 1000/1200 3000 SHRA BKN015

YBCS Flight Activity (Flightaware)

Listeners: 0 out of 899 total

Cairns Approach/Departure: 126.100

YBCS App/Dep (all) (Archives)
Cairns, Queensland, Australia

Feed Status: UP
Listen in your browser - HTML5 player(in browser, HTML5)
Click here to listen with your own player(launches your MP3 player)

YBCS 220900Z AUTO 00000KT 9999 // NCD 28/24 Q1008 FM0900 VRB03KT 9999 FEW025 INTER 1000/1200 3000 SHRA BKN015

YBCS Flight Activity (Flightaware)

Listeners: 0 out of 899 total

Cairns Approach/Departure: 126.100
Cairns Approach/Departure: 118.400

YBCS Brisbane Centre (Archives)
Cairns, Queensland, Australia

Feed Status: UP
Listen in your browser - HTML5 player(in browser, HTML5)
Click here to listen with your own player(launches your MP3 player)

YBCS 220900Z AUTO 00000KT 9999 // NCD 28/24 Q1008 FM0900 VRB03KT 9999 FEW025 INTER 1000/1200 3000 SHRA BKN015

YBCS Flight Activity (Flightaware)

Listeners: 0 out of 899 total

Brisbane Centre: 121.200

YBCS Emergency/Guard (Archives)
Cairns, Queensland, Australia

Feed Status: UP
Listen in your browser - HTML5 player(in browser, HTML5)
Click here to listen with your own player(launches your MP3 player)

YBCS 220900Z AUTO 00000KT 9999 // NCD 28/24 Q1008 FM0900 VRB03KT 9999 FEW025 INTER 1000/1200 3000 SHRA BKN015

YBCS Flight Activity (Flightaware)

Listeners: 0 out of 899 total

Emergency/Guard: 121.500

YBCS Ground (Archives)
Cairns, Queensland, Australia

Feed Status: UP
Listen in your browser - HTML5 player(in browser, HTML5)
Click here to listen with your own player(launches your MP3 player)

YBCS 220900Z AUTO 00000KT 9999 // NCD 28/24 Q1008 FM0900 VRB03KT 9999 FEW025 INTER 1000/1200 3000 SHRA BKN015

YBCS Flight Activity (Flightaware)

Listeners: 0 out of 899 total

Cairns Ground: 121.700

YBCS Ground/Tower (Archives)
Cairns, Queensland, Australia

Feed Status: UP
Listen in your browser - HTML5 player(in browser, HTML5)
Click here to listen with your own player(launches your MP3 player)

YBCS 220900Z AUTO 00000KT 9999 // NCD 28/24 Q1008 FM0900 VRB03KT 9999 FEW025 INTER 1000/1200 3000 SHRA BKN015

YBCS Flight Activity (Flightaware)

Listeners: 0 out of 899 total

Cairns Ground: 121.700
Cairns Tower: 124.900

YBCS Tower (Archives)
Cairns, Queensland, Australia

Feed Status: UP
Listen in your browser - HTML5 player(in browser, HTML5)
Click here to listen with your own player(launches your MP3 player)

YBCS 220900Z AUTO 00000KT 9999 // NCD 28/24 Q1008 FM0900 VRB03KT 9999 FEW025 INTER 1000/1200 3000 SHRA BKN015

YBCS Flight Activity (Flightaware)

Listeners: 0 out of 899 total

Cairns Tower: 124.900

YBCV CTAF/Brisbane Center
Charleville, Queensland, Australia

Feed Status: DOWN
Offline since: 2020-01-16 04:54:39 UTC

YBCV 220900Z AUTO 33005KT 9999 // NCD 36/06 Q1006

Brisbane Center: 124.800
Charleville CTAF/UNICOM: 126.700

YBDG CTAF (Archives)
Bendigo, Victoria, Australia

Feed Status: UP
Listen in your browser - HTML5 player(in browser, HTML5)
Click here to listen with your own player(launches your MP3 player)

YBDG Flight Activity (Flightaware)

Listeners: 0 out of 899 total

Bendigo CTAF: 119.300

YBOK Del/Gnd/Twr/App (Archives)
Oakey, Queensland, Australia

Feed Status: UP
Listen in your browser - HTML5 player(in browser, HTML5)
Click here to listen with your own player(launches your MP3 player)

YBOK Flight Activity (Flightaware)

Listeners: 0 out of 899 total

Brisbane Center/FSS: 121.200
Oakey Approach: 125.400
Oakey Approach: 123.700
Oakey Approach (Final): 135.850
Oakey Clearance Delivery: 133.350
Oakey CTAF (+YTWB/YBWW): 127.650
Oakey Ground: 121.900
Oakey Tower: 120.100

YBTL Approach/Departure
Townsville, Queensland, Australia

Feed Status: DOWN
Offline since: 2020-01-10 12:17:39 UTC

YBTL 220900Z AUTO 07008KT 9999 // SCT023 28/25 Q1008

Townsville Approach/Departure: 126.800

YBTL ATIS
Townsville, Queensland, Australia

Feed Status: DOWN
Offline since: 2020-01-10 12:17:39 UTC

YBTL 220900Z AUTO 07008KT 9999 // SCT023 28/25 Q1008

Townsville ATIS: 133.500

YBTL Brisbane Center
Townsville, Queensland, Australia

Feed Status: DOWN
Offline since: 2020-01-10 12:17:39 UTC

YBTL 220900Z AUTO 07008KT 9999 // SCT023 28/25 Q1008

Brisbane Center: 120.550

YBTL Clearance Delivery
Townsville, Queensland, Australia

Feed Status: DOWN
Offline since: 2020-01-10 12:17:39 UTC

YBTL 220900Z AUTO 07008KT 9999 // SCT023 28/25 Q1008

Townsville Clearance Delivery: 128.100

YBTL Ground
Townsville, Queensland, Australia

Feed Status: DOWN
Offline since: 2020-01-10 12:17:39 UTC

YBTL 220900Z AUTO 07008KT 9999 // SCT023 28/25 Q1008

Townsville Ground: 119.450

YBTL Tower
Townsville, Queensland, Australia

Feed Status: DOWN
Offline since: 2020-01-10 12:17:39 UTC

YBTL 220900Z AUTO 07008KT 9999 // SCT023 28/25 Q1008

Townsville Tower: 118.300

YGAW CTAF (Archives)
Gawler, South Australia, Australia

Feed Status: UP
Listen in your browser - HTML5 player(in browser, HTML5)
Click here to listen with your own player(launches your MP3 player)

METAR NOT AVAILABLE

YGAW Flight Activity (Flightaware)

Listeners: 0 out of 899 total

Gawler CTAF: 126.550

YGLA CTAF (Archives)
Gladstone, Queensland, Australia

Feed Status: UP
Listen in your browser - HTML5 player(in browser, HTML5)
Click here to listen with your own player(launches your MP3 player)

YGLA 220900Z AUTO 03010KT 9999 // NCD 29/24 Q1010 RF00.0/000.0

YGLA Flight Activity (Flightaware)

Listeners: 0 out of 899 total

Gladstone CTF/Multicom: 118.800

YGTH AWIS (Archives)
Griffith, New South Wales, Australia

Feed Status: UP
Listen in your browser - HTML5 player(in browser, HTML5)
Click here to listen with your own player(launches your MP3 player)

YGTH 220900Z AUTO 34009KT 9999 // NCD 35/04 Q0999

YGTH Flight Activity (Flightaware)

Listeners: 0 out of 899 total

Griffith AWIS Weather: 132.950

YGTH CTAF (Archives)
Griffith, New South Wales, Australia

Feed Status: UP
Listen in your browser - HTML5 player(in browser, HTML5)
Click here to listen with your own player(launches your MP3 player)

YGTH 220900Z AUTO 34009KT 9999 // NCD 35/04 Q0999

YGTH Flight Activity (Flightaware)

Listeners: 0 out of 899 total

Griffith CTAF: 126.550

YMHB Gnd/Twr/Centre (Archives)
Cambridge, Tasmania, Australia

Feed Status: UP
Listen in your browser - HTML5 player(in browser, HTML5)
Click here to listen with your own player(launches your MP3 player)

YMHB 220900Z 36014KT CAVOK 25/09 Q0995

YMHB Flight Activity (Flightaware)

Listeners: 0 out of 899 total

Hobart Ground: 121.700
Hobart Tower: 118.100
Melbourne Centre: 125.550

YMIA CTAF/Melbourne Center (Archives)
Mildura, Victoria, Australia

Feed Status: UP
Listen in your browser - HTML5 player(in browser, HTML5)
Click here to listen with your own player(launches your MP3 player)

YMIA 220900Z AUTO 28006KT 3800 // SCT025 OVC036 29/13 Q0997

YMIA Flight Activity (Flightaware)

Listeners: 0 out of 899 total

Melbourne Center: 112.100
Melbourne Center: 132.600
Mildura CTAF: 118.800

YMML Twr/App/Center (Archives)
Melbourne, Victoria, Australia

Feed Status: UP
Listen in your browser - HTML5 player(in browser, HTML5)
Click here to listen with your own player(launches your MP3 player)

YMML 220901Z 22017G31KT 9999 VCSH FEW008 BKN070 BKN120 19/14 Q0997

YMML Flight Activity (Flightaware)

Listeners: 19 out of 899 total

Air Ambulance: 132.750
DSE & Other Company: 119.100
Essendon Tower: 125.100
Inter-Pilot: 123.450
Jetstar Company: 130.925
Melbourne ACD: 127.200
Melbourne Approach: 132.000
Melbourne Centre: 130.300
Melbourne Centre: 128.500
Melbourne Centre: 126.800
Melbourne Centre: 125.800
Melbourne Centre: 125.700
Melbourne Centre: 125.200
Melbourne Centre: 123.750
Melbourne Centre: 122.400
Melbourne Departure: 118.900
Melbourne Departure: 129.400
Melbourne Tower: 120.500
Moorabbin Tower (East): 118.100
Moorabbin Tower (West): 123.000
Police Air Wing: 131.600
Qantas Company: 130.850
Qantas Company: 129.500
Rex Company: 126.450
Royal Victorian Aero Club Company: 128.700
Royal Victorian Aero Club Company: 133.400

YPAD Del/Gnd/Twr/App (Archives)
Adelaide, South Australia, Australia

Feed Status: UP
Listen in your browser - HTML5 player(in browser, HTML5)
Click here to listen with your own player(launches your MP3 player)

YPAD 220900Z 23015KT 9999 FEW035 BKN060 BKN100 19/10 Q0999 NOSIG

YPAD Flight Activity (Flightaware)

Listeners: 3 out of 899 total

Adelaide Approach (East of Adelaide): 118.200
Adelaide Approach (East of Adelaide): 130.450
Adelaide Approach (Kangaroo Island): 123.050
Adelaide Approach (North of Adelaide): 128.600
Adelaide Approach (West of Adelaide): 124.200
Adelaide Clearance Delivery: 126.100
Adelaide Ground: 121.700
Adelaide Tower: 120.500

YPAD Gnd/Twr/App/Center (Archives)
Adelaide, South Australia, Australia

Feed Status: UP
Listen in your browser - HTML5 player(in browser, HTML5)
Click here to listen with your own player(launches your MP3 player)

YPAD 220900Z 23015KT 9999 FEW035 BKN060 BKN100 19/10 Q0999 NOSIG

YPAD Flight Activity (Flightaware)

Listeners: 0 out of 899 total

Adelaide Approach (East of Adelaide): 118.200
Adelaide Approach (East of Adelaide): 130.450
Adelaide Approach (Kangaroo Island): 123.050
Adelaide Approach (North of Adelaide): 128.600
Adelaide Approach (West of Adelaide): 124.200
Adelaide Clearance Delivery: 126.100
Adelaide Ground: 121.700
Adelaide Tower: 120.500
Flight Watch: 135.750
Melbourne Centre: 124.300
Melbourne Centre ( East of Adelaide): 125.300
Melbourne Centre ( Pt Augusta, Pt Pirie, Whyalla): 123.900
Melbourne Centre (Mildura): 122.100
Melbourne Centre (North of Adelaide): 122.400
Melbourne Centre (Pt Lincoln): 125.900
Melbourne Centre (West of Adelaide ): 127.050

YPDN Gnd/Twr/App/Dep (Archives)
Darwin, Northern Territory, Australia

Feed Status: UP
Listen in your browser - HTML5 player(in browser, HTML5)
Click here to listen with your own player(launches your MP3 player)

YPDN 220923Z 00000KT 9999 3000SW RA FEW010 SCT048 BKN120 24/24 Q1007

YPDN Flight Activity (Flightaware)

Listeners: 2 out of 899 total

Darwin Approach: 134.100
Darwin Arrival: 125.200
Darwin Departure: 119.550
Darwin Ground: 121.800
Darwin Tower: 133.100

YPJT Gnd/Twr (Archives)
Perth, Western Australia, Australia

Feed Status: UP
Listen in your browser - HTML5 player(in browser, HTML5)
Click here to listen with your own player(launches your MP3 player)

YPJT 220900Z AUTO 22019KT 9999 // SCT032 23/14 Q1015 RF00.0/000.0

YPJT Flight Activity (Flightaware)

Listeners: 2 out of 899 total

Jandakot Ground: 124.300
Jandakot Tower: 119.400
Jandakot Tower/CTAF: 118.100

YPMQ CTAF (Archives)
Port Macquarie, New South Wales, Australia

Feed Status: UP
Listen in your browser - HTML5 player(in browser, HTML5)
Click here to listen with your own player(launches your MP3 player)

YPMQ Flight Activity (Flightaware)

Listeners: 0 out of 899 total

Port Macquarie CTAF/Multicom: 118.100

YPPF Ground (Archives)
Parafield, South Australia, Australia

Feed Status: UP
Listen in your browser - HTML5 player(in browser, HTML5)
Click here to listen with your own player(launches your MP3 player)

YPPF Flight Activity (Flightaware)

Listeners: 0 out of 899 total

Parafield Ground: 119.900

YPPF Tower #1 (Archives)
Parafield, South Australia, Australia

Feed Status: UP
Listen in your browser - HTML5 player(in browser, HTML5)
Click here to listen with your own player(launches your MP3 player)

YPPF Flight Activity (Flightaware)

Listeners: 0 out of 899 total

Parafield Tower: 118.700

YPPF Tower #2 (Archives)
Parafield, South Australia, Australia

Feed Status: UP
Listen in your browser - HTML5 player(in browser, HTML5)
Click here to listen with your own player(launches your MP3 player)

YPPF Flight Activity (Flightaware)

Listeners: 0 out of 899 total

Parafield Tower: 124.600

YPPH Approach (Archives)
Perth, Western Australia, Australia

Feed Status: UP
Listen in your browser - HTML5 player(in browser, HTML5)
Click here to listen with your own player(launches your MP3 player)

YPPH 220928Z 23017G27KT 9999 BKN035 23/13 Q1015

YPPH Flight Activity (Flightaware)

Listeners: 0 out of 899 total

Perth Approach: 123.600

YPPH Departure
Perth, Western Australia, Australia

Feed Status: DOWN
Offline since: 2020-01-18 07:15:06 UTC

YPPH 220928Z 23017G27KT 9999 BKN035 23/13 Q1015

Perth Departure: 118.700

YPPH Ground
Perth, Western Australia, Australia

Feed Status: DOWN
Offline since: 2020-01-18 07:10:06 UTC

YPPH 220928Z 23017G27KT 9999 BKN035 23/13 Q1015

Perth Ground: 121.700

YPPH Tower (Archives)
Perth, Western Australia, Australia

Feed Status: UP
Listen in your browser - HTML5 player(in browser, HTML5)
Click here to listen with your own player(launches your MP3 player)

YPPH 220928Z 23017G27KT 9999 BKN035 23/13 Q1015

YPPH Flight Activity (Flightaware)

Listeners: 1 out of 899 total

Perth Tower: 127.400

YROM CTAF/Center (Archives)
Roma, Queensland, Australia

Feed Status: UP
Listen in your browser - HTML5 player(in browser, HTML5)
Click here to listen with your own player(launches your MP3 player)

METAR NOT AVAILABLE

YROM Flight Activity (Flightaware)

Listeners: 0 out of 899 total

Brisbane Center: 126.000
Roma CTAF: 126.950

YRYW 122.5 (Archives)
Raywood, Victoria, Australia

Feed Status: UP
Listen in your browser - HTML5 player(in browser, HTML5)
Click here to listen with your own player(launches your MP3 player)

METAR NOT AVAILABLE

YRYW Flight Activity (Flightaware)

Listeners: 0 out of 899 total


YRYW 122.7 (Archives)
Raywood, Victoria, Australia

Feed Status: UP
Listen in your browser - HTML5 player(in browser, HTML5)
Click here to listen with your own player(launches your MP3 player)

METAR NOT AVAILABLE

YRYW Flight Activity (Flightaware)

Listeners: 0 out of 899 total


YRYW 122.9 (Archives)
Raywood, Victoria, Australia

Feed Status: UP
Listen in your browser - HTML5 player(in browser, HTML5)
Click here to listen with your own player(launches your MP3 player)

METAR NOT AVAILABLE

YRYW Flight Activity (Flightaware)

Listeners: 0 out of 899 total


YRYW CTAF (Archives)
Raywood, Victoria, Australia

Feed Status: UP
Listen in your browser - HTML5 player(in browser, HTML5)
Click here to listen with your own player(launches your MP3 player)

METAR NOT AVAILABLE

YRYW Flight Activity (Flightaware)

Listeners: 0 out of 899 total

Raywood CTAF: 126.700

YSBK ATIS (Archives)
Bankstown, New South Wales, Australia

Feed Status: UP
Listen in your browser - HTML5 player(in browser, HTML5)
Click here to listen with your own player(launches your MP3 player)

YSBK Flight Activity (Flightaware)

Listeners: 0 out of 899 total

Bankstown ATIS: 120.900

YSBK Tower (Archives)
Bankstown, New South Wales, Australia

Feed Status: UP
Listen in your browser - HTML5 player(in browser, HTML5)
Click here to listen with your own player(launches your MP3 player)

YSBK Flight Activity (Flightaware)

Listeners: 2 out of 899 total

Bankstown Tower: 132.800

YSCB App/Dep (Archives)
Canberra, Australian Capital Territory, Australia

Feed Status: UP
Listen in your browser - HTML5 player(in browser, HTML5)
Click here to listen with your own player(launches your MP3 player)

YSCB 220900Z AUTO 31012KT 9999 // NCD 30/M03 Q1006 FM1000 MOD TURB BLW 5000FT

YSCB Flight Activity (Flightaware)

Listeners: 1 out of 899 total

Canberra Approach/Departure: 124.500

YSCB App/Dep/Center (Archives)
Canberra, Australian Capital Territory, Australia

Feed Status: UP
Listen in your browser - HTML5 player(in browser, HTML5)
Click here to listen with your own player(launches your MP3 player)

YSCB 220900Z AUTO 31012KT 9999 // NCD 30/M03 Q1006 FM1000 MOD TURB BLW 5000FT

YSCB Flight Activity (Flightaware)

Listeners: 1 out of 899 total

Melbourne Center: 125.900

YSCB ATIS (Archives)
Canberra, Australian Capital Territory, Australia

Feed Status: UP
Listen in your browser - HTML5 player(in browser, HTML5)
Click here to listen with your own player(launches your MP3 player)

YSCB 220900Z AUTO 31012KT 9999 // NCD 30/M03 Q1006 FM1000 MOD TURB BLW 5000FT

YSCB Flight Activity (Flightaware)

Listeners: 0 out of 899 total

Canberra ATIS: 127.450

YSCB Ground/Tower (Archives)
Canberra, Australian Capital Territory, Australia

Feed Status: UP
Listen in your browser - HTML5 player(in browser, HTML5)
Click here to listen with your own player(launches your MP3 player)

YSCB 220900Z AUTO 31012KT 9999 // NCD 30/M03 Q1006 FM1000 MOD TURB BLW 5000FT

YSCB Flight Activity (Flightaware)

Listeners: 0 out of 899 total

Canberra Ground: 121.700
Canberra Tower: 118.700

YSCB Melbourne Center (Archives)
Canberra, Australian Capital Territory, Australia

Feed Status: UP
Listen in your browser - HTML5 player(in browser, HTML5)
Click here to listen with your own player(launches your MP3 player)

YSCB 220900Z AUTO 31012KT 9999 // NCD 30/M03 Q1006 FM1000 MOD TURB BLW 5000FT

YSCB Flight Activity (Flightaware)

Listeners: 0 out of 899 total

Melbourne Center: 128.400

YSCN Tower/CTAF (Archives)
Camden, New South Wales, Australia

Feed Status: UP
Listen in your browser - HTML5 player(in browser, HTML5)
Click here to listen with your own player(launches your MP3 player)

YSCN Flight Activity (Flightaware)

Listeners: 0 out of 899 total

Camden Tower/CTAF: 120.100

YSNW Gnd/CTAF/App/Center (Archives)
Nowra, New South Wales, Australia

Feed Status: UP
Listen in your browser - HTML5 player(in browser, HTML5)
Click here to listen with your own player(launches your MP3 player)

YSNW 220900Z 07009KT CAVOK 26/18 Q1004 NOSIG

YSNW Flight Activity (Flightaware)

Listeners: 0 out of 899 total

Enroute: 132.300
Nowra Approach: 123.500
Nowra CTAF: 118.850
Nowra Ground: 135.850

Australia - ATC Satellite Feed (Archives)
Sydney, New South Wales, Australia

Feed Status: UP
Listen in your browser - HTML5 player(in browser, HTML5)
Click here to listen with your own player(launches your MP3 player)


Listeners: 1 out of 899 total

Brisbane Center: 123.400
Brisbane Center: 128.600
Melbourne Center: 133.500
Melbourne Center: 118.500
Sydney Departures: 118.400

YSSY Approach (North/East) (Archives)
Sydney, New South Wales, Australia

Feed Status: UP
Listen in your browser - HTML5 player(in browser, HTML5)
Click here to listen with your own player(launches your MP3 player)

YSSY 220900Z 03017KT 9999 FEW020 28/23 Q1005 NOSIG

YSSY Flight Activity (Flightaware)

Listeners: 0 out of 899 total

Sydney Approach (North/East): 124.400

YSSY Approach (South) (Archives)
Sydney, New South Wales, Australia

Feed Status: UP
Listen in your browser - HTML5 player(in browser, HTML5)
Click here to listen with your own player(launches your MP3 player)

YSSY 220900Z 03017KT 9999 FEW020 28/23 Q1005 NOSIG

YSSY Flight Activity (Flightaware)

Listeners: 0 out of 899 total

Sydney Approach (South/West): 128.300

YSSY ATIS (Archives)
Sydney, New South Wales, Australia

Feed Status: UP
Listen in your browser - HTML5 player(in browser, HTML5)
Click here to listen with your own player(launches your MP3 player)

YSSY 220900Z 03017KT 9999 FEW020 28/23 Q1005 NOSIG

YSSY Flight Activity (Flightaware)

Listeners: 0 out of 899 total

Sydney ATIS: 118.550

YSSY Center (South/West) (Archives)
Sydney, New South Wales, Australia

Feed Status: UP
Listen in your browser - HTML5 player(in browser, HTML5)
Click here to listen with your own player(launches your MP3 player)

YSSY 220900Z 03017KT 9999 FEW020 28/23 Q1005 NOSIG

YSSY Flight Activity (Flightaware)

Listeners: 0 out of 899 total

Sydney Center: 124.550

YSSY Del/Gnd (Archives)
Sydney, New South Wales, Australia

Feed Status: UP
Listen in your browser - HTML5 player(in browser, HTML5)
Click here to listen with your own player(launches your MP3 player)

YSSY 220900Z 03017KT 9999 FEW020 28/23 Q1005 NOSIG

YSSY Flight Activity (Flightaware)

Listeners: 0 out of 899 total

Sydney Clearance Delivery: 133.800
Sydney Ground (East of Rwys 16R/34L): 121.700
Sydney Ground (West of Rwys 16R/34L): 126.500

YSSY Departure (North/East) (Archives)
Sydney, New South Wales, Australia

Feed Status: UP
Listen in your browser - HTML5 player(in browser, HTML5)
Click here to listen with your own player(launches your MP3 player)

YSSY 220900Z 03017KT 9999 FEW020 28/23 Q1005 NOSIG

YSSY Flight Activity (Flightaware)

Listeners: 0 out of 899 total

Sydney Departure (North/East): 123.000

YSSY Departure (South/West) (Archives)
Sydney, New South Wales, Australia

Feed Status: UP
Listen in your browser - HTML5 player(in browser, HTML5)
Click here to listen with your own player(launches your MP3 player)

YSSY 220900Z 03017KT 9999 FEW020 28/23 Q1005 NOSIG

YSSY Flight Activity (Flightaware)

Listeners: 0 out of 899 total

Sydney Departure (Rte S, W and NW): 129.700

YSSY Director (Both) (Archives)
Sydney, New South Wales, Australia

Feed Status: UP
Listen in your browser - HTML5 player(in browser, HTML5)
Click here to listen with your own player(launches your MP3 player)

YSSY 220900Z 03017KT 9999 FEW020 28/23 Q1005 NOSIG

YSSY Flight Activity (Flightaware)

Listeners: 0 out of 899 total

Sydney Director (East): 125.300
Sydney Director (West): 126.100

YSSY Director (East) (Archives)
Sydney, New South Wales, Australia

Feed Status: UP
Listen in your browser - HTML5 player(in browser, HTML5)
Click here to listen with your own player(launches your MP3 player)

YSSY 220900Z 03017KT 9999 FEW020 28/23 Q1005 NOSIG

YSSY Flight Activity (Flightaware)

Listeners: 0 out of 899 total

Sydney Director (East): 125.300

YSSY Tower (Both) (Archives)
Sydney, New South Wales, Australia

Feed Status: UP
Listen in your browser - HTML5 player(in browser, HTML5)
Click here to listen with your own player(launches your MP3 player)

YSSY 220900Z 03017KT 9999 FEW020 28/23 Q1005 NOSIG

YSSY Flight Activity (Flightaware)

Listeners: 2 out of 899 total

Sydney Tower (Rwy 16L/34R): 124.700
Sydney Tower (Rwy 16R/34L, Rwy 07/25): 120.500

YSSY Tower (Rwy 16L/34R) (Archives)
Sydney, New South Wales, Australia

Feed Status: UP
Listen in your browser - HTML5 player(in browser, HTML5)
Click here to listen with your own player(launches your MP3 player)

YSSY 220900Z 03017KT 9999 FEW020 28/23 Q1005 NOSIG

YSSY Flight Activity (Flightaware)

Listeners: 0 out of 899 total

Sydney Tower (Rwy 16L/34R): 124.700

YSSY Tower (Rwys 16R/34L,7/25) (Archives)
Sydney, New South Wales, Australia

Feed Status: UP
Listen in your browser - HTML5 player(in browser, HTML5)
Click here to listen with your own player(launches your MP3 player)

YSSY 220900Z 03017KT 9999 FEW020 28/23 Q1005 NOSIG

YSSY Flight Activity (Flightaware)

Listeners: 1 out of 899 total

Sydney Tower (Rwy 16R/34L, Rwy 07/25): 120.500

ZBAA Tower (Archives)
Beijing, China

Feed Status: UP
Listen in your browser - HTML5 player(in browser, HTML5)
Click here to listen with your own player(launches your MP3 player)

ZBAA 220900Z 03001MPS CAVOK 03/M11 Q1022 NOSIG


Listeners: 17 out of 899 total

Beijing Tower (Rwy 01/19): 118.600

ZHNY Tower (Archives)
Nanyang, China

Feed Status: UP
Listen in your browser - HTML5 player(in browser, HTML5)
Click here to listen with your own player(launches your MP3 player)


Listeners: 2 out of 899 total

Nanyang Tower: 118.500

ZYCY Tower (Archives)
Chaoyang, China

Feed Status: UP
Listen in your browser - HTML5 player(in browser, HTML5)
Click here to listen with your own player(launches your MP3 player)

ZYCY 140700Z 25002MPS CAVOK 29/16 Q1006 NOSIG


Listeners: 0 out of 899 total

Chaoyang Tower: 118.350